GFSCGP_con_3kmhel_000.txt.gz
Helicity
32 26 -3 -4 -12 -20 -21 -18 -15 -7 1 -37 -18 18 64 57 58 24 19 42 79 74 55 66 52 55 84 80 86 73 59 48 42 88 96 101 109 110 115 124 155 174 207 231
44 18 -3 1 7 -2 -3 9 5 4 4 -15 18 56 97 119 111 80 46 52 76 85 60 66 69 33 11 32 39 36 39 50 73 136 167 140 128 125 126 130 140 183 205 244
26 23 38 13 12 6 -18 -13 -22 -21 6 27 17 78 110 85 113 86 74 56 73 81 81 24 15 3 3 -3 31 42 42 64 106 123 123 120 124 136 127 132 164 204 178 185
51 54 37 26 -4 -15 -20 8 -8 1 33 37 56 77 116 113 80 91 71 53 61 43 13 8 13 -10 2 40 44 40 69 95 116 133 132 131 122 127 142 193 190 137 117 142
25 49 56 39 -2 4 -31 -5 11 29 57 67 83 102 119 136 128 89 54 41 42 17 17 25 -3 33 87 100 122 144 175 200 182 153 123 127 140 177 184 132 115 134 131 130
51 40 45 17 -1 13 7 33 57 65 74 96 78 110 100 143 151 85 63 102 40 32 42 89 115 165 202 200 234 240 245 229 196 138 93 60 72 72 77 92 117 124 122 117
50 62 30 34 23 26 46 55 66 83 104 68 61 104 126 183 98 78 83 89 82 117 122 105 178 236 253 269 272 243 208 160 88 44 54 82 87 90 93 115 124 117 128 177
58 44 39 12 12 1 16 21 44 65 72 58 71 99 143 209 111 142 143 149 142 180 141 197 220 211 235 254 211 155 120 68 29 101 119 122 111 94 82 87 113 161 228 247
34 7 0 6 11 7 0 24 9 43 62 86 60 75 105 264 236 152 134 149 125 222 197 201 182 208 199 129 122 91 89 117 116 116 99 73 63 48 68 111 150 216 274 289
17 18 11 -8 17 58 50 27 36 41 53 52 87 59 84 227 114 39 28 86 159 141 150 142 145 142 153 142 113 130 137 155 141 97 86 72 67 87 115 145 147 230 281 267
17 40 10 30 63 64 58 68 74 57 82 103 122 132 133 84 -9 -31 50 74 115 143 106 96 79 76 86 108 135 141 135 128 129 94 73 76 66 53 68 108 179 227 268 276
19 52 43 37 39 42 60 88 79 77 91 150 189 242 114 117 18 46 83 109 126 102 79 75 59 59 114 130 186 187 157 111 68 52 58 50 54 48 111 198 276 314 351 296
24 47 60 59 82 75 98 86 120 158 161 149 187 184 121 104 56 133 131 114 84 75 78 76 72 92 98 143 162 168 135 89 51 51 57 41 52 100 180 293 341 359 352 347
77 73 81 79 52 52 82 131 166 181 167 171 239 151 103 85 127 118 95 96 79 69 45 70 107 114 119 133 157 165 123 73 61 68 92 96 124 128 195 249 300 313 317 240
111 100 102 103 81 93 88 91 126 197 200 189 136 158 146 151 154 61 79 96 77 100 77 70 67 100 139 178 298 273 108 52 65 108 148 166 149 140 149 163 189 169 117 101
122 128 135 115 71 80 120 136 145 98 108 106 108 133 125 121 110 83 108 76 49 98 121 125 126 121 226 186 253 111 25 76 102 172 181 180 143 135 144 180 165 107 127 125
153 177 196 128 118 84 63 68 56 70 95 158 166 133 117 146 153 68 51 45 72 130 178 137 87 158 150 137 106 39 102 121 192 236 287 312 289 214 153 132 109 94 87 90
216 262 212 177 135 102 58 137 114 136 83 97 131 126 115 171 100 -6 -36 59 132 173 164 132 96 196 115 83 115 158 207 248 230 211 132 125 117 107 82 75 88 101 105 101
199 224 185 197 189 159 132 43 77 87 92 111 115 143 137 121 30 -17 -67 198 235 204 266 212 148 107 69 97 169 199 183 180 165 104 113 106 103 121 107 92 73 76 78 80
218 200 210 257 189 135 137 111 95 117 157 209 214 180 79 151 149 115 311 313 201 216 178 80 40 62 101 135 162 161 170 166 133 130 107 132 135 116 91 79 71 76 90 99
135 155 190 192 212 154 107 84 127 167 140 162 147 117 179 182 231 337 275 -115 112 106 48 -16 52 86 94 124 150 141 150 197 166 136 137 130 98 79 84 79 86 92 96 86
153 149 197 180 189 71 133 111 94 131 181 138 94 195 253 295 239 119 177 121 63 14 16 65 106 105 98 118 185 233 217 197 138 104 119 90 86 87 87 90 87 90 89 86
193 210 190 260 236 221 244 111 133 131 135 146 172 325 268 137 88 138 119 73 60 65 82 137 127 108 110 150 189 147 108 111 119 116 97 93 84 84 87 98 89 87 90 82
223 126 218 200 199 169 100 88 156 149 159 202 239 107 15 50 136 88 102 65 46 71 116 166 161 139 124 134 115 136 138 145 127 104 103 102 96 87 94 106 107 102 91 95
239 190 185 184 137 130 118 173 112 127 82 119 28 38 27 108 82 70 65 68 58 83 125 186 193 164 137 147 130 118 133 141 127 124 119 117 116 104 108 117 111 113 110 121
246 180 202 200 137 98 105 141 123 160 158 61 35 110 100 99 54 67 88 71 62 79 128 199 192 177 163 169 143 126 138 135 140 134 142 131 113 98 98 110 115 112 118 113

GFSCGP_con_3kmhel_003.txt.gz
Helicity
51 37 8 0 -2 -7 4 13 -6 -8 8 25 30 38 101 113 122 115 69 47 57 72 37 33 53 81 95 66 77 91 80 85 70 74 71 83 90 63 56 54 66 84 108 123
59 30 -4 0 11 0 3 5 11 11 13 13 46 94 100 165 166 127 87 89 84 96 74 58 50 21 10 38 41 66 106 116 101 83 97 113 114 102 99 95 81 94 94 91
44 18 16 -6 14 8 -1 16 11 14 35 34 50 99 146 113 137 85 75 69 72 89 73 50 44 43 57 89 88 86 95 108 122 127 126 122 113 123 104 95 90 78 50 57
42 32 28 21 6 1 15 8 -8 -7 19 47 61 86 154 158 142 115 96 74 94 94 77 88 81 91 78 91 123 130 151 181 180 167 144 131 101 102 102 94 90 58 59 79
21 37 35 32 10 5 -2 4 11 28 45 60 90 87 125 141 141 108 116 121 135 128 116 104 104 113 165 231 231 197 194 203 172 118 109 114 108 52 36 27 21 31 39 60
45 26 35 16 8 20 25 43 43 56 70 88 68 83 100 141 143 146 143 197 182 120 84 117 158 216 283 275 248 216 234 204 159 125 88 39 29 64 86 55 20 23 48 71
44 39 20 19 22 20 43 58 71 91 111 94 78 81 159 172 171 177 174 169 141 98 127 180 239 251 238 252 224 202 177 136 79 25 -10 20 105 124 92 45 38 57 80 112
31 19 15 6 9 12 35 38 61 71 82 71 65 126 128 137 192 178 157 133 110 107 92 151 122 134 160 196 134 89 32 -8 12 140 178 158 129 100 49 40 69 106 110 158
22 5 2 18 13 8 24 51 29 58 60 57 69 85 61 153 211 139 121 120 117 108 148 102 82 88 91 70 49 37 77 115 145 145 142 115 93 55 45 51 82 96 142 245
20 21 28 17 31 58 55 42 47 45 45 22 56 74 84 120 156 104 34 58 90 96 118 126 119 110 124 151 141 135 173 180 146 110 100 92 74 53 45 56 82 129 238 285
23 36 36 43 56 56 56 69 78 50 45 39 55 70 117 89 70 70 27 60 88 97 104 69 42 36 58 138 172 137 153 142 138 148 132 110 73 45 80 110 141 197 246 257
9 37 30 53 58 56 74 86 80 68 58 113 163 174 39 62 81 34 18 98 102 67 50 13 9 65 96 119 128 123 133 169 182 168 131 70 77 118 93 144 220 260 262 276
24 41 44 74 92 92 113 109 118 127 148 107 134 69 99 103 80 68 73 140 125 100 105 44 109 127 149 175 153 167 209 178 167 85 31 64 89 91 115 153 213 247 255 271
61 79 98 101 123 144 126 124 132 141 160 125 157 85 96 71 83 81 133 207 185 106 76 51 121 200 195 150 161 179 155 108 73 75 127 148 165 133 138 156 170 194 180 152
86 120 148 145 127 131 121 93 106 138 148 158 96 77 89 78 76 108 180 151 106 25 52 92 135 189 198 177 193 125 90 80 108 134 148 157 117 162 156 157 149 145 140 115
117 151 173 163 158 140 96 94 81 30 37 85 56 68 33 70 104 150 136 91 53 94 92 35 11 83 126 206 173 133 97 122 133 149 160 140 110 69 92 106 119 114 88 92
157 177 216 214 170 94 84 98 42 77 86 122 123 93 115 96 135 110 76 84 118 79 70 114 45 16 123 141 105 69 88 116 123 133 113 111 97 103 119 145 113 94 88 85
198 223 232 260 178 179 124 112 120 85 43 79 75 117 143 134 121 99 204 220 158 124 126 24 -95 87 70 50 61 105 121 131 119 111 116 131 118 115 133 110 86 74 69 64
136 209 212 223 204 180 81 37 100 131 77 128 177 139 108 68 70 153 251 207 130 83 -43 -73 46 29 37 77 99 114 120 125 128 150 158 136 122 103 103 78 72 63 62 65
154 178 230 247 210 191 128 125 97 120 141 195 182 133 66 107 194 175 224 110 93 95 52 44 38 69 86 111 129 101 103 143 177 232 174 125 91 91 73 73 66 74 76 83
132 155 179 171 195 153 117 88 123 207 223 210 161 112 120 166 233 167 105 34 144 46 24 32 43 81 108 148 126 131 170 180 121 134 82 83 82 73 77 79 82 85 81 86
167 144 163 208 175 93 151 147 145 181 157 102 86 165 194 171 137 59 -17 67 31 61 65 57 72 100 148 178 139 119 101 93 95 110 98 81 80 88 92 93 91 93 92 89
158 144 165 210 217 130 162 142 148 95 75 101 97 127 169 131 58 43 80 99 98 86 68 56 88 112 168 169 128 116 109 131 115 129 104 96 92 96 107 107 100 103 103 112
227 168 200 199 159 113 112 116 118 116 139 34 102 83 23 65 113 106 101 82 79 73 63 68 80 105 160 171 163 134 136 124 140 131 116 117 112 113 107 122 118 113 116 125
201 204 173 202 86 92 143 120 101 120 110 117 64 77 93 114 102 79 79 80 76 64 59 72 93 128 157 181 170 153 151 139 136 114 122 125 139 127 116 109 104 118 131 129
211 183 200 197 143 171 230 221 148 171 144 150 164 129 82 66 79 89 85 80 68 71 88 112 117 146 168 180 158 160 140 131 105 100 113 133 129 125 114 98 95 115 125 129

GFSCGP_con_3kmhel_006.txt.gz
Helicity
44 13 40 37 38 22 5 5 25 36 40 49 45 50 79 82 118 113 83 60 67 123 83 60 61 69 99 102 100 92 185 170 176 156 104 94 91 103 117 121 107 86 91 77
8 34 27 30 27 13 4 6 26 30 30 34 48 66 100 122 167 154 121 109 101 116 118 124 128 140 144 150 177 167 194 201 185 150 124 111 128 162 134 134 105 94 98 97
44 47 22 20 42 29 19 27 35 27 25 23 27 78 102 115 136 140 141 132 160 184 197 193 174 151 130 140 158 188 211 194 191 163 141 136 140 132 150 133 115 96 105 90
55 36 31 27 41 42 17 34 19 11 21 50 41 96 110 118 139 144 155 172 182 176 150 135 117 115 136 172 198 211 209 189 167 162 139 120 145 155 133 89 52 65 71 52
41 43 44 49 41 43 59 37 29 30 29 48 79 51 141 100 156 156 180 192 161 149 141 126 105 152 191 215 230 214 191 172 131 115 90 73 72 34 26 102 141 110 96 57
60 37 49 46 19 25 41 27 34 45 59 70 94 87 140 125 143 164 192 233 187 152 111 93 113 143 177 201 200 176 144 118 123 61 24 -12 -9 7 106 147 130 115 75 74
33 45 21 29 16 6 43 21 42 54 64 114 68 50 212 114 128 152 177 163 125 109 103 96 115 151 167 176 148 96 106 57 20 -32 -65 -25 108 150 152 152 147 110 84 69
23 40 21 10 15 16 39 52 68 70 72 71 45 76 129 95 140 172 149 99 72 83 76 95 133 137 130 124 125 99 81 54 77 117 160 159 185 170 159 144 101 63 47 52
6 29 25 28 26 2 28 52 38 53 49 30 60 67 72 107 142 171 115 53 55 54 75 111 100 93 62 58 52 91 129 132 142 145 179 167 163 149 117 89 48 30 59 128
14 31 31 40 25 56 47 40 29 49 59 32 45 29 25 110 76 108 93 70 40 54 93 116 114 89 47 78 116 142 155 176 167 169 179 176 156 137 111 63 57 98 107 121
4 6 37 25 30 43 54 60 77 76 66 42 14 20 177 74 64 65 79 82 67 93 132 127 105 81 43 78 114 155 174 161 170 182 180 145 117 85 80 103 124 126 127 141
6 28 42 61 81 74 93 114 110 89 79 95 119 69 108 40 77 73 60 123 112 135 117 147 130 95 83 101 153 217 171 204 223 160 124 94 66 92 108 119 124 123 128 120
33 56 74 96 114 123 131 137 146 127 124 79 90 68 127 45 39 77 94 105 119 144 139 159 158 127 145 170 209 130 173 176 135 94 90 118 98 95 109 119 104 89 109 124
35 88 117 132 136 171 166 114 98 89 152 102 86 33 16 76 74 67 115 100 119 105 128 189 148 149 166 144 138 159 125 118 93 97 116 119 117 131 123 111 79 65 85 102
67 107 133 113 72 93 116 66 60 93 75 96 40 52 71 73 69 80 96 79 88 107 149 145 134 173 120 75 10 95 110 96 89 118 119 130 130 121 101 93 98 108 121 101
90 133 144 145 93 94 80 62 57 39 36 78 69 56 115 80 90 106 75 87 123 139 164 147 114 62 44 29 92 112 106 88 82 112 115 123 136 140 142 111 88 106 94 87
108 151 175 175 94 65 73 26 104 86 103 76 85 138 100 121 134 115 82 120 190 204 147 119 113 92 92 78 106 100 90 87 84 110 119 147 173 164 148 107 99 89 77 68
157 176 196 186 114 119 148 88 69 29 23 69 83 135 135 126 134 112 231 209 241 166 132 143 132 97 65 73 83 91 83 105 110 109 127 178 191 157 124 98 79 63 65 66
100 157 191 183 177 96 17 105 98 107 40 140 147 157 146 152 147 158 159 125 130 67 63 101 74 73 65 75 117 116 120 120 95 94 144 189 158 127 98 68 65 64 67 68
147 137 164 201 188 174 125 120 38 95 110 179 177 112 111 131 156 165 118 108 73 91 113 107 70 64 70 119 146 151 148 130 107 120 88 121 123 103 66 59 61 67 70 78
170 165 149 108 163 122 114 134 120 129 205 167 156 162 162 140 107 113 118 45 74 87 77 80 64 82 94 107 137 146 152 116 104 108 105 92 112 83 58 64 69 75 80 89
156 176 134 127 156 101 143 140 157 170 140 150 119 119 110 75 74 95 71 92 88 84 81 90 100 98 93 113 135 127 141 140 133 110 97 102 99 76 72 70 76 79 84 116
165 175 175 218 195 117 87 113 128 156 171 142 182 94 65 11 34 73 90 89 85 77 83 96 106 95 104 101 126 120 132 151 141 120 114 96 89 81 75 80 79 84 97 142
231 178 232 197 108 63 85 128 154 177 162 149 80 37 -12 22 78 105 98 91 87 86 99 121 114 121 109 91 129 174 198 192 135 115 100 82 81 96 74 90 90 95 130 144
197 174 144 117 71 91 128 184 173 142 116 45 21 25 59 108 96 91 93 86 105 119 141 133 129 126 117 111 152 185 154 117 117 111 80 78 88 87 83 83 97 96 123 157
132 93 196 206 153 147 182 168 87 23 -4 73 82 89 106 85 86 93 106 122 126 138 125 122 106 103 94 112 120 128 160 123 108 86 67 89 90 94 89 77 70 172 162 155

GFSCGP_con_3kmhel_009.txt.gz
Helicity
15 48 59 84 52 80 77 29 29 74 62 42 50 40 95 59 60 71 56 57 56 32 75 149 128 124 108 96 76 57 213 258 112 129 158 164 120 124 141 146 194 163 199 117
14 45 37 31 34 34 23 19 40 40 40 47 40 56 81 86 108 110 108 104 118 151 182 181 158 143 190 217 297 279 254 195 181 202 263 162 131 156 124 137 176 97 133 75
76 65 29 29 41 57 36 66 61 62 27 7 13 65 84 94 102 119 181 189 159 173 173 165 161 163 137 130 150 203 229 237 263 257 217 214 155 152 178 209 143 128 89 101
51 47 37 34 44 70 34 61 32 18 12 5 23 48 144 138 139 140 159 170 159 143 140 138 128 118 120 151 193 225 247 240 223 265 227 153 136 169 175 112 102 136 76 131
44 41 41 52 63 58 100 40 24 22 21 41 37 20 183 93 136 140 188 162 151 169 161 146 122 113 127 139 177 193 187 200 170 151 86 42 111 105 91 112 199 156 138 164
72 40 69 71 39 29 24 15 15 16 40 63 106 51 75 95 191 146 137 141 160 172 130 106 88 79 121 165 162 137 134 123 75 15 36 95 159 142 150 147 161 200 184 151
34 46 35 30 3 5 15 5 37 47 53 60 95 40 157 171 148 184 124 131 136 135 104 74 65 116 165 141 109 88 74 75 84 156 135 117 106 118 119 159 198 175 141 140
12 41 11 3 18 5 16 21 55 59 76 71 68 41 149 135 113 125 125 115 100 108 87 84 86 108 124 120 99 98 68 69 83 117 134 124 134 154 191 225 159 101 93 93
-2 29 28 20 20 -0 27 36 27 38 52 47 50 94 91 109 82 113 97 65 93 93 98 95 80 70 97 108 100 93 46 58 110 174 176 182 170 178 174 138 78 107 85 79
6 16 16 24 5 20 16 37 17 46 55 55 74 38 118 93 62 114 29 70 57 38 42 85 67 85 88 108 123 97 99 115 169 218 233 236 167 151 130 110 108 109 106 134
5 2 39 23 20 19 50 44 45 54 89 86 86 67 131 150 160 141 89 51 52 37 67 50 79 110 114 129 126 162 196 252 202 185 194 140 155 140 136 104 135 201 152 109
-10 12 28 63 88 53 60 95 93 82 100 104 92 64 146 116 95 22 31 74 87 70 41 60 76 137 154 166 208 221 259 119 129 124 141 137 132 107 115 192 202 133 129 132
5 33 32 110 138 131 93 142 121 138 127 73 112 73 57 84 27 54 91 114 81 154 147 128 153 148 148 219 294 197 138 141 140 143 122 116 129 134 180 174 131 106 119 107
30 54 64 74 96 143 152 118 100 94 131 76 55 37 12 48 88 159 103 112 181 112 91 161 241 183 217 245 152 142 133 109 115 102 101 128 152 130 105 118 104 137 141 120
35 60 72 60 62 111 123 81 67 79 86 112 41 29 24 78 159 103 85 115 104 69 164 241 174 135 127 104 171 111 130 109 87 117 112 138 126 97 161 162 165 142 126 115
50 89 85 81 87 110 89 49 32 52 61 52 44 27 80 126 101 104 177 131 161 176 152 129 125 126 77 145 109 99 93 88 116 122 141 138 153 195 143 165 140 132 116 93
69 84 92 92 84 83 130 101 108 88 63 75 71 47 99 73 187 168 165 190 212 137 109 112 130 116 118 125 95 89 100 96 101 122 143 129 253 149 174 155 132 117 103 87
96 94 124 114 90 93 211 79 28 49 33 43 45 110 206 188 148 142 221 188 138 134 101 123 136 134 107 84 77 89 81 83 96 136 149 190 205 151 135 131 97 105 83 83
86 111 118 112 119 93 57 180 131 81 28 72 176 177 140 110 102 139 165 157 122 72 105 152 121 102 94 85 64 92 109 102 109 100 144 190 171 104 153 115 110 79 77 75
124 133 102 164 168 181 193 163 118 52 80 260 166 179 98 92 142 151 159 107 102 91 102 101 103 66 76 82 87 110 85 100 146 76 236 185 141 150 153 117 83 74 62 83
125 123 118 119 188 141 109 134 81 145 173 167 157 95 102 143 157 129 59 25 71 95 71 80 71 120 115 126 102 99 67 89 139 126 174 157 153 171 151 92 63 64 71 118
77 78 113 158 200 136 155 172 217 145 122 163 110 118 138 129 84 25 65 75 69 90 108 96 131 145 142 116 110 111 59 78 131 64 198 206 125 165 110 69 56 85 87 124
66 91 132 205 186 110 114 120 81 182 160 141 169 142 113 98 73 66 60 94 103 107 114 127 153 148 121 102 84 71 127 114 236 195 194 146 139 87 66 87 79 93 93 130
94 70 231 174 131 71 95 82 257 216 141 134 121 -33 60 47 73 80 120 114 109 116 120 146 142 130 96 79 82 82 195 125 89 73 113 132 96 92 72 81 91 103 119 112
119 113 128 148 75 85 91 263 225 131 102 79 4 57 57 72 103 118 114 106 130 121 131 124 90 81 94 90 112 137 153 158 108 81 78 72 52 62 78 71 120 100 138 159
132 92 122 153 153 174 208 233 105 96 105 101 120 109 114 111 114 107 121 130 111 127 97 102 91 107 120 120 138 108 137 103 69 55 64 52 61 67 78 78 84 139 125 143

GFSCGP_con_3kmhel_012.txt.gz
Helicity
22 55 33 130 71 70 114 111 62 72 101 35 -5 21 102 123 4 33 12 23 58 150 223 308 236 192 145 119 204 308 295 221 233 220 207 267 269 301 290 225 209 183 217 193
29 19 46 56 40 45 76 80 33 74 54 29 4 -21 148 126 95 80 91 128 146 186 175 204 285 401 402 293 228 172 253 330 357 326 283 208 279 227 157 177 243 270 224 129
54 75 29 61 38 68 31 78 101 84 39 -5 17 8 182 156 90 188 222 148 202 221 211 175 205 230 216 220 203 190 194 213 263 371 340 357 237 241 205 158 132 184 189 120
44 44 36 23 41 64 81 84 43 21 19 -4 83 16 112 130 158 165 199 234 216 189 175 162 153 127 121 133 168 186 194 197 186 235 175 138 117 99 135 205 212 162 129 223
21 33 46 47 69 49 103 36 29 20 16 25 3 24 177 136 135 144 202 183 204 220 208 198 145 123 106 90 123 160 129 135 121 118 106 94 127 130 127 118 128 179 284 194
61 37 67 60 25 31 29 17 20 0 10 59 -24 36 132 71 163 136 172 184 172 121 113 127 72 47 53 48 67 85 62 78 77 52 130 105 66 71 134 148 207 199 152 150
28 40 26 19 -3 7 20 37 46 47 45 42 84 47 153 141 196 177 124 178 174 141 166 144 159 167 119 99 66 54 126 114 105 128 188 205 227 280 277 213 195 154 108 105
30 24 4 1 14 -10 5 4 34 57 82 67 22 54 202 199 165 184 183 126 53 64 54 63 68 62 68 122 130 113 143 95 118 146 223 299 316 256 186 195 157 114 107 90
22 22 22 16 -1 -2 4 43 12 45 54 56 14 130 187 148 79 88 79 30 54 38 48 65 50 61 140 152 144 163 161 154 193 256 243 264 298 267 196 162 110 74 122 133
-10 17 -8 8 10 7 16 16 22 63 66 76 49 54 119 61 49 54 34 138 107 119 91 96 108 165 161 181 169 199 267 302 337 310 263 238 213 222 158 85 78 217 182 115
54 -2 9 18 7 42 64 86 70 49 87 108 106 93 83 104 149 215 137 81 139 156 149 171 172 170 206 214 201 199 309 335 286 301 235 177 166 118 118 158 228 225 133 123
2 -1 3 44 54 50 88 102 74 118 110 163 164 89 94 108 133 174 96 84 93 222 241 216 160 162 144 214 237 318 311 234 239 252 213 157 141 190 212 211 203 145 94 83
4 8 -2 105 81 84 107 151 131 209 149 96 139 93 28 152 110 75 78 130 252 206 153 167 154 164 189 185 206 180 156 211 206 195 147 192 185 246 220 134 124 105 110 127
26 29 35 49 56 79 106 104 88 120 265 160 93 21 -20 36 73 81 133 196 204 183 190 221 188 172 166 165 145 119 151 159 164 183 178 204 314 302 187 212 181 191 180 175
43 55 47 34 39 71 81 91 92 85 86 122 77 40 33 100 122 258 253 217 167 172 241 206 141 157 160 136 116 127 119 131 162 244 80 162 248 229 387 252 209 211 182 161
57 68 58 40 76 81 69 46 54 65 41 68 67 9 58 140 248 224 159 151 192 230 166 104 134 143 161 120 92 104 100 111 126 246 99 195 206 165 369 187 168 197 190 198
83 85 83 73 65 39 78 106 149 129 101 91 94 49 105 227 246 199 147 211 228 145 111 108 110 87 148 148 122 106 85 98 134 69 196 301 349 246 227 141 195 200 253 182
105 114 104 99 79 98 137 85 64 111 103 41 44 100 178 256 183 127 233 236 171 108 94 54 80 139 116 119 80 116 146 160 93 83 144 164 119 177 71 209 195 267 243 160
96 106 125 116 120 72 14 166 168 149 48 64 178 263 232 150 85 141 233 188 132 75 13 86 87 116 107 105 115 176 184 119 102 61 94 134 116 282 60 178 241 276 170 128
128 129 115 157 135 92 119 243 144 89 119 238 186 147 115 72 131 170 173 125 68 57 92 86 114 90 120 160 204 195 169 144 89 150 65 128 185 145 227 251 223 128 130 151
176 157 138 124 120 54 52 158 109 172 242 164 151 146 124 152 201 169 81 87 86 75 107 87 104 175 227 198 180 165 141 129 156 136 104 90 103 49 81 153 168 105 165 155
158 146 135 125 110 70 170 195 217 227 161 218 218 150 165 148 124 106 126 82 92 131 128 147 195 203 220 146 115 143 179 204 199 116 80 88 91 43 107 143 123 135 152 182
169 145 162 160 130 80 154 221 196 211 209 269 86 98 116 81 91 138 100 106 145 150 175 182 183 191 104 101 116 199 238 224 191 141 116 99 73 77 120 109 98 124 181 169
196 109 211 219 172 110 120 173 290 307 256 198 181 128 30 96 154 85 116 149 175 195 161 187 159 117 145 132 169 213 218 197 166 137 97 83 78 80 69 87 114 152 147 123
179 168 152 150 122 134 295 359 357 258 239 89 60 126 134 101 105 151 163 156 168 157 177 149 125 160 164 139 175 192 168 148 129 100 81 83 65 63 69 79 116 129 125 123
179 147 177 166 136 261 327 321 269 232 213 100 183 112 103 131 142 143 171 166 156 179 151 141 140 152 153 171 164 136 175 135 123 92 87 66 58 56 61 82 104 128 110 98

GFSCGP_con_3kmhel_015.txt.gz
Helicity
54 24 39 39 54 50 66 67 58 82 83 49 18 21 125 175 97 155 173 168 375 461 429 508 494 388 265 183 204 281 306 318 293 342 301 301 322 318 360 437 292 218 201 160
21 44 30 12 8 34 48 70 71 27 35 41 99 43 92 204 238 205 146 186 235 284 304 382 423 447 315 287 291 234 249 304 372 333 335 322 289 271 218 162 180 218 226 265
26 27 25 76 52 115 122 74 104 83 48 5 26 105 227 236 309 458 263 146 123 130 204 245 248 240 282 229 159 133 133 150 223 253 246 245 236 214 211 177 158 168 246 245
19 30 47 60 48 92 76 70 61 48 43 40 40 122 223 262 337 423 401 356 251 159 124 105 104 187 221 184 120 74 38 72 119 129 140 146 141 149 124 117 191 241 218 213
33 57 92 71 29 43 32 28 18 35 32 58 52 65 186 302 306 267 255 222 170 192 144 83 45 66 55 64 62 55 67 82 91 66 58 53 71 111 198 236 214 188 181 149
32 25 36 41 37 43 36 75 77 53 73 67 46 46 245 341 265 326 225 176 214 157 115 92 95 58 4 -8 -21 -7 44 78 67 114 185 240 289 292 265 242 211 165 100 92
19 19 -10 23 9 18 25 58 58 79 83 70 39 108 50 170 182 205 300 290 198 135 108 88 85 59 43 36 25 61 117 133 177 200 304 322 330 364 362 298 212 149 97 97
34 33 27 25 37 5 30 14 36 47 62 28 36 112 182 298 334 259 169 61 75 32 48 88 72 82 96 127 178 241 199 262 290 293 304 328 340 343 313 242 169 137 168 124
21 5 9 16 41 12 -4 27 15 47 18 50 69 102 134 82 134 82 62 51 14 34 79 146 250 235 236 269 225 238 249 256 276 295 326 312 269 238 238 158 239 213 140 95
73 -0 42 26 2 -6 33 25 42 41 55 39 93 91 57 82 153 159 172 109 117 209 330 299 276 272 271 219 132 155 193 221 205 234 238 212 169 102 181 276 230 180 126 73
78 5 -0 -14 -11 18 39 83 69 67 116 101 53 105 30 97 123 145 174 197 207 264 220 140 154 168 156 86 103 133 147 142 173 197 151 123 129 221 253 201 219 196 121 152
32 -8 1 1 -1 26 55 78 118 127 87 139 154 37 62 215 231 231 203 193 207 206 160 171 179 147 99 67 99 123 139 165 147 106 133 148 164 310 238 238 258 243 144 73
4 4 15 6 9 6 44 126 177 247 212 135 179 77 55 71 54 91 127 193 201 193 234 250 195 161 146 96 103 148 168 129 109 137 154 207 270 324 209 158 316 300 156 159
51 37 51 56 54 64 69 56 74 229 265 226 219 123 43 64 55 217 283 336 330 298 218 165 134 120 84 94 118 119 104 123 127 204 158 159 179 204 241 265 347 385 124 188
66 61 57 37 31 43 54 51 49 99 120 215 100 151 210 125 230 262 251 264 267 184 123 119 116 91 98 124 125 114 119 129 130 157 166 199 163 228 298 304 482 233 45 159
67 57 68 66 90 72 59 38 31 62 105 98 159 155 124 202 240 270 249 244 183 126 56 116 95 99 90 108 123 147 232 231 165 141 112 140 228 192 209 193 155 25 141 191
80 88 89 69 76 84 114 91 82 96 113 154 179 166 212 317 284 188 176 154 80 81 106 87 98 98 124 130 221 315 235 184 162 146 131 125 68 33 17 68 75 58 225 213
109 122 117 91 111 127 99 102 157 181 203 172 297 390 406 303 131 114 108 109 117 108 123 115 125 142 155 208 255 212 170 146 127 148 130 74 17 1 49 125 45 203 267 179
127 145 144 134 121 96 137 136 133 147 123 181 311 321 279 172 84 125 117 81 112 141 108 124 137 142 183 210 181 147 132 122 172 198 164 114 79 76 115 108 139 194 159 164
194 166 156 165 154 110 132 198 125 138 178 208 215 209 166 137 177 115 140 160 119 95 137 150 158 178 210 183 141 139 146 186 231 205 158 109 61 95 82 84 41 100 157 197
207 186 166 174 159 91 85 157 125 202 140 260 249 211 161 142 118 80 114 161 133 146 171 197 204 200 178 118 130 168 205 226 205 168 120 90 89 92 85 98 102 121 179 176
145 165 147 179 165 103 70 202 221 166 255 263 293 224 152 154 88 121 155 138 148 184 204 205 218 181 141 142 172 205 227 212 186 136 131 101 103 98 102 97 100 136 142 125
201 158 140 187 143 102 111 149 229 284 240 300 266 181 213 179 156 186 182 151 171 187 179 188 189 151 147 170 180 207 185 161 112 98 109 104 99 95 97 91 87 89 100 91
164 196 240 261 163 133 152 288 321 376 373 311 230 197 215 183 185 220 162 170 178 180 193 183 159 157 170 152 170 162 148 142 115 108 95 92 89 75 57 50 62 80 75 66
140 220 214 221 218 217 302 335 392 400 353 256 184 182 266 250 227 178 191 184 164 159 137 140 142 147 138 154 144 120 156 172 160 101 89 87 82 64 56 73 76 59 43 50
184 185 213 190 157 209 290 343 324 314 259 207 186 304 261 224 207 198 163 159 154 135 124 130 122 112 144 153 122 131 168 176 150 101 85 79 84 62 77 81 81 70 58 67

GFSCGP_con_3kmhel_018.txt.gz
Helicity
80 54 48 53 12 11 12 8 90 134 50 14 43 152 135 147 200 264 348 437 412 482 487 494 470 405 391 369 378 281 91 -30 105 182 248 331 299 308 360 348 323 240 170 195
62 81 42 48 30 30 25 78 110 105 80 45 143 265 238 255 289 306 361 424 340 453 452 453 380 371 250 245 140 119 131 186 246 235 267 253 237 260 232 227 247 301 262 178
36 41 47 45 80 85 149 99 82 46 39 54 172 214 243 334 370 348 336 349 290 245 269 227 174 75 115 123 110 107 102 112 131 139 143 144 121 117 143 184 161 147 133 148
49 65 49 65 56 66 60 75 86 79 81 75 74 181 225 299 363 314 314 278 261 184 109 57 51 52 52 16 -6 -4 -1 19 42 72 96 93 86 100 116 121 115 135 131 124
44 55 80 57 32 36 26 47 43 55 63 65 116 178 247 247 259 243 201 146 67 -29 -60 -57 -18 -4 31 26 -1 5 16 7 19 39 50 57 61 104 189 222 259 249 228 242
50 22 41 41 64 84 77 77 102 101 110 118 150 150 212 271 281 281 161 175 20 -40 -5 9 1 37 34 4 2 30 45 58 36 97 122 142 185 239 275 269 251 293 206 257
69 65 61 47 42 61 56 51 67 84 98 122 79 116 135 157 241 217 211 101 68 53 36 45 91 44 36 65 80 80 141 156 189 237 263 266 277 270 260 240 256 144 176 199
50 48 45 55 24 9 18 23 32 43 40 40 96 108 102 172 201 137 115 95 55 83 143 123 176 190 206 225 222 195 170 157 167 183 205 219 196 156 115 90 112 133 102 115
26 40 39 26 58 1 8 22 18 38 27 62 78 139 86 127 163 279 238 106 200 272 272 322 294 279 258 230 206 172 143 124 146 148 141 121 91 65 88 156 188 155 169 128
30 34 48 51 52 52 10 1 3 2 40 102 111 123 132 137 167 152 200 230 243 249 291 296 264 212 159 119 83 108 57 85 111 128 135 134 96 91 128 203 166 185 205 165
61 36 54 35 19 -11 -13 -3 16 38 45 80 164 159 109 126 163 255 268 286 240 262 256 267 247 190 142 115 63 100 140 123 122 129 119 91 94 119 189 193 198 218 226 240
77 41 1 -6 -21 -8 18 29 40 50 54 85 99 151 52 147 216 209 150 187 208 268 287 261 146 97 81 120 166 166 128 135 121 99 97 122 131 180 198 214 222 236 187 178
88 22 23 -6 2 7 33 48 87 122 102 94 157 123 41 141 179 147 287 372 399 300 273 198 144 104 117 151 160 118 133 166 90 100 159 173 184 188 172 165 175 227 380 307
79 51 17 24 25 42 51 60 89 130 148 148 204 138 132 220 279 292 302 309 304 270 218 174 149 102 65 99 112 150 181 162 165 189 169 136 112 86 122 167 235 240 269 124
68 49 64 79 76 72 61 64 67 113 114 160 104 175 158 302 342 323 323 311 292 282 242 181 76 69 96 120 172 198 184 182 189 178 147 123 57 100 76 58 148 136 105 106
102 71 92 73 92 85 52 62 76 71 100 131 188 270 359 392 353 339 278 275 257 204 132 85 36 100 152 179 188 177 175 164 166 165 138 60 62 77 43 43 92 88 118 185
96 103 110 72 109 94 96 91 82 106 151 131 145 223 359 354 292 221 223 203 138 93 26 16 108 149 174 171 166 178 140 124 158 161 67 83 109 65 30 72 108 138 103 71
100 134 127 99 134 124 117 87 82 157 167 194 258 290 273 238 215 188 135 106 51 -19 27 125 190 170 156 159 163 140 110 125 166 109 122 131 92 40 31 81 115 134 74 147
121 135 146 127 122 114 145 169 138 147 114 149 214 263 275 225 211 147 85 62 30 38 138 182 142 144 159 148 114 110 135 173 168 163 131 96 70 50 54 115 91 79 91 139
190 186 163 156 145 105 110 150 162 186 142 133 181 196 207 246 252 145 89 116 156 181 194 172 151 145 155 126 125 149 178 189 169 128 106 95 68 78 95 100 114 120 114 135
166 173 153 202 167 129 83 207 167 222 90 136 177 175 215 219 160 121 177 213 192 207 185 158 164 156 129 118 153 210 200 189 145 114 102 90 87 101 122 110 129 122 137 133
124 148 156 213 209 131 118 215 235 139 172 189 212 212 245 222 156 187 224 274 266 209 189 190 174 144 136 175 194 188 182 138 119 94 88 111 103 119 118 129 109 100 98 100
161 166 127 154 112 141 99 148 176 210 225 255 289 260 244 224 254 266 311 301 240 200 183 153 153 161 169 169 166 162 135 120 109 102 116 113 112 119 109 95 90 89 81 70
122 201 182 204 136 126 140 212 256 289 275 319 324 312 273 240 193 266 271 240 190 173 156 138 151 149 145 142 143 128 113 112 160 142 123 100 103 95 95 98 94 76 51 45
95 179 159 208 206 246 272 246 299 376 363 321 291 248 138 250 303 260 216 186 171 155 138 128 132 133 127 122 117 108 92 119 177 153 119 92 96 85 94 111 86 51 29 47
161 164 211 202 139 168 175 218 278 290 226 237 241 304 319 299 242 192 184 160 145 136 126 137 131 130 132 121 99 121 154 163 155 124 119 96 90 75 87 89 73 43 39 51

GFSCGP_con_3kmhel_021.txt.gz
Helicity
110 64 68 76 54 41 44 73 33 27 47 75 70 92 162 233 262 272 314 355 385 402 335 356 352 350 376 430 381 227 141 150 121 171 239 308 288 215 228 259 227 232 162 158
106 61 64 36 44 40 46 27 43 109 147 125 181 230 211 226 220 281 401 448 472 458 437 437 360 311 276 173 162 156 116 87 113 144 156 135 90 126 154 132 168 158 167 141
46 98 63 48 61 46 73 68 87 82 103 140 190 213 244 211 257 299 316 307 277 240 266 252 161 79 35 40 37 45 18 45 73 86 90 98 107 118 127 147 188 211 195 168
70 101 67 70 37 25 87 102 110 118 128 94 127 153 207 199 263 249 227 196 156 115 39 -19 -19 -17 -9 -16 -8 -5 12 41 8 21 34 48 52 81 130 174 174 191 204 180
62 58 65 60 42 54 58 89 92 98 109 167 192 211 204 238 232 196 193 144 33 -42 -26 -48 -47 -40 -36 -9 27 43 32 37 31 34 39 70 121 173 208 191 177 193 148 152
77 44 59 52 63 66 81 93 121 108 107 126 175 201 161 212 200 208 129 68 -10 -36 -16 -55 -56 -19 29 55 77 91 103 91 108 147 170 185 201 183 177 156 168 194 214 158
106 90 90 86 66 71 76 91 94 80 65 81 178 175 135 32 182 113 55 -28 -2 30 10 46 89 103 166 161 130 133 140 147 155 185 158 148 155 177 202 194 191 189 205 172
64 85 81 85 42 20 51 31 37 22 30 56 102 105 96 117 188 42 37 188 169 140 111 130 200 186 244 220 166 149 156 139 139 144 153 145 155 160 152 143 159 137 158 150
52 58 73 68 53 16 23 51 33 59 50 64 89 131 153 165 242 204 263 315 284 218 271 278 268 293 258 200 152 128 120 109 102 95 91 76 81 101 116 78 120 123 151 153
28 60 57 69 45 55 27 7 8 26 42 60 89 131 167 183 209 222 232 259 321 299 382 354 356 271 186 186 133 111 113 112 128 115 93 114 113 96 98 133 142 175 179 209
55 44 60 55 50 23 25 6 11 16 30 52 70 82 132 195 197 237 260 287 305 344 314 310 299 212 169 142 120 99 109 189 140 89 124 121 143 160 144 134 143 172 186 195
62 43 88 53 66 44 20 19 27 43 31 57 90 77 100 128 223 288 296 288 280 322 335 348 313 256 177 110 96 98 213 181 158 137 148 155 133 106 89 103 136 150 212 233
74 72 97 90 80 64 45 48 61 67 56 54 95 57 143 240 266 249 353 376 418 395 346 283 194 131 103 64 80 181 163 152 145 149 139 127 109 83 69 88 134 170 194 210
83 66 36 11 23 54 59 78 87 101 91 102 126 129 179 219 283 375 378 374 329 304 280 237 188 139 87 72 167 155 141 141 123 134 130 120 101 88 106 131 113 132 175 175
82 50 81 88 90 78 71 77 90 95 115 134 81 126 121 229 313 371 377 341 307 297 278 241 234 96 121 170 137 128 127 119 121 135 123 96 80 95 97 93 91 110 133 134
116 62 104 88 107 100 70 71 63 72 100 93 99 122 115 228 320 336 288 283 272 238 209 187 143 180 128 125 140 120 107 106 120 114 117 95 125 118 113 85 74 81 119 141
93 94 110 78 109 107 70 93 143 135 125 155 180 132 232 245 282 275 253 238 208 183 165 159 160 110 114 121 102 102 95 109 108 145 154 161 129 116 94 73 83 93 111 119
97 137 150 106 145 144 98 137 110 139 131 148 160 166 217 236 220 232 219 211 185 156 135 108 116 119 106 110 113 110 118 108 139 183 167 122 121 126 100 92 84 86 104 116
110 133 162 164 153 151 134 150 197 193 115 147 155 194 201 267 289 228 184 174 144 105 97 122 130 132 115 116 123 123 113 138 148 152 128 128 143 129 105 98 85 101 102 117
175 186 177 175 176 130 102 143 178 220 155 127 182 193 255 314 276 166 181 169 130 180 198 189 161 143 150 138 126 132 129 135 148 137 135 140 140 129 94 88 90 107 123 147
134 162 145 187 168 151 95 186 247 261 96 132 94 160 283 267 209 189 235 177 216 238 237 220 185 161 136 121 137 140 141 150 137 141 134 121 128 119 103 99 114 136 155 142
110 125 140 213 218 166 173 323 204 108 163 109 135 180 215 236 258 270 243 275 247 265 237 212 189 163 139 135 151 167 159 133 131 143 132 131 135 130 136 138 131 140 138 126
171 152 128 138 118 118 67 108 108 164 185 178 210 239 249 292 294 304 268 268 256 255 212 183 165 143 147 152 158 167 144 132 124 156 164 155 138 131 144 136 135 141 124 94
126 156 171 194 117 109 104 74 160 170 199 241 287 335 337 319 350 251 166 232 239 204 182 153 140 148 144 149 152 162 138 119 116 152 161 155 143 118 127 131 141 134 99 75
109 140 122 158 119 145 136 145 177 235 265 317 354 343 304 337 225 248 233 217 190 162 142 136 143 145 142 159 163 145 121 115 122 130 157 155 152 121 116 104 112 101 79 81
179 196 218 180 127 151 130 137 184 275 326 342 332 362 356 358 259 230 216 163 147 140 145 154 148 146 152 163 142 132 113 129 134 141 144 160 163 127 117 104 93 69 61 55

GFSCGP_con_3kmhel_024.txt.gz
Helicity
75 67 61 56 38 29 40 42 44 24 50 85 27 43 57 129 183 146 174 196 225 227 202 222 247 282 363 403 486 436 354 165 104 123 120 125 115 135 102 100 147 161 188 201
123 86 64 58 71 72 68 54 36 97 137 88 88 99 100 157 152 120 152 202 219 238 252 214 211 221 204 192 130 77 59 64 48 41 24 46 45 50 102 151 200 204 189 166
75 88 65 63 92 95 94 74 55 67 126 154 110 110 131 146 173 193 208 175 129 114 120 97 97 24 -11 -18 23 19 -4 25 18 49 73 86 94 114 139 183 189 176 170 149
84 72 52 70 44 28 35 53 65 82 75 81 124 80 113 143 197 192 164 138 99 111 70 46 30 20 38 49 67 60 25 27 48 63 72 90 93 127 182 219 208 175 157 178
65 60 57 38 34 42 56 73 86 93 106 107 145 133 141 213 194 148 103 79 84 73 33 30 64 65 28 6 26 62 58 50 55 78 108 159 193 204 186 189 174 187 194 182
110 74 64 48 72 65 53 88 121 95 86 102 143 171 121 190 174 168 99 75 80 96 69 47 145 78 71 38 100 79 98 95 100 136 171 191 206 191 192 176 179 177 174 158
113 78 73 78 75 73 85 104 89 84 106 72 140 161 52 43 124 135 79 66 128 101 37 102 82 63 55 112 119 154 145 137 135 161 174 170 166 161 159 159 169 177 180 175
39 56 75 91 67 50 86 83 78 -11 3 32 94 67 107 21 80 109 72 120 104 89 73 115 116 155 181 187 218 192 183 134 121 138 133 136 126 131 123 123 143 139 142 124
58 66 76 80 66 50 41 56 53 52 46 9 64 79 78 124 194 243 217 169 131 109 102 201 214 219 230 267 224 202 151 107 81 39 72 99 96 94 103 107 116 143 156 178
40 61 80 84 62 85 40 35 37 54 18 29 20 59 93 113 174 249 247 193 172 198 249 238 247 271 300 277 206 175 121 66 38 33 127 119 127 122 116 129 142 154 168 192
60 53 63 65 70 48 54 27 47 28 35 45 34 23 57 165 191 252 213 204 231 273 254 278 347 355 324 275 221 141 144 132 89 161 151 166 152 152 150 147 140 138 156 159
86 45 74 54 55 39 31 31 41 51 38 65 70 38 41 59 169 255 241 260 245 250 331 366 334 310 266 186 200 188 126 85 169 156 152 153 151 147 142 129 117 124 136 157
48 61 92 93 72 65 41 67 80 93 82 67 91 28 59 114 202 217 292 326 360 399 381 338 283 241 208 229 173 104 79 161 137 137 131 130 127 120 120 115 116 114 129 149
82 67 46 12 31 62 71 76 96 105 92 87 102 85 91 119 188 260 325 367 383 357 328 274 227 214 192 144 82 94 150 131 116 103 107 106 110 114 115 105 106 109 117 139
80 58 72 76 83 76 63 64 91 101 123 129 84 104 75 132 166 218 315 368 392 343 278 241 222 195 187 122 123 168 160 107 99 100 107 102 106 117 116 115 108 110 130 127
104 60 78 71 106 113 65 52 88 110 144 120 117 60 126 137 245 285 343 399 331 262 230 214 213 196 89 110 156 154 115 100 106 93 91 117 149 147 138 128 124 122 121 123
98 90 92 59 112 116 47 85 161 169 189 188 167 121 144 136 165 249 318 300 243 230 217 202 175 108 126 157 157 126 97 101 93 96 126 162 164 139 124 126 124 123 102 103
88 125 136 93 140 135 110 121 116 155 136 168 187 148 142 146 198 219 237 235 212 202 182 158 126 141 160 141 132 105 109 101 106 126 137 155 145 133 122 124 125 116 115 120
108 118 148 149 138 145 129 123 142 193 117 192 195 174 193 197 254 183 180 190 181 182 156 142 161 161 170 146 115 116 114 127 135 131 138 132 135 132 132 127 112 101 114 123
140 157 154 166 176 148 82 111 138 201 190 173 200 174 175 222 236 145 230 209 195 212 211 176 196 207 180 138 121 126 126 131 119 128 131 133 142 141 134 124 109 112 128 148
127 142 146 204 188 162 91 152 217 239 94 79 93 111 175 182 186 167 173 251 252 265 260 228 223 213 160 137 131 122 127 121 131 147 144 146 160 151 133 125 121 131 157 167
107 116 116 175 210 156 134 234 166 83 85 67 47 107 141 179 239 255 268 301 325 309 224 240 224 181 150 136 133 121 134 151 163 159 144 153 174 165 141 139 142 159 159 157
157 137 143 148 139 113 -2 62 80 135 139 117 132 156 163 308 304 306 325 376 262 173 244 210 163 142 135 135 143 149 159 166 165 156 139 144 179 165 139 146 146 154 147 145
122 149 179 180 100 94 86 59 85 129 139 159 173 234 290 342 376 401 401 287 140 227 179 134 131 115 118 143 147 153 148 155 161 159 135 129 162 155 143 146 143 138 141 128
117 138 144 147 88 105 88 118 97 157 194 198 210 259 319 402 430 381 371 275 296 178 116 116 105 117 131 128 132 144 154 161 158 161 139 129 165 158 154 153 136 121 115 120
197 198 192 155 131 155 109 99 96 121 137 177 275 355 397 412 430 466 313 217 173 110 92 102 138 145 121 126 137 142 156 166 149 156 154 136 145 171 162 156 135 102 94 75

GFSCGP_con_3kmhel_030.txt.gz
Helicity
62 49 40 22 24 41 12 -0 36 44 79 41 32 46 47 30 34 32 20 29 54 60 53 69 81 85 128 156 167 144 191 203 124 86 42 43 33 38 55 71 103 126 146 163
22 24 43 52 36 17 18 32 73 62 36 26 34 13 21 21 39 46 28 31 46 73 88 110 115 143 143 140 121 104 92 55 42 28 44 21 34 33 68 93 127 151 169 192
67 41 44 24 37 40 46 22 27 37 77 70 33 25 23 49 63 70 70 67 66 69 99 133 138 101 76 54 48 26 17 42 48 57 50 44 56 64 82 126 164 201 208 209
53 65 38 32 43 50 42 62 26 21 14 30 16 15 80 66 73 74 92 83 98 103 123 124 113 73 53 47 34 31 56 77 78 53 56 60 82 94 144 174 212 212 184 160
37 62 57 49 57 43 60 42 29 12 -6 2 -8 -4 121 85 73 101 141 151 138 150 141 132 103 70 33 17 16 56 114 133 116 99 93 106 144 169 180 192 195 175 168 148
54 75 79 63 81 33 42 9 19 2 5 -11 50 36 48 64 47 126 157 151 150 142 133 117 92 68 103 108 124 134 155 138 146 132 140 168 181 166 169 187 177 172 155 147
54 79 69 41 34 23 -4 -53 -23 -12 -2 2 68 15 -5 123 104 92 130 139 135 136 114 102 87 81 102 130 138 130 141 185 186 186 175 175 166 173 162 178 177 146 124 104
43 45 20 41 32 -10 -14 3 -4 8 15 12 42 -3 47 45 39 57 90 108 119 97 94 91 83 89 102 140 143 160 198 201 198 196 214 176 162 140 163 161 116 100 104 121
38 44 40 63 40 33 30 12 87 56 46 -1 6 22 6 37 34 71 140 178 162 112 111 102 103 105 151 159 198 217 210 229 218 215 151 144 133 145 148 133 115 120 119 134
31 2 34 39 45 87 61 66 31 26 3 19 22 24 9 29 56 83 137 154 124 121 133 137 126 146 187 204 255 255 249 236 242 174 121 101 134 146 129 109 115 128 129 121
42 37 23 45 32 32 58 39 52 47 41 37 41 33 35 27 33 57 85 119 117 120 137 140 156 193 238 250 297 281 252 255 217 141 111 133 117 125 109 117 136 145 125 109
92 77 45 37 64 72 68 33 22 32 27 40 39 22 34 21 21 41 59 91 85 112 145 164 200 249 280 298 287 291 265 201 165 102 109 96 134 116 120 136 133 120 100 93
70 71 65 38 35 41 22 33 47 65 57 29 45 43 65 27 26 47 64 116 122 156 180 198 236 267 303 314 275 289 253 188 105 162 107 143 120 109 127 122 106 100 97 93
75 74 40 16 46 42 44 43 46 37 67 59 50 30 79 66 69 75 79 132 154 193 221 225 243 275 310 294 266 291 242 105 153 131 147 144 116 115 111 124 116 110 106 94
78 42 47 43 43 40 50 37 32 45 39 72 38 42 37 88 101 90 104 125 162 208 242 251 263 295 295 265 280 231 203 140 167 162 139 121 109 104 122 128 114 113 109 108
77 38 44 22 45 61 47 36 28 34 35 51 36 33 30 74 116 118 123 132 140 178 208 260 274 284 258 253 256 251 127 178 175 144 112 111 109 115 121 121 111 112 107 107
66 49 42 35 74 67 28 14 63 88 106 97 91 60 122 105 115 119 108 97 108 126 175 244 272 245 218 263 227 154 191 206 162 111 110 112 126 121 119 114 111 105 110 115
60 87 96 58 53 59 90 86 89 50 34 51 49 77 99 141 146 117 83 95 85 92 169 214 231 234 252 256 191 211 203 174 115 105 105 124 124 114 114 116 120 109 114 125
95 90 86 77 67 79 43 87 83 75 83 96 63 66 127 127 131 86 94 59 51 89 150 191 238 239 281 294 229 228 226 117 95 95 101 109 119 111 110 119 133 119 133 121
114 114 107 104 69 46 107 107 84 65 70 160 124 92 92 95 137 134 73 33 80 129 183 267 324 297 296 273 357 229 133 119 95 102 104 110 107 104 109 128 133 145 126 123
85 106 95 115 90 81 92 91 100 94 176 92 48 64 62 91 113 130 93 105 113 176 255 320 339 386 513 490 168 109 139 105 85 90 94 88 91 106 111 129 138 128 113 138
67 87 91 119 119 82 87 64 89 138 95 99 95 98 96 132 174 155 172 202 230 307 409 404 561 600 337 97 130 172 196 114 83 79 74 81 101 128 134 127 127 122 116 125
83 92 113 83 115 112 39 77 104 112 106 95 102 126 135 148 149 169 217 272 346 392 517 632 516 377 371 151 129 140 104 82 71 69 80 99 110 110 106 117 117 119 118 124
69 82 109 99 70 48 43 62 69 70 66 76 81 92 111 115 167 205 269 349 432 523 611 460 328 425 273 160 114 74 65 61 61 65 79 90 98 113 114 126 121 106 118 120
110 67 75 74 51 82 73 81 77 87 90 94 96 114 120 130 164 214 293 385 448 511 474 439 412 447 204 83 60 56 61 66 65 76 85 89 109 105 110 110 98 103 103 115
86 132 120 117 132 91 87 97 90 86 105 116 121 147 164 177 232 276 365 473 557 576 500 392 378 177 88 63 44 53 62 65 67 76 82 106 111 116 106 91 98 107 95 135

GFSCGP_con_3kmhel_033.txt.gz
Helicity
14 54 30 1 39 35 4 4 -8 78 43 -24 15 28 6 25 11 42 32 55 67 63 78 43 40 68 78 174 117 113 205 170 136 106 61 50 50 50 59 40 50 64 110 116
14 38 15 60 8 31 16 -6 31 39 2 -3 7 3 41 19 19 43 52 58 66 76 94 72 72 86 104 156 171 141 138 113 68 52 57 58 61 52 42 64 70 93 105 146
37 87 31 34 19 21 18 28 39 7 44 14 9 22 16 25 27 31 67 44 43 59 74 99 91 126 144 139 123 121 72 36 33 104 89 87 81 89 82 87 77 135 153 168
80 8 23 73 23 12 9 25 18 21 51 46 37 17 40 59 65 56 73 62 71 77 86 102 120 150 101 109 65 54 31 50 100 80 85 86 73 87 159 145 184 179 173 173
20 -16 1 9 37 24 59 25 9 6 11 68 37 -5 138 -0 100 103 91 87 96 131 111 119 122 108 73 85 51 55 85 133 145 103 108 101 104 148 173 161 207 143 152 114
3 48 65 58 42 48 29 22 10 -0 11 16 22 -1 41 118 53 130 111 116 125 136 143 142 166 165 180 93 71 128 119 163 116 140 163 169 186 181 180 121 147 166 205 158
2 12 33 24 20 34 9 1 4 12 17 -4 60 36 -1 52 127 81 156 100 112 126 146 181 192 189 138 123 102 129 136 149 154 186 202 208 212 178 150 179 177 218 166 164
3 18 28 47 24 22 -16 31 5 25 22 15 73 6 62 153 69 66 113 66 80 83 129 148 164 144 125 112 128 139 169 184 192 215 250 243 236 185 163 173 201 169 160 150
7 63 76 55 32 31 -1 -2 54 44 30 20 -5 5 69 54 54 45 102 92 86 95 123 132 138 125 130 126 151 153 196 188 227 265 266 302 266 272 129 190 158 134 133 130
24 44 23 35 16 5 29 67 10 22 30 10 18 8 69 27 33 38 94 104 88 78 107 125 138 150 153 136 189 183 199 310 301 284 301 292 210 9 133 139 141 135 129 124
36 36 8 22 -23 -6 26 4 33 68 53 38 54 52 89 43 26 32 40 109 98 91 99 121 138 164 170 190 235 213 250 306 275 320 337 242 117 113 125 135 136 136 137 122
67 37 12 -28 92 52 82 35 23 30 22 34 62 45 22 39 11 35 43 81 109 112 113 147 150 186 175 232 226 233 309 319 318 390 335 174 47 109 132 129 137 142 127 110
69 25 14 18 27 35 27 22 30 42 70 31 48 38 47 71 36 53 51 76 101 117 135 176 211 196 186 222 236 318 332 331 416 311 176 103 85 112 122 133 143 136 119 102
111 36 45 17 52 65 28 13 16 24 41 31 10 16 50 76 49 68 80 67 107 116 138 197 206 195 196 217 255 320 341 388 279 291 236 66 178 134 129 128 138 126 117 98
84 47 24 39 62 63 52 32 13 -25 -4 -13 15 20 21 44 81 85 104 106 86 125 154 188 188 192 199 247 279 299 378 370 313 198 101 148 168 133 111 119 115 123 112 97
61 56 72 49 25 29 23 18 17 -0 -15 -11 6 -12 19 116 82 107 78 119 103 115 132 132 132 166 217 267 247 284 427 286 227 172 126 166 146 110 104 110 124 94 101 104
53 72 49 43 66 49 7 -5 2 7 12 46 46 39 63 139 84 90 105 131 106 86 112 107 112 163 238 258 243 412 294 248 228 148 185 152 113 96 81 105 100 100 117 116
53 43 72 44 30 24 48 75 82 73 41 33 56 51 60 116 143 117 119 102 106 89 86 96 149 207 258 236 433 303 328 338 164 238 163 115 96 80 92 86 93 104 115 121
63 70 65 59 38 49 26 84 68 79 89 191 165 152 142 179 83 32 75 112 98 81 83 121 173 205 278 393 300 357 317 235 282 192 157 94 60 102 94 91 93 125 129 123
91 96 78 83 60 32 106 104 77 67 68 216 166 145 102 78 91 139 151 161 73 50 87 130 160 261 304 299 374 371 462 379 330 234 92 66 97 99 86 88 95 116 125 105
77 97 75 69 76 66 142 91 74 89 221 169 107 82 81 65 169 218 166 126 73 93 122 206 296 358 344 441 564 533 566 346 141 86 79 64 60 75 81 99 111 112 101 130
44 60 70 97 88 64 116 115 146 182 111 134 94 100 96 96 142 148 131 108 124 180 325 327 304 469 685 708 712 462 171 230 181 94 60 48 59 76 96 104 92 84 95 135
65 75 93 78 105 138 82 114 121 115 105 111 109 89 91 82 83 98 163 140 186 247 303 351 600 658 616 531 317 389 230 175 102 59 43 43 57 73 82 68 88 116 114 143
83 99 112 115 118 112 110 106 118 136 134 102 97 101 110 108 117 121 255 200 210 284 508 566 508 474 444 355 386 325 178 100 62 31 32 49 58 77 91 106 88 137 150 120
144 92 95 93 72 130 109 213 169 108 89 119 128 129 141 118 130 231 282 348 506 557 544 545 509 538 501 337 246 91 71 32 25 41 55 65 80 83 91 85 105 166 133 128
106 150 120 127 182 145 133 232 129 137 162 168 168 207 225 237 349 487 559 531 469 497 534 559 543 428 200 87 62 33 25 45 52 57 72 86 96 88 95 111 117 135 117 116

GFSCGP_con_3kmhel_036.txt.gz
Helicity
26 31 35 21 8 5 16 34 -5 8 27 -1 92 0 73 42 30 46 65 62 87 83 135 151 82 70 92 299 294 203 259 186 162 123 124 96 74 69 71 91 51 46 70 62
33 13 38 14 47 23 11 24 31 42 11 -21 10 -5 97 76 50 45 75 104 134 140 116 131 91 93 174 297 296 295 246 160 107 106 79 83 100 80 61 85 67 94 62 85
76 94 27 47 20 42 36 7 58 10 34 -6 63 -4 64 86 27 13 96 93 128 139 180 118 126 149 163 314 366 337 213 137 50 34 103 139 117 116 135 132 93 130 99 138
10 99 22 34 36 25 18 114 5 13 22 -6 52 -20 100 58 13 20 45 95 181 147 168 167 113 128 167 347 318 259 163 48 10 102 132 133 109 110 93 93 168 161 156 166
-70 74 29 25 46 113 -2 27 58 6 -1 10 4 -97 184 91 55 39 27 75 115 116 150 211 157 157 294 278 221 112 26 8 96 135 128 89 114 237 312 371 346 225 143 139
16 69 86 151 7 49 26 -20 -14 11 23 158 141 58 107 101 100 -20 36 44 58 158 247 225 223 224 143 121 58 6 20 190 267 180 184 156 218 296 272 211 198 162 220 250
-3 106 38 -12 -76 -5 -5 -23 15 80 -22 -33 3 49 60 133 34 87 -5 137 108 207 159 120 159 71 121 153 119 184 205 299 215 203 229 283 335 361 363 331 319 313 229 287
-10 69 27 6 -27 62 90 -5 38 19 26 71 39 -16 60 168 136 103 180 240 172 154 144 170 221 265 252 180 154 183 159 284 243 247 271 294 367 336 383 422 360 212 242 247
52 90 137 96 36 39 40 29 31 -9 16 -20 -7 21 110 90 87 82 193 161 144 130 162 201 196 239 237 176 173 147 202 264 276 264 372 384 392 442 386 279 239 145 234 177
72 -28 37 -25 28 28 37 50 26 21 20 13 10 -23 176 54 49 27 126 157 131 146 155 171 200 232 238 177 198 168 211 287 333 414 423 380 395 347 298 312 194 202 180 183
46 196 -28 47 9 17 9 3 22 36 23 36 33 46 48 54 46 33 25 181 183 195 176 191 207 217 243 221 257 230 222 283 485 511 426 468 419 371 288 195 169 201 189 153
16 52 76 -4 49 58 88 31 -4 55 33 58 53 38 46 36 23 44 22 67 201 195 178 201 212 265 285 299 303 290 246 354 442 418 466 524 355 241 139 253 153 202 186 159
71 68 44 39 3 1 20 21 37 55 113 60 49 48 39 45 26 43 46 64 123 188 158 173 240 312 361 367 373 326 249 341 372 443 593 403 260 287 207 132 188 223 205 174
118 71 33 4 8 46 47 -6 14 34 100 50 11 32 25 83 63 55 84 75 64 163 139 145 156 279 405 432 379 309 344 388 406 601 379 387 474 132 325 179 216 228 187 178
112 40 31 48 58 38 106 72 17 18 22 36 31 22 6 47 83 77 114 95 109 49 120 129 125 242 311 423 389 303 410 421 485 484 511 318 299 273 192 181 182 157 178 149
81 80 85 83 77 83 29 58 47 29 28 13 13 31 21 56 102 127 203 168 142 126 86 173 176 186 276 305 335 362 431 502 666 466 360 284 177 386 199 172 156 133 120 123
65 77 86 61 101 102 36 17 -3 2 7 31 43 48 65 89 85 170 142 108 157 119 153 130 179 159 154 253 366 440 499 651 562 367 256 356 431 237 188 149 122 119 133 151
76 45 115 76 83 46 9 83 79 86 64 73 93 155 202 202 204 158 90 114 128 148 113 109 107 158 210 262 327 458 603 507 462 491 440 282 199 173 144 118 107 89 103 145
74 98 107 92 60 37 50 67 80 71 122 204 253 248 204 153 106 104 71 231 207 177 149 101 92 192 247 351 496 544 532 601 519 389 330 237 214 219 110 112 110 111 128 145
114 113 84 70 62 24 72 100 90 81 100 219 207 164 134 93 104 200 226 183 140 109 84 95 126 184 322 454 468 574 588 591 741 750 595 347 127 95 76 88 91 117 129 147
91 111 85 90 68 63 150 122 75 86 181 161 134 108 92 120 142 157 139 150 165 131 253 347 386 492 638 752 776 834 842 911 754 389 320 123 75 74 48 63 122 134 125 118
39 51 58 109 71 41 118 106 126 198 145 149 139 136 116 116 92 105 109 136 132 260 350 397 673 783 896 895 889 853 868 616 357 229 119 87 60 56 59 70 101 103 96 100
45 49 58 66 75 108 124 181 160 185 149 145 148 141 150 141 132 129 171 261 311 376 543 697 690 703 643 586 581 562 433 447 241 121 95 54 38 47 66 85 88 116 120 157
74 126 94 131 82 94 129 161 261 260 201 122 127 161 193 162 103 143 305 466 655 650 644 541 498 485 492 548 529 331 116 77 56 24 10 42 68 80 83 87 101 121 131 197
144 123 81 94 109 164 293 418 347 198 202 180 167 304 225 165 342 478 586 634 604 544 467 388 351 263 157 75 47 2 31 48 22 31 53 61 85 83 88 92 103 138 152 169
119 135 138 147 269 209 311 307 271 272 252 228 269 256 284 332 364 399 421 353 302 237 136 92 76 34 1 16 30 27 25 39 83 88 101 107 118 116 108 100 117 135 135 130

GFSCGP_con_3kmhel_039.txt.gz
Helicity
35 25 27 53 25 47 48 59 96 8 -1 196 133 26 24 8 57 101 96 120 122 157 137 151 142 262 304 261 248 323 293 239 256 238 202 148 120 53 33 53 95 96 86 115
27 24 25 29 57 36 32 62 60 84 40 97 68 58 100 36 39 153 148 157 149 189 233 206 178 313 379 355 423 360 306 200 171 187 134 122 102 69 91 100 109 109 94 115
-15 51 46 32 19 77 138 7 95 46 15 0 29 17 119 -10 24 85 166 221 258 315 301 286 236 296 374 394 494 386 306 197 172 132 150 177 123 167 142 133 153 121 149 149
-38 -3 35 -1 50 88 45 20 43 -54 2 13 30 19 67 -15 17 28 158 221 302 309 342 315 206 296 326 390 364 327 274 189 95 90 194 216 166 189 150 166 173 156 179 133
-40 1 -8 21 43 18 -24 31 29 14 37 77 52 42 30 -18 56 14 37 184 284 297 390 355 300 252 331 407 330 338 225 113 97 99 207 195 200 174 207 249 241 187 138 134
25 26 -23 23 24 9 81 19 26 22 10 19 -23 92 -1 44 136 161 -38 -27 114 187 307 358 295 387 371 323 290 243 179 100 86 133 212 221 284 385 428 409 334 306 326 379
-2 24 30 -24 -9 14 9 6 60 66 51 -48 37 78 149 95 22 145 168 -14 92 219 299 334 398 380 304 240 229 208 155 103 159 305 342 339 364 384 405 429 506 488 383 384
3 36 50 33 2 15 20 -20 29 21 -23 -24 75 22 -1 57 26 33 52 13 79 219 242 294 317 273 263 187 116 144 134 234 285 363 396 443 448 502 542 534 496 456 430 365
48 62 19 40 101 28 19 33 12 62 47 43 14 16 154 147 90 84 83 126 225 247 248 269 279 295 286 291 214 218 293 350 396 397 383 430 484 529 509 472 420 407 289 308
73 61 70 33 29 62 29 31 72 72 42 20 29 -2 49 82 41 56 105 190 195 203 215 279 340 350 379 363 337 265 263 336 362 408 421 464 469 430 410 406 445 262 442 217
136 99 46 49 -1 26 37 32 64 63 59 25 67 51 16 32 28 20 131 210 227 239 263 297 333 363 346 308 241 229 268 338 433 503 489 511 475 437 350 339 454 479 257 234
62 87 76 -5 -13 47 58 28 46 84 49 63 23 27 45 46 38 44 36 138 230 285 312 322 357 394 399 386 339 279 281 371 464 522 575 590 511 402 326 312 428 259 242 210
117 103 97 71 38 41 30 41 28 46 114 75 82 21 5 70 88 47 16 57 157 238 282 318 370 452 484 443 467 491 479 440 474 519 591 558 459 336 436 484 220 262 210 224
109 112 78 60 48 38 24 31 25 83 132 88 57 30 26 22 59 37 68 76 107 178 231 272 321 427 508 551 544 440 506 516 535 613 562 474 457 489 473 349 411 163 205 219
119 105 107 70 35 29 2 49 65 24 67 133 35 31 35 40 76 134 95 90 102 121 116 165 269 412 479 473 471 457 416 505 592 616 612 567 570 601 609 351 233 254 164 122
144 109 116 74 85 79 83 73 48 92 79 47 39 51 30 6 65 105 128 160 178 214 217 165 175 263 309 389 388 352 401 535 623 645 675 604 636 545 410 432 417 129 139 103
128 148 172 110 110 85 54 19 60 63 54 33 32 69 125 156 171 175 178 180 157 150 162 150 133 74 101 143 261 409 528 621 632 603 603 613 607 644 622 358 179 200 136 118
101 122 128 91 115 93 15 58 58 75 130 162 231 210 168 189 226 239 158 167 229 277 283 166 129 127 161 300 446 499 568 588 628 675 709 685 729 664 448 417 444 141 111 95
136 137 133 116 97 62 52 101 62 94 163 171 203 257 267 225 129 167 194 194 200 189 182 201 230 269 369 492 532 625 640 680 757 781 816 899 749 818 627 279 103 115 61 90
236 166 135 120 99 58 43 80 113 115 153 144 151 150 143 111 78 43 135 178 203 244 310 397 512 635 695 721 846 956 912 872 898 1076 1003 857 657 278 108 62 67 48 101 103
170 227 157 146 92 69 72 89 86 129 117 180 151 120 117 67 45 72 125 228 344 360 418 517 679 712 688 726 791 797 767 795 812 798 549 194 88 70 39 41 77 93 93 97
93 118 110 140 113 58 99 136 115 125 219 192 172 164 155 158 188 180 318 423 426 425 469 489 529 546 563 551 580 627 673 519 387 213 110 91 68 75 49 39 64 94 101 110
75 66 56 63 48 59 130 201 260 232 241 232 230 214 190 201 234 345 391 429 450 432 410 365 360 379 353 298 226 176 100 101 148 124 106 69 47 49 70 96 97 107 112 125
134 90 102 103 93 155 396 421 378 329 310 301 259 224 230 269 293 362 423 457 471 389 306 196 180 153 153 138 142 123 82 87 116 92 76 68 79 89 94 101 114 126 125 136
114 137 116 124 230 398 435 420 422 462 360 317 315 279 256 286 305 334 342 317 235 197 206 210 213 203 167 161 146 131 122 94 74 68 78 94 102 105 116 126 132 140 144 163
160 156 169 157 225 289 368 403 415 415 326 265 268 285 259 235 234 250 287 288 277 241 216 199 169 146 133 127 95 62 45 59 79 114 129 126 133 142 153 156 153 145 156 127

GFSCGP_con_3kmhel_042.txt.gz
Helicity
15 22 91 98 48 53 43 52 27 37 48 101 93 3 51 128 118 36 16 64 149 170 163 170 210 194 134 116 173 208 216 220 255 263 255 213 195 163 114 72 59 78 137 143
8 -5 27 38 84 27 43 117 80 59 18 172 64 50 18 132 136 124 84 120 184 191 228 171 220 226 205 200 171 184 185 224 228 249 223 213 182 112 54 46 79 97 157 163
-21 -25 -16 1 33 19 90 17 136 75 6 20 59 -23 -25 -17 153 87 99 165 232 300 324 286 276 264 248 287 260 230 202 218 215 212 234 263 202 164 130 136 113 132 170 152
-27 -13 15 -8 22 26 88 77 206 41 25 36 46 32 35 20 20 106 102 145 262 271 309 377 378 385 394 363 327 286 252 236 178 189 295 260 215 257 189 189 155 191 182 163
-11 16 26 8 35 2 15 -3 3 -15 19 32 69 51 6 17 2 39 126 189 271 368 424 462 424 404 409 473 426 329 284 213 122 162 252 220 190 218 227 214 222 239 204 265
-21 -16 -27 -1 42 -13 -18 4 28 51 36 33 41 12 -11 64 129 147 147 216 236 298 331 329 413 395 436 446 380 327 265 224 153 160 195 217 211 238 286 267 284 270 337 383
47 -4 22 58 16 -56 -0 47 57 48 42 -18 58 41 36 33 4 91 164 175 161 232 277 327 450 443 386 387 342 332 264 191 208 183 179 204 242 291 286 320 379 409 464 464
40 30 -11 8 -40 26 45 37 44 31 12 7 31 15 13 38 45 8 3 67 139 127 237 323 435 393 308 304 333 311 283 221 224 201 206 262 331 399 414 423 464 519 476 426
41 58 21 47 67 50 49 53 36 93 63 47 40 71 52 41 55 21 62 89 88 140 217 275 330 276 272 315 252 230 233 209 253 279 358 429 514 508 549 553 520 503 441 523
41 39 17 53 51 32 20 13 70 81 41 24 46 69 28 42 6 14 19 69 88 131 123 154 217 234 179 208 228 222 239 267 300 354 440 477 469 519 513 472 404 384 410 413
145 96 63 54 106 48 83 55 63 71 83 29 45 58 -0 -6 -10 -0 -24 38 90 103 146 152 172 208 240 254 308 315 328 355 395 451 483 505 487 426 402 406 380 373 601 418
126 125 95 27 17 63 73 30 64 83 76 99 54 33 27 8 35 41 12 25 94 154 217 244 271 301 319 341 375 365 356 423 421 508 546 549 552 514 498 469 490 401 365 308
138 143 136 123 87 -20 -11 28 77 108 90 71 101 28 35 38 42 60 55 52 97 146 226 310 359 380 396 400 371 413 497 449 482 586 582 595 577 558 538 511 335 389 373 303
167 137 110 100 60 65 67 42 60 100 121 103 85 51 43 38 5 58 42 56 86 151 225 290 368 372 436 426 410 541 488 505 542 544 571 565 529 464 441 484 540 540 457 367
180 132 118 99 93 100 112 97 53 62 63 131 61 98 35 31 53 47 54 124 150 126 113 161 230 329 424 466 509 547 499 534 570 549 582 509 515 584 589 574 593 608 515 549
149 98 134 123 129 98 85 95 85 63 98 76 80 100 59 128 199 244 207 204 237 214 169 164 157 266 385 406 431 503 535 510 555 657 658 666 644 650 671 650 738 696 595 567
177 178 192 138 178 140 72 84 93 65 23 46 106 92 177 305 288 274 261 277 268 230 214 166 105 126 182 231 281 389 495 636 646 623 629 646 669 741 707 808 775 732 414 128
170 205 181 137 183 164 86 96 103 176 203 202 260 271 240 240 260 287 255 239 256 230 230 264 234 208 204 292 418 521 595 677 762 800 795 791 816 930 1051 930 342 110 109 80
154 186 162 152 137 113 86 102 129 153 175 159 221 216 127 91 205 225 171 176 182 220 263 260 239 267 340 428 524 699 761 810 836 829 860 941 1015 742 431 110 48 54 45 49
231 211 159 155 134 82 27 109 118 146 156 139 180 183 174 124 140 136 119 173 241 276 259 272 290 334 393 426 589 767 773 807 834 825 802 756 290 158 97 112 69 61 95 90
252 236 194 214 156 95 55 52 136 160 99 153 146 117 113 110 81 96 184 264 255 255 270 291 361 426 390 454 556 629 621 627 511 463 364 92 103 102 96 112 127 110 99 117
219 242 208 245 204 74 84 163 143 136 203 186 168 123 141 109 194 260 288 282 281 301 316 341 382 364 275 235 258 236 202 113 123 118 136 161 151 117 101 102 115 123 130 131
165 128 124 97 73 118 119 117 170 190 232 193 176 156 176 211 254 280 298 312 298 273 230 217 227 249 265 254 240 247 188 164 172 185 165 129 105 102 108 127 135 148 146 156
116 101 110 134 156 250 321 324 283 262 264 241 211 189 208 243 253 305 295 273 303 319 311 266 266 254 223 176 170 164 156 152 155 135 108 99 101 112 128 144 155 175 182 181
142 153 165 196 225 343 354 322 349 375 343 342 316 277 252 283 279 297 349 368 325 294 275 253 228 226 218 195 177 156 135 104 98 94 104 118 141 150 153 162 190 208 210 215
202 204 222 164 149 224 290 315 307 363 330 309 330 356 339 329 360 375 379 330 316 310 259 259 266 229 196 177 164 143 113 92 94 104 112 130 144 157 183 207 212 204 199 179

GFSCGP_con_3kmhel_045.txt.gz
Helicity
-8 27 15 99 81 49 50 24 14 -10 -5 11 82 16 89 64 110 100 76 88 60 64 70 56 34 21 25 6 65 98 121 114 165 199 226 199 175 184 182 156 150 156 146 216
19 4 -4 30 51 77 45 39 46 42 15 1 36 33 15 85 92 172 120 80 85 59 68 88 55 59 79 90 112 165 205 211 203 237 237 205 220 181 174 167 154 143 181 185
50 -1 27 4 7 23 31 33 74 27 47 22 36 48 -4 91 78 31 117 126 84 177 160 178 155 152 132 121 153 207 211 231 224 246 257 252 288 233 242 224 190 152 139 127
17 -2 1 12 30 26 42 23 8 60 30 43 19 19 12 26 124 114 123 201 173 171 203 243 224 199 219 209 183 184 190 257 238 258 272 306 309 273 181 170 153 173 149 149
-5 -7 9 12 -20 4 50 37 44 14 33 32 59 48 17 10 -26 100 169 207 221 228 269 295 289 265 246 221 243 230 230 215 230 244 242 253 233 178 159 206 217 208 202 230
5 10 3 29 10 -17 14 22 85 60 70 40 35 42 -4 12 37 53 100 191 284 341 303 259 258 248 281 312 305 304 322 265 190 243 222 218 218 147 183 210 241 256 286 307
24 21 8 20 43 40 19 73 62 64 66 -8 44 40 3 -16 13 69 168 194 274 347 437 355 355 325 348 389 350 315 303 247 205 243 241 268 165 164 166 224 289 334 357 378
19 1 -1 22 -22 25 24 30 49 31 22 23 45 -9 3 3 36 44 29 68 203 349 429 423 341 387 452 418 333 301 271 212 213 224 245 251 140 194 242 278 330 417 455 519
-5 24 5 29 15 31 44 39 40 66 61 55 36 31 43 39 56 52 50 67 99 149 218 315 340 395 399 352 334 251 260 216 223 245 287 267 230 295 363 402 520 487 599 647
37 26 22 40 43 53 40 36 80 102 67 41 35 45 26 58 71 42 29 19 11 38 92 170 273 304 302 327 262 271 240 225 238 291 322 296 354 419 473 499 546 646 712 481
107 80 40 72 52 52 90 84 104 79 89 77 71 41 6 18 31 38 24 7 16 22 42 68 108 177 226 256 276 251 228 241 246 302 339 395 457 529 550 503 523 498 481 537
72 106 64 49 60 39 162 141 104 122 98 105 86 36 40 11 8 21 6 23 12 2 31 57 74 147 185 179 187 227 261 280 293 362 448 448 477 454 526 533 535 533 544 404
109 141 144 109 99 78 127 85 64 127 118 68 111 51 49 36 48 34 12 16 43 45 36 75 119 146 165 194 256 255 275 310 458 465 523 477 450 481 510 498 483 372 369 398
194 129 109 112 92 85 96 35 83 120 123 89 94 58 77 46 72 59 43 24 8 75 110 128 142 158 202 283 339 354 439 445 441 501 467 431 483 537 488 443 456 423 432 475
127 105 109 71 62 93 99 95 116 126 94 120 27 72 71 59 46 49 46 126 109 85 112 117 154 168 204 304 379 402 443 428 509 515 488 532 587 534 483 490 480 347 560 591
187 163 165 147 156 136 86 86 116 117 126 102 76 85 75 94 139 219 175 221 238 232 202 130 85 131 211 291 344 345 380 459 512 519 561 577 571 532 549 622 743 796 912 645
186 208 193 120 154 140 131 57 98 116 126 112 140 93 127 216 280 280 275 256 243 221 196 176 156 134 131 196 285 356 430 480 524 566 585 640 678 751 783 780 733 676 284 147
221 234 202 138 216 54 132 175 130 147 175 182 201 212 201 268 307 334 283 191 191 163 180 185 176 170 169 193 284 368 439 532 591 644 722 780 828 808 735 670 480 198 92 134
214 240 217 192 192 163 142 125 151 170 172 194 240 275 259 241 282 281 247 214 168 162 168 178 180 191 251 291 342 489 581 628 699 731 729 675 604 559 484 329 75 98 145 122
318 260 199 204 180 117 90 106 148 155 152 114 143 142 144 196 164 101 134 154 182 198 195 201 208 220 279 294 386 538 561 604 585 541 577 667 619 286 67 80 124 136 130 138
295 265 210 265 207 183 127 85 144 199 76 185 154 143 138 120 95 130 150 180 217 227 240 246 269 263 210 220 307 339 350 370 317 326 240 101 85 113 134 136 140 137 132 140
230 239 225 293 283 164 131 204 183 110 210 194 173 176 192 180 183 178 179 205 232 251 253 256 291 307 286 280 283 293 292 206 172 126 156 139 128 122 122 127 122 120 136 156
209 195 178 194 170 162 122 105 150 131 140 135 173 156 155 157 145 185 202 242 292 322 322 311 332 347 340 322 293 301 227 192 181 150 130 119 112 112 106 117 126 155 165 191
227 224 242 235 178 161 145 179 168 184 190 181 168 174 168 236 233 253 303 354 369 354 368 334 340 349 349 309 314 276 205 149 138 134 133 125 123 120 123 141 159 180 198 215
206 286 281 263 200 189 184 208 249 283 293 343 327 271 280 332 300 354 386 403 414 410 383 343 344 341 295 250 241 196 163 136 139 133 125 117 107 107 110 125 145 174 191 219
241 293 296 203 183 192 175 214 257 322 326 323 377 375 333 348 366 397 432 413 413 402 363 360 317 285 262 243 229 200 165 134 121 107 87 76 73 80 92 103 101 112 122 127

GFSCGP_con_3kmhel_048.txt.gz
Helicity
-12 32 29 19 86 97 56 10 -20 -3 6 11 33 37 45 108 88 122 110 67 44 50 32 14 24 56 45 8 7 3 25 18 59 50 58 62 94 113 91 86 141 159 182 218
-10 3 8 13 49 46 48 35 -1 21 3 -42 15 24 40 105 120 137 121 67 38 3 -3 35 1 8 54 64 54 51 60 84 90 101 121 129 168 147 123 147 155 164 201 206
27 15 38 24 32 47 27 43 54 24 33 3 25 52 10 43 83 75 81 84 30 67 52 29 53 42 24 42 62 79 92 118 145 170 235 210 272 190 165 164 174 177 189 201
11 18 40 28 17 35 41 14 32 50 27 16 26 34 23 33 96 93 114 129 92 41 25 59 89 101 116 98 71 67 64 100 155 207 237 303 282 303 219 168 176 181 190 202
7 24 23 31 40 14 18 21 37 35 19 29 48 35 18 41 26 97 107 170 160 103 104 101 137 183 146 113 138 151 149 156 185 233 241 293 310 309 238 191 201 219 208 228
-13 19 20 16 36 9 22 36 69 53 70 27 27 61 -3 26 51 7 63 95 160 181 172 139 148 168 179 197 201 225 227 222 210 208 245 260 269 268 215 177 204 231 242 256
-14 16 44 37 69 24 36 65 46 60 86 5 56 56 -2 3 -7 -18 24 146 166 193 223 220 278 277 252 261 267 276 264 258 256 200 182 220 257 285 220 173 203 262 287 321
16 -30 33 27 40 38 33 48 82 54 53 22 53 14 -3 -11 2 14 -29 17 109 151 221 243 325 366 329 323 331 295 267 267 272 257 184 166 272 315 218 186 229 297 356 430
22 -13 17 22 22 59 58 57 35 86 72 52 31 41 14 22 21 47 59 42 43 85 184 228 271 362 357 383 372 333 277 287 253 236 221 263 272 292 273 224 325 409 480 586
13 -7 32 26 33 51 49 36 74 84 53 44 40 37 27 38 67 61 62 24 36 22 11 67 158 265 306 310 338 295 280 276 246 238 294 321 304 294 299 331 373 427 478 600
95 51 22 53 47 68 78 80 97 82 82 57 45 31 5 8 58 79 64 18 -11 3 13 55 103 163 201 221 245 244 255 256 241 243 235 251 272 269 281 287 347 395 532 603
48 53 11 18 50 50 38 44 104 116 63 104 106 24 50 19 16 9 13 23 16 -16 -28 -31 -12 55 118 131 159 189 219 241 209 243 235 226 252 274 289 324 409 439 446 425
79 61 21 71 113 96 70 69 126 169 170 91 99 40 50 24 21 40 30 14 27 31 19 28 35 43 58 43 74 155 171 194 238 272 291 299 302 344 364 396 400 394 396 432
148 135 116 59 68 88 91 122 123 144 113 94 102 73 49 55 67 49 51 59 49 44 49 51 64 65 97 126 145 186 228 291 304 312 356 385 396 358 318 355 378 360 393 367
137 78 131 107 76 95 75 83 156 159 116 119 52 103 46 45 62 52 43 84 92 81 63 40 28 78 113 147 161 202 252 293 313 343 364 397 365 328 384 425 450 522 455 415
174 104 143 118 139 125 90 83 79 76 102 103 106 78 67 84 99 127 146 165 204 207 215 206 165 129 109 113 152 189 217 243 275 312 333 343 375 444 484 572 635 613 611 517
178 198 153 110 182 184 101 82 119 123 158 158 160 117 143 145 177 202 232 245 240 232 236 237 209 169 149 146 191 231 267 301 341 392 444 491 547 566 590 534 594 471 484 279
245 253 204 137 213 67 118 177 151 155 156 174 181 168 222 262 293 343 369 315 290 248 212 177 158 175 200 218 262 298 329 370 429 462 490 499 532 565 596 564 509 350 233 105
162 242 210 174 169 149 142 152 171 135 89 126 146 224 295 316 333 354 296 241 188 147 121 132 182 219 259 283 281 349 375 389 397 390 427 463 476 434 429 462 315 99 124 130
216 217 200 188 170 131 68 118 186 203 147 149 180 182 213 194 196 139 141 135 144 153 175 201 228 249 265 227 235 295 295 335 357 344 328 310 298 325 133 104 112 137 130 120
352 326 247 271 198 162 107 156 224 239 117 183 205 152 152 134 133 146 142 170 160 174 205 232 270 275 238 218 254 286 271 265 234 236 228 208 167 127 132 143 124 114 104 110
328 360 313 307 263 151 194 316 305 154 98 189 220 197 220 188 191 192 187 184 191 236 252 271 318 326 285 258 289 278 273 215 225 217 201 169 146 142 123 107 100 101 107 121
288 252 244 193 162 171 151 175 142 133 111 150 235 181 223 237 210 209 219 238 246 261 294 309 338 378 382 339 292 284 228 207 210 211 191 160 136 119 112 101 96 104 122 136
266 260 247 238 184 191 201 143 126 118 123 156 172 199 213 252 240 263 273 262 277 303 335 342 388 391 371 330 309 281 229 189 192 186 160 127 116 109 100 96 101 116 134 147
211 300 222 212 207 242 152 121 137 195 217 272 280 234 245 300 276 284 299 317 336 368 388 383 378 367 343 322 322 278 236 190 176 146 126 117 98 87 79 76 80 98 113 136
252 253 278 192 255 326 138 167 181 248 257 271 348 333 309 299 312 353 382 372 390 417 413 419 393 369 324 294 273 239 196 152 133 123 104 83 68 61 63 63 70 75 85 109

GFSCGP_con_3kmhel_051.txt.gz
Helicity
17 24 20 15 22 68 68 23 -7 0 9 14 13 14 19 86 87 80 64 48 36 26 54 52 42 46 67 83 65 35 32 22 -5 -19 -19 -24 -10 2 13 37 25 53 88 121
22 24 12 5 24 62 63 46 11 17 58 -1 21 1 -6 102 126 131 104 69 61 35 41 43 36 47 73 88 82 60 50 30 20 14 23 26 50 35 53 71 81 90 92 141
34 28 28 42 25 30 43 42 41 40 42 -2 -4 15 23 23 32 58 55 58 24 39 40 57 73 70 62 79 91 75 59 44 37 38 68 112 100 80 91 101 104 104 101 150
10 5 38 46 -6 -6 12 28 50 16 5 12 23 20 35 20 47 65 89 46 37 11 -9 -10 53 72 84 49 36 42 49 67 69 94 107 149 138 137 127 168 138 125 122 166
35 45 42 40 -19 -3 12 38 55 55 45 21 35 5 33 37 13 64 110 112 37 34 30 22 29 55 74 66 97 98 85 96 96 114 129 149 141 142 168 200 139 149 171 201
30 -1 16 14 5 -2 36 58 90 83 53 27 37 30 7 9 17 2 19 85 116 44 34 20 8 23 40 73 100 120 122 104 111 130 152 156 131 176 211 213 200 189 208 215
46 14 15 24 39 46 56 73 57 39 47 22 58 38 5 29 -3 2 8 0 53 119 63 42 26 63 70 107 129 129 152 156 165 163 165 186 182 179 251 233 224 261 231 231
38 19 52 46 43 40 47 45 53 28 32 41 54 -1 10 21 10 13 7 2 -19 45 66 88 89 86 104 123 149 176 186 169 184 214 200 205 164 196 237 265 218 226 206 194
97 54 19 -5 23 57 54 66 57 82 73 45 40 23 10 32 15 37 65 57 24 8 27 37 48 104 144 162 170 200 194 183 183 228 230 200 210 230 198 224 223 243 236 251
52 83 29 27 53 64 63 76 91 95 34 21 42 28 13 29 37 44 50 57 36 43 46 30 43 57 77 87 122 123 137 122 124 139 175 185 179 189 196 200 236 250 226 260
105 63 51 38 25 36 61 65 100 71 77 39 33 31 12 -6 18 29 15 -20 -20 3 24 28 41 54 59 68 95 118 106 87 90 101 130 148 152 164 208 210 231 251 273 395
73 67 68 55 47 51 72 60 80 86 53 86 80 64 59 25 17 11 5 5 -11 -7 8 15 11 12 9 21 28 34 38 56 90 136 159 156 178 185 205 220 261 315 312 310
129 103 83 57 35 60 61 81 107 132 129 81 111 86 58 47 35 11 18 22 14 8 11 8 16 13 -2 -17 -16 1 47 64 84 129 144 165 172 187 201 226 210 177 230 292
164 117 97 30 42 82 56 79 110 152 118 99 131 77 37 37 42 45 52 47 52 71 74 83 64 52 46 49 55 66 99 117 137 163 182 188 197 173 148 191 197 200 224 294
77 90 100 70 69 121 81 78 108 115 148 154 95 104 31 33 29 30 42 57 83 145 159 129 101 108 97 111 124 138 138 148 164 198 201 183 171 177 193 230 252 346 334 432
108 99 124 82 93 85 50 52 91 85 112 101 87 73 54 80 100 79 88 102 136 169 190 198 193 183 166 174 192 194 193 200 200 230 241 244 244 257 307 339 384 359 485 453
107 180 172 71 131 123 60 100 155 152 152 139 142 127 156 142 137 152 150 172 199 228 252 266 265 252 206 179 149 174 192 204 218 215 206 235 273 322 332 359 415 375 440 289
107 133 175 139 217 101 73 125 129 126 111 143 147 149 124 170 253 277 277 227 264 296 297 246 201 186 162 144 167 182 193 205 210 229 262 293 324 331 328 387 382 246 238 132
138 168 169 183 160 140 73 109 129 132 47 147 133 139 184 260 296 291 302 304 274 221 186 170 143 129 135 158 164 207 213 203 221 260 291 303 311 279 258 239 147 125 88 90
166 157 148 173 153 88 89 109 154 155 43 174 137 158 234 245 215 196 184 179 185 178 155 135 131 154 205 200 187 211 200 220 241 228 232 221 207 179 177 143 104 97 107 100
229 230 184 245 182 149 124 160 195 151 145 73 128 182 227 186 116 186 172 184 176 145 137 151 200 256 245 207 212 249 250 253 213 200 202 212 207 209 169 138 128 120 112 103
210 256 248 278 255 155 212 299 239 186 148 123 140 181 227 184 194 241 198 188 161 170 183 222 293 300 256 228 235 244 247 191 198 211 228 225 191 151 130 135 123 118 119 112
152 189 258 228 235 234 152 162 230 185 167 109 181 236 262 230 211 212 208 195 180 200 245 257 298 324 306 277 241 256 204 189 194 211 202 179 159 141 129 130 129 119 121 120
103 125 200 223 165 162 157 184 190 174 146 110 180 283 242 226 218 237 241 233 245 247 269 270 302 317 318 296 300 266 224 199 202 194 177 156 147 135 132 117 118 117 117 114
146 203 206 214 165 171 125 153 198 186 164 178 219 242 225 290 261 277 274 266 281 298 292 286 309 335 337 337 338 287 236 187 187 179 165 148 125 125 116 109 104 94 97 101
234 216 263 195 178 215 154 209 247 209 170 197 295 295 239 269 318 300 314 310 322 327 312 334 334 342 315 318 309 268 220 194 175 167 141 124 107 102 96 94 89 96 70 56

GFSCGP_con_3kmhel_057.txt.gz
Helicity
33 8 9 -7 7 -48 -58 15 -24 124 10 -33 -2 -7 67 39 57 50 79 60 76 85 61 63 12 21 26 54 55 41 28 17 11 -12 -22 -35 -48 -56 -52 -48 -35 -1 0 1
14 21 -32 16 3 -6 -6 -14 -19 32 60 6 -3 13 59 67 50 51 73 74 28 84 71 54 45 39 42 66 67 51 49 42 14 -8 -21 -28 -28 -16 -15 -20 -6 21 55 85
1 7 36 39 31 10 6 -30 -24 0 13 33 22 40 83 33 46 58 52 70 95 78 85 55 44 46 44 40 43 42 36 44 21 1 0 -9 -23 -14 20 21 34 28 41 145
4 -11 49 27 2 -3 -9 34 -8 29 3 2 84 5 14 32 40 59 49 37 80 64 78 80 58 59 58 51 43 24 12 12 20 -1 -30 11 16 20 29 38 63 88 130 138
19 14 59 2 -10 1 -43 25 18 -6 12 32 49 -4 69 -5 24 59 48 50 32 79 56 67 81 74 74 51 48 28 12 7 5 22 7 17 23 18 33 58 88 116 99 125
-15 39 14 -2 32 -1 -24 10 2 -5 -5 -8 7 29 71 -13 -9 39 38 43 38 35 79 64 56 47 48 43 40 40 30 28 20 40 76 33 64 46 51 74 188 140 162 146
19 61 24 9 24 40 14 1 -4 21 15 9 35 41 22 48 35 24 20 20 50 23 57 72 72 61 35 46 63 49 47 46 61 73 83 89 51 65 53 68 165 125 138 185
54 54 42 64 -14 9 60 -18 6 -10 18 30 46 15 12 93 79 18 2 36 55 35 44 56 58 72 54 56 65 58 54 45 53 77 52 58 36 36 74 78 89 121 185 208
56 9 47 33 33 -10 -24 27 -9 -38 17 51 20 14 57 49 49 25 18 15 42 28 35 60 59 55 61 48 72 74 47 46 53 83 94 150 61 77 107 101 144 208 202 253
35 30 62 77 24 -1 -54 -6 8 -12 13 14 10 26 71 30 38 54 24 43 37 43 45 41 20 61 46 57 55 71 53 53 81 104 116 133 133 150 125 145 198 235 197 209
-3 39 115 116 71 37 37 1 -9 1 -32 29 47 22 95 47 27 28 35 38 46 44 41 40 39 40 42 43 70 88 52 55 83 62 164 172 182 133 111 169 156 180 222 185
6 49 76 51 7 -10 26 17 24 -1 22 -3 30 46 5 12 32 46 36 48 69 51 42 42 44 62 93 120 124 120 87 68 73 99 175 192 193 258 264 231 237 268 208 218
27 75 70 28 90 59 22 -16 7 7 -37 26 51 16 22 33 55 37 29 21 53 52 59 58 60 62 74 80 84 104 112 123 137 160 366 312 270 240 225 236 241 245 236 237
45 83 59 58 23 41 37 -15 -3 -5 33 -5 -29 21 10 24 18 23 53 41 37 68 72 66 95 94 98 93 105 147 233 289 299 317 270 249 236 239 244 256 256 245 244 278
52 58 27 17 13 9 18 63 16 -15 7 -3 0 -3 19 15 14 19 52 89 42 70 76 81 82 123 147 170 212 209 249 264 265 262 260 251 229 234 251 268 257 242 266 240
60 73 33 24 29 27 30 3 -5 -1 14 -27 -7 -2 32 28 34 64 76 73 59 62 81 114 128 198 255 238 254 238 226 258 268 256 254 258 247 248 250 243 238 226 222 203
91 93 46 69 40 18 65 -6 -3 -15 -26 -5 -8 -20 6 29 27 45 23 88 89 125 117 122 177 256 286 301 261 259 244 237 237 234 203 207 229 246 233 210 224 223 209 162
148 124 111 103 124 108 64 15 12 11 -20 -7 -3 -11 22 27 32 116 124 132 169 191 187 161 206 223 239 265 271 234 217 199 181 193 212 230 246 237 234 226 206 178 143 131
163 161 132 140 83 85 33 66 49 11 13 7 -12 2 14 50 133 141 163 177 202 203 185 204 208 244 257 250 225 202 191 185 199 224 243 247 210 182 194 198 192 161 129 106
254 153 116 156 102 81 35 41 30 9 31 10 15 18 65 115 76 48 184 187 254 257 268 279 265 267 253 204 175 184 192 215 235 235 207 164 168 188 190 165 153 132 142 148
182 165 143 129 138 107 58 33 33 91 1 1 46 64 78 76 38 201 213 211 200 242 251 259 241 218 186 168 177 210 225 226 188 171 182 179 185 199 191 179 165 161 160 149
94 175 187 130 119 94 125 139 90 61 -23 29 40 38 67 114 224 232 211 194 243 271 248 216 210 194 186 180 208 220 215 196 187 171 180 209 227 214 198 189 176 156 155 164
70 118 115 129 123 135 79 65 41 0 31 53 45 52 97 214 206 219 232 241 259 264 236 200 197 199 197 202 215 245 236 218 221 225 224 223 224 209 191 181 187 183 177 175
112 114 71 88 70 85 72 57 71 82 33 43 86 78 127 172 209 229 252 238 258 257 244 218 214 219 240 250 271 273 264 245 249 253 232 233 225 220 198 183 194 200 186 171
88 61 84 68 61 68 108 67 74 48 53 67 88 95 135 184 207 241 233 242 257 271 262 239 237 267 291 322 323 301 285 272 273 267 266 287 270 241 213 225 225 195 192 181
63 64 81 66 49 56 58 53 125 101 31 40 65 93 156 194 216 244 249 252 285 300 293 281 310 324 345 344 357 345 310 294 281 315 330 306 265 236 208 196 155 177 183 155

GFSCGP_con_3kmhel_060.txt.gz
Helicity
45 32 18 -4 27 59 -9 -46 -26 132 65 72 20 -10 89 93 40 70 185 140 134 117 174 38 153 41 38 -4 -39 -34 -59 -83 -108 -87 -44 -58 -50 -72 -83 -79 -55 -21 -16 -5
36 56 -22 -15 -12 34 -5 -36 -24 57 64 55 2 -11 32 174 22 71 127 154 122 116 204 70 131 157 136 72 20 12 -44 -37 -29 -12 -18 -28 -16 -30 -38 -54 -33 42 50 3
34 16 68 -13 5 15 -5 -12 -48 -55 51 40 17 18 32 63 23 65 95 157 91 148 239 126 117 101 178 131 68 56 43 12 -14 -40 10 -19 -27 -21 -5 2 -7 62 93 82
9 -17 28 16 8 -9 -19 5 12 -10 -19 -18 65 21 65 46 42 75 94 133 207 124 162 188 119 84 104 169 126 93 73 26 -4 -52 40 44 42 50 74 61 58 130 149 121
12 -12 -32 32 5 -1 -18 18 11 -43 -38 -37 -6 72 24 54 10 33 91 33 193 164 125 175 174 147 90 110 162 103 48 46 60 19 -59 11 64 75 48 71 117 270 233 147
-19 8 5 -2 23 -0 -27 22 19 -8 -27 -28 -18 88 40 90 -16 27 136 60 99 185 196 173 138 99 112 102 123 103 49 43 43 94 21 13 70 117 90 108 138 263 267 191
-7 -65 16 9 -4 69 14 6 -5 21 -40 57 19 3 98 134 36 4 11 59 100 162 203 189 186 137 124 153 169 134 87 56 28 5 102 123 76 93 92 55 151 212 255 207
97 47 -41 60 5 30 22 6 -6 24 32 -91 98 41 17 41 29 6 57 8 72 75 173 204 215 208 129 150 179 164 149 108 49 37 69 123 109 145 136 142 2 185 209 175
93 3 11 46 64 -37 -34 59 -19 -21 72 -0 10 -33 52 90 74 73 27 23 11 16 64 179 165 244 249 185 178 178 135 104 59 77 159 191 124 64 127 134 76 162 176 354
-3 52 -33 95 45 47 -16 -76 29 3 19 23 -8 -7 110 51 50 65 23 54 66 57 12 9 118 193 246 244 204 184 155 75 81 84 232 283 257 111 111 128 188 250 352 374
-74 -54 -6 40 108 42 50 -8 2 -10 25 33 4 29 275 84 40 20 51 53 53 63 57 58 41 79 194 228 228 239 170 96 91 131 278 331 250 191 212 199 236 260 311 336
-102 25 10 80 60 57 -40 53 10 43 76 -2 29 6 -16 16 -27 61 35 56 64 68 53 56 29 39 80 175 207 271 265 177 99 158 226 227 314 237 200 275 298 286 301 287
1 16 57 38 9 54 11 42 -11 -26 26 5 80 -30 31 51 34 70 100 45 128 48 73 76 62 40 61 146 154 192 190 192 211 214 321 435 365 387 362 318 318 326 325 303
152 89 109 139 36 34 33 38 34 22 48 94 68 -11 3 6 35 22 39 75 50 96 101 89 71 74 89 112 194 251 341 347 344 425 474 368 384 339 308 300 302 298 309 325
174 135 34 27 4 21 45 28 19 -46 117 126 -1 3 5 17 117 34 98 129 78 51 91 93 175 156 161 199 330 395 455 430 375 371 387 328 300 288 301 319 324 321 327 311
167 142 52 46 42 25 50 7 52 20 -27 8 20 34 10 30 47 21 74 83 104 72 73 93 143 258 219 325 320 343 351 338 320 333 299 273 286 274 283 275 284 284 260 253
111 156 71 77 69 49 55 33 13 42 28 25 25 9 44 31 40 71 41 88 115 124 170 114 123 230 395 380 305 305 332 311 324 326 287 248 282 297 247 220 214 241 265 245
337 145 97 135 119 33 43 53 54 56 46 42 38 39 21 20 37 93 125 94 165 246 212 178 260 348 369 436 401 268 254 281 254 261 271 286 243 233 266 294 301 268 247 234
391 244 222 219 144 122 89 65 72 76 38 13 26 14 21 35 136 116 125 142 190 310 329 305 411 402 373 402 358 262 239 255 280 256 225 223 273 284 275 273 282 270 217 169
146 406 123 225 249 136 101 108 28 52 63 31 34 33 46 82 114 127 123 155 307 353 277 306 353 360 319 292 313 269 250 218 204 214 251 222 219 259 280 246 193 170 165 226
83 124 300 249 233 141 117 66 29 54 -0 11 37 35 25 87 127 180 166 219 270 280 293 339 333 305 286 282 264 246 234 243 256 240 242 276 253 236 216 253 216 225 276 306
53 81 111 179 189 113 113 24 53 65 2 83 45 55 56 122 181 209 246 263 290 302 310 314 317 306 266 256 245 271 264 239 279 320 302 251 234 221 233 256 277 301 284 279
37 90 92 97 145 94 48 53 104 66 77 42 58 35 66 195 208 243 236 230 279 293 310 271 325 320 282 250 285 245 261 337 331 301 290 264 234 248 265 296 276 296 273 270
72 54 41 39 61 92 104 137 89 65 69 129 121 107 78 221 259 246 226 242 316 337 243 324 333 324 314 284 249 332 352 331 339 330 287 256 292 302 342 314 291 296 286 250
59 87 55 42 32 32 -0 1 60 54 60 82 42 83 82 186 229 260 246 294 307 304 309 329 336 317 330 328 413 389 371 349 358 362 348 341 320 325 392 400 338 285 268 253
107 104 110 62 37 42 25 21 35 36 37 42 94 114 59 171 255 250 262 294 308 312 368 386 345 359 398 462 442 396 381 380 435 437 435 384 395 358 322 289 297 293 184 182

GFSCGP_con_3kmhel_063.txt.gz
Helicity
60 81 57 49 37 14 66 38 -9 -2 77 126 86 81 179 163 126 124 11 111 191 248 110 100 60 36 33 8 -1 3 1 0 -21 -76 -123 -147 -182 -234 -189 -151 -91 -47 -56 -21
83 120 41 -1 -21 -10 59 19 11 -21 120 66 3 41 185 191 40 9 82 239 190 175 209 112 59 50 18 12 14 4 -22 -42 -82 -83 -117 -126 -114 -153 -167 -112 -73 -32 13 27
146 72 71 -7 -20 8 11 -26 11 -4 36 17 45 -13 179 40 -38 93 175 215 186 342 291 187 123 102 85 2 -21 -22 -42 -67 -119 -92 -77 -72 -71 -79 -59 -69 -70 -19 51 57
106 50 -35 -2 48 13 -28 1 -7 -36 41 15 35 10 41 72 36 99 212 232 222 332 300 255 214 165 146 43 5 1 -32 -40 -50 -21 -21 -20 -1 8 -6 -4 7 32 81 110
145 44 38 -11 -13 59 12 -31 48 20 0 18 -92 14 4 4 46 152 226 184 188 293 371 319 312 253 141 144 96 60 22 6 -1 -5 -12 -13 7 46 49 52 61 72 117 139
18 10 -46 -16 -14 50 9 -8 24 43 27 -40 -32 -40 -59 29 58 74 138 262 242 228 328 282 235 246 172 134 120 109 117 44 7 -2 -26 -49 73 77 82 88 82 104 166 186
17 -75 -60 -6 16 40 78 58 22 59 25 0 -39 -110 -72 166 120 155 184 279 219 120 240 274 222 201 211 206 180 142 131 107 30 -22 -25 -15 48 129 148 169 198 249 243 228
124 36 -58 -8 29 51 80 79 97 59 33 -6 -44 -11 -9 18 29 -21 77 116 203 172 198 313 328 257 234 225 233 203 163 127 90 41 3 -8 48 48 164 233 150 273 278 263
188 69 43 -39 45 74 10 59 24 37 74 3 -27 29 18 -31 1 30 17 32 202 217 218 267 319 323 252 221 256 296 206 151 112 90 75 66 60 69 225 294 302 248 221 206
131 126 -7 15 37 50 -15 46 37 51 78 22 -9 15 13 144 54 50 102 105 79 150 227 266 312 303 288 307 302 281 265 238 175 119 79 75 151 129 188 333 263 169 143 154
22 81 76 19 46 23 87 -15 31 44 69 76 30 9 4 92 62 35 63 82 84 55 83 93 291 328 299 316 364 344 286 229 210 181 135 85 100 146 356 288 140 74 118 277
100 90 71 30 73 66 107 134 51 126 35 64 113 17 11 50 13 7 44 58 108 146 63 25 112 140 213 297 358 395 336 278 264 216 167 251 389 202 287 142 232 317 284 289
167 97 142 98 60 39 123 102 104 57 104 38 90 59 37 2 2 -11 73 122 173 167 147 80 57 111 118 220 304 339 386 279 212 17 265 348 433 311 378 460 365 295 299 302
206 194 119 98 175 131 126 66 38 84 65 53 81 38 31 -28 -36 44 92 101 118 124 159 118 75 76 132 286 354 401 345 177 114 97 389 440 462 381 358 368 336 323 290 298
123 140 134 159 4 70 17 58 28 61 80 127 13 21 41 41 -6 100 97 57 130 113 165 209 145 116 167 254 340 479 585 543 426 433 410 392 388 367 351 325 321 317 302 303
132 193 151 122 140 65 85 -1 23 49 31 115 125 32 43 28 65 94 130 128 194 165 166 185 222 347 300 280 338 412 436 377 342 346 359 365 356 336 315 315 320 332 344 342
219 163 217 141 122 101 73 10 4 6 23 111 129 102 63 43 75 77 75 141 138 129 177 188 293 419 400 367 386 358 335 331 345 375 347 355 378 358 335 350 360 341 344 340
182 202 245 251 249 149 154 -29 93 53 3 36 50 62 76 72 54 96 122 126 136 196 254 332 409 503 498 481 444 369 345 339 320 328 343 359 353 354 342 350 338 353 321 288
273 194 236 271 260 207 117 154 103 61 14 42 26 45 52 55 148 216 211 209 238 250 306 356 498 633 618 591 560 470 406 352 369 405 376 360 383 381 350 315 302 272 241 205
21 309 311 338 241 125 68 131 124 85 83 112 111 89 89 97 166 142 173 134 216 301 362 442 492 590 563 501 501 454 351 420 413 375 379 349 310 304 300 290 243 209 184 214
27 249 336 348 254 204 151 60 47 150 94 34 49 54 41 31 96 150 249 202 201 276 354 430 476 492 487 481 449 378 366 347 335 347 323 308 314 300 269 245 220 255 363 428
26 33 35 42 112 130 118 183 190 173 83 14 33 -2 77 42 93 128 149 174 173 238 327 414 480 467 471 460 419 369 330 338 368 332 317 318 312 309 275 316 391 408 419 372
113 87 -11 -37 -23 4 123 145 97 326 263 34 98 138 8 73 142 124 162 230 267 335 392 434 460 450 434 402 358 378 391 404 416 386 368 376 389 408 408 432 407 409 364 340
155 128 107 93 66 42 55 27 56 102 179 182 44 96 70 61 103 127 268 276 315 361 386 431 452 445 431 416 425 420 420 426 416 411 422 475 511 469 428 440 407 379 357 382
186 180 151 132 95 35 50 63 96 71 81 174 127 66 60 41 102 189 234 269 343 397 410 432 468 471 474 487 482 465 457 460 481 490 504 514 558 602 594 512 403 424 450 365
94 104 143 49 -1 60 22 2 6 -20 -16 68 3 20 11 60 134 214 288 296 365 388 400 457 509 518 549 599 612 561 518 515 511 547 545 572 576 550 546 507 526 509 406 352

GFSCGP_con_3kmhel_066.txt.gz
Helicity
145 112 176 119 83 33 -49 -16 41 58 89 130 62 142 100 168 143 148 85 119 182 105 78 76 74 73 63 33 53 76 69 71 119 148 61 -11 -39 58 96 180 95 51 -14 -54
168 80 108 75 21 -16 -11 -3 19 30 59 63 39 66 51 207 122 174 109 82 220 143 151 81 69 62 65 50 22 10 20 41 28 12 -91 -83 -45 -98 -93 -53 -82 -88 -60 -69
177 89 78 79 15 17 -22 14 42 79 20 48 66 2 69 75 148 85 54 63 221 262 222 120 96 75 65 39 12 -13 -7 -7 -11 -27 -39 -47 -42 -133 -242 -242 -256 -157 -81 -73
164 -12 19 89 50 46 -5 21 18 34 67 42 23 -71 12 51 73 118 51 128 190 248 246 153 124 102 70 37 13 -18 -20 -23 -51 -58 -55 -54 -95 -129 -250 -228 -198 -143 -89 -47
254 76 56 57 46 29 8 29 3 21 15 72 32 42 -57 66 28 97 135 140 175 258 299 270 171 133 83 67 31 -9 -30 -53 -55 -59 -70 -73 -67 -95 -151 -172 -129 -98 -80 -27
106 41 80 65 39 62 51 53 59 53 54 1 42 21 -154 -48 67 135 249 156 242 276 273 249 219 109 75 82 48 13 -1 -54 -56 -31 -12 9 -20 -78 -82 -86 -60 -53 -31 25
104 43 50 49 57 35 41 71 62 63 50 9 30 -25 -33 -28 24 156 339 255 229 282 293 264 241 198 133 142 109 62 37 -12 -13 15 25 7 -28 -52 -55 -12 18 24 34 73
175 115 15 68 102 139 131 123 98 71 25 -47 17 -19 -49 -11 19 48 255 231 280 281 282 341 355 290 224 235 220 163 137 70 52 52 23 -8 -33 -72 -49 -21 43 74 84 78
119 116 72 71 100 135 140 124 115 122 124 29 -66 -26 -2 -33 18 46 52 91 211 293 298 285 340 352 324 268 298 270 245 188 134 110 60 27 -12 -13 -26 23 80 128 181 184
131 93 62 17 110 91 116 117 140 182 100 20 -15 -74 21 1 11 45 37 64 68 165 198 222 288 343 352 326 303 297 295 280 247 188 129 88 52 27 35 102 195 260 270 185
143 118 84 72 75 147 178 113 131 115 163 72 31 10 12 8 35 52 74 45 59 107 156 206 238 267 344 337 290 314 303 256 245 201 169 148 108 118 180 260 257 241 308 88
85 86 115 16 117 79 105 104 121 144 179 173 114 -19 13 24 -7 35 37 51 44 60 92 125 191 263 311 297 294 308 331 269 199 147 104 172 311 288 287 333 278 124 55 -71
43 97 165 88 14 73 120 117 86 166 164 101 121 27 30 62 -22 6 40 15 68 111 144 92 67 122 250 282 297 291 370 397 323 228 241 294 303 214 76 249 214 120 219 183
17 79 70 154 111 95 137 84 72 134 227 144 121 93 92 44 43 31 48 37 42 136 174 170 176 133 136 197 236 367 421 460 448 328 286 272 317 197 40 214 260 215 267 305
-11 65 39 46 128 99 112 114 106 131 175 164 135 119 72 84 62 48 24 69 128 125 137 150 248 201 191 201 270 365 454 409 382 260 274 241 248 216 340 413 347 358 315 307
106 82 95 81 91 80 67 86 69 100 100 104 96 48 99 68 98 64 22 2 56 94 152 200 274 283 255 216 265 451 460 418 405 355 331 365 354 372 411 415 409 401 363 378
46 111 181 71 121 48 118 90 90 112 116 103 106 74 34 62 45 57 60 59 100 133 161 195 278 316 306 301 344 371 440 492 424 394 388 409 424 437 422 421 409 386 400 413
-58 19 71 39 119 172 -19 104 59 67 85 56 87 61 93 68 39 14 115 150 83 159 188 236 259 349 383 450 477 490 474 477 422 372 383 396 425 446 440 419 400 388 385 358
-15 67 26 53 124 203 101 147 109 127 99 87 94 79 88 51 86 70 80 120 120 180 207 281 284 491 548 569 544 518 463 455 425 386 398 404 448 451 415 381 369 362 382 411
46 150 46 45 119 235 179 146 109 161 151 134 92 122 56 88 107 100 85 146 208 236 261 290 360 490 555 510 519 523 469 459 435 427 373 436 441 392 376 385 360 348 381 424
-23 -46 -55 -35 75 156 217 224 129 137 121 206 77 282 140 41 59 73 176 195 209 227 247 292 302 338 420 507 536 488 435 408 400 405 383 397 387 390 349 314 320 379 437 435
-51 -109 -53 11 10 382 192 162 179 162 199 146 156 319 154 34 48 82 137 186 178 173 184 209 287 322 389 433 482 454 394 416 419 382 381 374 351 324 287 320 375 392 386 396
32 -5 -15 -29 43 -48 36 19 96 214 205 169 219 248 160 89 46 93 109 158 150 178 201 252 314 360 354 366 366 376 369 389 403 397 387 383 369 331 329 335 358 418 424 433
96 101 74 61 27 -24 -53 18 65 50 93 16 87 247 185 192 76 71 178 178 185 215 219 297 345 365 364 375 385 366 357 382 405 413 413 396 384 427 455 447 408 390 401 430
85 60 56 113 155 128 114 97 74 23 76 47 65 132 288 211 182 66 107 157 228 269 293 297 348 354 385 433 420 392 394 427 441 455 469 500 528 533 559 590 491 457 427 370
-1 38 72 71 68 115 129 203 161 101 40 12 39 150 74 164 54 70 127 214 289 336 380 348 373 437 459 454 466 469 449 464 482 503 503 521 567 577 584 593 630 596 497 463

GFSCGP_con_3kmhel_069.txt.gz
Helicity
204 194 197 205 196 165 97 95 56 15 62 56 137 58 58 57 122 102 151 135 93 100 82 101 112 115 102 104 110 97 53 64 117 131 184 198 349 347 280 262 173 120 54 66
220 106 138 161 126 99 83 105 27 -28 51 84 13 18 13 96 107 161 145 176 120 106 135 104 92 116 122 128 97 42 50 102 21 54 69 139 138 161 214 223 133 179 179 179
238 132 97 182 137 100 89 120 74 67 61 104 48 16 -3 3 70 37 75 114 93 132 147 155 122 96 96 86 86 21 -7 20 60 50 9 -43 -29 18 -93 -11 -52 103 151 10
164 27 157 115 90 151 40 93 64 56 104 114 58 66 12 -22 1 30 55 93 126 81 100 161 163 136 123 83 50 31 5 -7 1 -9 -17 -83 -96 -49 -31 -60 -56 -4 4 -75
222 100 105 113 49 174 47 76 95 74 89 124 99 121 2 -34 -55 45 78 102 107 101 142 136 182 168 98 105 80 39 33 11 -19 -21 -42 -50 -69 -88 -80 -113 -191 -162 -135 -144
113 82 96 113 56 142 39 93 112 115 158 43 51 94 24 74 -11 -50 108 153 120 157 147 122 100 122 125 81 88 64 49 19 -8 -27 -31 -29 -34 -63 -80 -137 -223 -254 -231 -151
149 57 102 84 96 123 165 151 143 143 214 67 37 73 36 71 43 20 56 164 182 157 175 148 148 151 158 167 120 96 80 44 19 -12 -29 -26 -30 -19 -45 -97 -182 -201 -190 -189
181 101 71 110 122 138 180 192 197 112 112 31 84 25 22 28 40 5 -1 125 167 191 178 205 212 211 197 189 183 155 135 75 64 37 -10 -30 -36 -32 -27 -50 -72 -127 -115 -93
85 114 87 118 160 131 97 187 121 160 138 50 35 52 37 -24 -40 -48 -25 22 93 155 189 191 206 220 261 261 239 224 175 131 116 107 63 30 5 28 9 -62 -66 -62 -36 16
148 90 69 73 93 131 120 126 170 236 160 68 34 56 44 19 -8 -23 44 63 70 88 138 168 188 195 249 265 277 261 211 160 121 106 94 64 49 25 13 -48 -5 34 39 48
135 125 99 48 112 129 194 113 152 150 209 135 34 6 27 44 83 6 25 63 108 138 164 216 245 225 265 253 302 332 281 240 172 162 149 111 65 48 63 38 95 168 187 177
103 89 129 41 47 43 110 133 175 186 213 209 185 36 52 22 122 55 50 69 86 91 187 238 247 282 303 308 340 368 353 308 297 256 267 201 148 112 76 75 203 278 261 200
263 249 123 107 83 49 102 120 143 186 190 150 138 66 40 42 63 55 37 54 54 45 6 109 135 224 269 301 323 371 406 389 391 256 214 149 220 195 194 252 218 227 245 111
162 163 209 174 80 79 99 106 129 150 156 165 130 116 105 109 27 48 26 61 61 31 68 86 163 172 186 240 277 361 375 435 478 399 318 141 55 162 242 358 194 224 277 215
102 144 118 113 136 47 95 102 117 138 176 156 52 137 67 95 72 67 52 40 61 56 100 112 109 158 173 187 196 259 327 424 439 401 333 224 134 230 348 330 175 188 237 198
30 58 47 36 85 59 74 126 78 107 129 115 145 115 109 65 92 94 76 70 46 96 72 159 182 208 183 155 170 230 315 410 462 426 356 301 338 309 327 323 285 242 278 288
13 -2 55 19 186 189 127 37 84 87 101 121 148 107 63 63 62 106 70 88 79 97 78 148 236 269 224 193 180 219 325 397 421 432 439 381 336 276 277 283 292 316 331 394
71 68 -4 -54 60 39 105 63 63 100 125 102 119 85 65 39 46 97 102 61 68 96 114 82 256 257 264 286 264 325 386 406 459 439 428 420 359 319 338 341 348 414 423 428
121 51 -33 -96 -188 -47 182 88 29 97 44 129 168 134 123 89 20 40 59 78 76 99 120 139 199 326 411 366 333 344 396 412 418 385 396 361 351 357 375 420 423 431 465 476
152 127 55 -28 -80 -207 -111 34 113 -48 58 81 110 86 180 147 73 63 77 55 35 88 174 230 289 371 386 364 359 379 394 381 367 353 348 337 309 292 334 414 432 420 419 467
161 158 102 46 -26 -44 -79 -7 11 124 102 135 170 216 199 132 107 96 51 36 75 105 171 270 285 277 297 358 381 372 396 390 415 389 326 324 328 348 392 444 438 447 494 510
121 89 112 111 34 -90 -58 126 69 105 192 172 235 298 201 97 146 92 101 56 73 162 188 174 209 228 230 290 365 396 376 410 381 363 367 375 387 393 408 461 474 458 468 506
162 155 151 72 -12 43 21 -6 -191 61 126 222 353 262 288 280 97 156 150 117 74 110 183 178 189 222 227 259 293 335 345 375 370 352 360 376 383 394 399 427 431 447 438 447
143 148 125 127 53 29 168 74 55 -35 -59 83 51 166 261 198 237 236 147 38 15 75 112 174 212 220 242 249 277 279 322 355 391 402 405 428 466 487 461 407 390 408 416 451
89 82 66 42 52 34 32 17 -2 38 -9 17 43 68 170 149 166 163 267 201 127 110 137 184 218 223 228 266 269 275 312 351 374 381 411 450 464 480 514 514 427 421 407 368
203 106 52 41 32 13 48 92 40 60 14 19 7 22 3 82 74 105 226 288 136 153 191 211 219 250 283 294 276 255 251 290 355 391 395 405 434 452 468 526 608 601 477 442

GFSCGP_con_3kmhel_072.txt.gz
Helicity
235 286 147 267 234 195 121 106 99 74 51 68 26 1 71 25 82 103 110 149 127 102 119 153 115 82 55 99 128 61 65 79 106 156 179 133 121 130 102 51 84 169 108 125
309 221 153 124 137 153 134 101 77 29 46 89 37 -25 -5 3 35 149 137 147 120 157 150 171 135 81 79 89 89 81 46 27 47 95 117 157 229 271 282 229 182 228 189 108
226 176 133 175 152 129 138 125 128 87 116 78 125 112 27 -27 12 22 63 96 128 180 186 182 168 95 98 87 103 112 79 66 51 44 188 245 207 343 441 274 288 297 200 122
137 86 128 160 134 196 112 144 98 97 152 112 104 -33 84 -32 -71 -13 30 66 119 151 163 193 167 104 101 79 78 67 61 78 51 102 124 68 60 125 139 150 255 150 52 83
180 127 124 173 87 141 75 106 92 126 168 133 106 128 66 61 -22 -39 -12 74 116 163 188 205 201 119 89 79 81 74 52 34 38 97 96 56 83 -7 -38 70 55 -51 -84 -40
106 89 74 107 83 119 82 82 106 173 172 125 134 178 60 72 61 35 -71 -27 116 175 174 152 168 172 124 89 75 66 61 26 4 26 -7 -15 -16 -14 -32 -41 -29 -98 -118 -84
152 98 113 112 124 120 162 179 195 190 180 172 116 165 125 64 39 61 72 14 14 124 226 205 215 191 194 166 131 97 82 48 16 -10 -28 -52 -80 -95 -66 -41 -55 -104 -141 -151
179 100 120 154 120 143 135 201 247 163 163 119 149 107 64 25 -12 18 49 36 2 64 154 199 221 207 214 217 219 193 134 90 62 14 -54 -73 -81 -106 -143 -183 -163 -168 -174 -99
60 93 94 88 200 135 180 204 157 142 71 62 82 132 84 62 20 15 23 17 9 64 84 156 171 216 217 239 256 250 206 138 137 80 41 -29 -57 -60 -100 -128 -170 -188 -181 -176
136 113 66 81 137 175 159 106 175 255 148 94 112 104 99 36 99 55 38 47 13 43 48 93 118 171 193 225 272 273 244 200 194 191 146 111 59 30 10 -4 -24 -43 -39 -18
103 150 136 93 125 125 177 149 181 150 177 113 72 59 47 4 49 86 58 29 5 4 34 102 151 164 194 225 268 289 281 244 227 206 214 196 164 130 95 65 42 37 27 43
217 148 116 39 84 82 153 143 148 153 160 137 125 128 138 72 19 53 71 36 27 35 37 63 126 202 223 245 275 308 316 310 274 283 298 252 227 208 157 176 139 171 119 130
276 244 138 153 150 103 62 37 128 140 165 41 102 132 88 59 37 29 27 53 32 55 42 60 93 141 197 248 306 311 311 328 326 294 238 218 189 173 158 314 124 164 183 172
49 229 172 138 203 202 196 218 113 134 131 106 60 79 133 108 56 40 37 39 24 61 61 79 95 118 138 174 227 271 290 313 305 317 260 206 200 170 204 271 228 206 257 217
47 123 198 169 148 156 152 195 198 187 172 99 12 8 64 51 51 90 44 49 56 50 77 74 86 134 135 141 165 185 237 284 301 303 282 262 223 130 126 188 226 249 240 184
67 46 75 123 156 175 149 96 61 112 103 146 110 32 88 63 54 52 68 34 46 62 53 59 39 82 165 187 178 190 205 238 278 265 243 220 194 157 126 169 211 216 241 228
232 64 -9 52 58 85 134 33 55 82 89 78 70 78 88 96 87 83 64 58 69 84 101 88 111 102 134 195 226 192 198 243 250 231 199 198 207 182 158 132 201 236 268 317
209 169 138 5 14 62 45 29 29 21 140 109 77 71 83 90 84 105 67 77 51 89 72 111 71 67 138 270 246 205 226 256 273 237 194 184 215 228 298 301 281 316 350 318
124 220 159 15 69 5 -38 14 8 40 89 124 77 71 107 115 77 96 56 46 23 111 106 81 75 97 157 283 332 304 259 274 264 272 281 237 266 311 350 315 304 310 334 323
135 220 193 106 -7 -85 -76 48 70 14 84 12 0 75 82 151 138 90 115 69 41 44 52 73 53 118 249 283 357 331 265 267 268 321 303 316 357 323 273 287 310 310 311 381
106 125 84 128 101 50 13 -25 -3 -13 -14 102 142 124 159 63 77 124 120 65 69 13 1 4 44 136 188 248 316 303 258 218 291 332 348 291 250 252 256 295 303 349 443 502
86 81 98 96 78 44 -9 -2 1 26 21 87 139 121 250 194 144 150 150 109 91 72 60 -11 39 113 170 170 189 233 237 302 303 292 277 263 259 291 335 398 397 423 462 489
92 124 84 100 88 95 68 65 52 64 -8 -17 74 166 177 200 176 71 59 166 113 73 67 121 84 154 155 154 163 182 230 246 282 292 299 335 361 355 351 380 428 451 417 471
110 99 107 78 24 18 2 -41 -15 24 104 12 -30 89 3 79 34 53 103 66 79 99 92 134 179 164 162 124 155 168 207 236 247 278 315 343 368 400 394 401 375 388 389 405
90 109 109 77 59 30 36 34 -42 63 20 50 2 4 6 3 22 17 40 104 150 117 161 78 64 62 88 111 132 154 189 240 287 301 299 327 356 383 431 449 375 328 314 285
142 147 155 124 154 72 34 31 94 109 112 62 29 -12 54 21 -16 -40 64 71 43 -23 87 162 92 141 140 133 153 177 180 199 222 240 235 247 282 314 337 362 428 414 327 366

GFSCGP_con_3kmhel_075.txt.gz
Helicity
231 270 204 168 209 164 98 79 92 85 88 135 143 100 44 30 103 67 62 115 141 95 71 106 91 84 75 72 102 98 54 101 111 89 64 118 107 115 235 283 156 182 210 162
278 221 91 111 141 107 105 95 79 40 59 82 83 66 11 51 78 50 41 81 125 128 100 118 122 82 77 79 93 69 5 75 40 59 57 103 112 161 155 266 276 201 218 105
173 149 132 118 150 114 79 67 65 57 87 71 98 76 128 98 44 43 32 44 78 127 137 132 135 100 78 69 85 84 67 76 72 135 177 170 221 199 191 186 335 238 100 111
90 113 51 113 122 120 91 65 67 63 86 64 131 43 88 67 31 42 5 48 69 86 108 134 139 106 93 43 64 58 86 111 97 119 144 129 175 192 123 128 154 175 144 115
114 88 81 149 76 102 78 72 31 59 90 106 82 126 56 42 33 31 4 14 52 113 123 130 132 113 83 52 39 65 77 112 88 87 96 128 105 84 117 128 165 204 179 157
82 110 84 92 129 68 77 136 103 122 135 112 100 148 23 60 67 44 40 24 0 68 112 94 93 115 83 54 39 53 83 75 74 75 80 112 61 30 88 179 123 99 88 47
126 101 113 83 73 139 136 100 99 117 165 138 106 98 79 56 94 -10 25 95 41 46 102 151 124 147 108 99 74 32 58 59 76 86 65 15 -27 35 79 134 127 111 70 7
160 120 101 126 149 141 106 126 205 96 87 99 114 57 33 9 -14 -19 8 39 31 25 80 122 135 130 130 117 123 81 62 58 59 78 59 17 -25 -21 2 47 62 52 63 42
95 86 94 93 178 183 151 174 93 146 148 102 102 113 79 3 4 21 16 26 36 22 67 80 81 105 113 121 135 142 108 78 66 64 52 31 1 -16 -36 -34 -41 -43 -29 -24
156 137 91 80 107 116 119 111 159 177 124 91 107 88 58 49 10 22 48 62 55 30 36 51 47 70 84 95 117 113 122 128 107 98 77 48 42 19 -12 -43 -52 -45 -83 -92
110 179 203 122 123 102 151 169 184 163 189 145 85 109 53 -10 -44 18 82 73 78 29 27 32 9 11 74 106 129 132 123 130 136 132 123 104 98 83 54 22 2 6 -19 -7
164 110 114 167 99 76 159 132 121 151 149 167 163 125 117 53 30 11 53 43 55 24 5 30 43 62 90 114 132 170 174 160 181 181 168 130 81 117 129 116 94 92 68 74
228 186 151 154 130 143 178 181 163 188 183 105 128 181 17 40 33 4 27 41 41 70 27 34 52 64 74 92 120 143 176 199 179 173 165 145 122 61 31 18 -25 46 68 63
153 178 212 160 185 209 222 254 193 163 154 131 117 99 121 84 55 28 28 35 40 45 60 37 46 56 54 75 111 137 156 182 207 206 188 178 155 147 122 80 96 73 107 136
107 155 145 174 225 154 137 173 209 215 152 115 69 50 68 79 68 41 51 44 25 55 56 45 52 66 52 69 75 101 119 158 179 200 204 226 198 171 139 146 155 173 159 183
220 171 85 120 60 102 89 102 148 88 80 81 61 41 50 85 116 86 6 17 42 56 57 69 58 66 80 105 100 106 140 184 170 150 157 166 165 180 208 186 201 184 185 187
212 214 113 88 26 19 67 84 11 67 61 31 29 33 68 96 122 110 110 95 37 71 50 58 74 64 76 95 141 142 171 160 158 117 112 126 144 144 164 195 189 167 147 155
186 216 195 107 124 98 64 80 85 81 81 108 74 52 58 49 77 84 73 56 54 88 72 46 60 67 77 86 144 163 149 184 159 106 94 110 141 140 127 146 167 176 176 176
70 127 172 120 84 147 144 103 88 66 58 67 47 74 72 26 50 87 92 95 37 56 55 62 90 73 72 86 75 131 145 150 142 129 150 119 123 124 196 193 222 247 226 216
89 110 151 134 151 111 93 136 119 58 22 74 24 39 16 42 59 102 152 109 45 94 44 57 47 52 41 52 102 111 130 153 146 148 128 165 220 302 285 284 244 243 248 272
130 132 96 69 49 26 40 72 57 23 55 83 70 26 -2 13 26 90 115 112 76 44 89 60 28 43 33 37 39 86 139 172 188 260 274 269 264 255 274 293 287 298 314 329
57 66 82 20 12 50 13 27 67 43 41 54 161 159 102 42 54 92 141 120 150 98 75 104 69 72 71 55 84 132 152 253 276 171 191 236 268 280 281 311 335 333 342 381
57 49 55 46 35 45 50 4 4 -11 -7 37 69 96 124 81 62 124 172 156 85 70 51 14 24 64 88 85 63 178 221 217 223 190 222 253 280 286 289 297 308 333 322 349
70 51 57 37 6 13 15 -71 19 -18 -24 -17 39 42 27 46 53 123 93 73 39 3 37 41 109 119 164 215 248 264 266 224 204 198 229 245 296 341 313 278 260 292 320 343
75 78 62 44 18 -17 2 75 28 71 32 22 31 -16 25 36 63 42 54 41 48 14 -34 48 63 167 238 203 195 144 140 150 202 191 223 245 256 284 338 380 331 323 328 278
75 79 85 74 106 70 29 43 30 22 33 69 103 152 137 166 22 47 74 97 69 82 52 116 117 131 81 154 205 183 153 157 181 187 187 193 220 243 302 381 479 490 397 393

GFSCGP_con_3kmhel_078.txt.gz
Helicity
107 132 128 56 75 29 70 53 36 60 125 74 17 -27 83 62 92 60 98 63 55 70 109 122 113 92 75 76 99 134 72 29 81 59 59 139 240 187 145 162 131 34 -45 115
160 133 57 44 59 46 47 39 23 38 89 76 40 -22 56 58 70 43 39 71 55 60 127 123 122 107 73 77 87 114 20 41 12 15 11 151 147 126 139 132 81 94 30 91
100 104 51 67 65 56 38 35 30 38 69 47 -24 -22 28 65 87 62 55 48 43 62 95 110 115 105 80 81 74 86 32 26 1 -10 71 147 227 226 292 252 230 127 93 101
105 77 68 41 28 48 45 27 37 35 59 67 126 37 85 85 43 53 35 55 33 42 69 83 97 120 86 80 64 58 59 69 47 65 92 97 159 177 261 281 268 325 190 126
207 111 45 65 34 36 38 77 41 24 54 58 71 91 44 110 1 9 13 26 38 21 53 87 64 92 99 86 60 31 64 83 123 111 84 73 41 120 234 295 354 301 268 154
206 106 113 69 44 36 88 64 57 81 99 81 46 144 23 35 9 15 34 32 45 21 31 58 64 85 99 91 77 46 55 69 107 153 144 146 91 104 94 190 209 229 276 248
80 105 98 85 36 69 76 87 137 116 140 77 121 100 31 31 6 10 15 52 70 12 21 56 107 108 108 103 83 55 67 80 92 107 126 158 154 73 102 103 89 134 188 177
66 74 82 93 56 86 6 76 195 149 104 74 104 33 56 26 -4 20 32 20 9 21 15 55 93 103 78 88 78 71 55 83 93 108 108 104 103 70 42 46 71 157 162 175
42 62 37 88 44 75 108 119 68 118 138 101 101 81 43 8 13 4 -4 1 13 16 5 45 68 69 73 62 74 84 58 55 71 87 78 90 89 64 39 55 81 127 131 120
161 68 44 14 49 29 63 47 129 127 132 96 82 57 96 79 4 49 45 45 33 16 17 45 77 54 39 43 48 57 56 62 64 66 60 65 88 73 52 88 115 126 125 101
98 137 118 135 100 48 85 88 91 104 72 78 87 84 78 -15 6 7 45 52 65 45 21 41 48 39 32 34 40 38 58 72 78 69 73 69 80 99 83 111 131 120 108 105
93 141 111 65 110 71 46 38 45 117 89 65 92 87 32 54 82 19 23 52 27 39 13 25 48 45 38 37 43 69 78 80 92 107 105 101 86 96 97 86 119 140 136 133
166 69 78 86 126 111 122 106 128 94 82 86 86 114 60 65 73 69 33 32 48 29 12 9 21 47 61 75 85 88 102 108 125 113 94 98 119 128 111 77 44 46 44 49
138 165 153 126 174 248 199 212 210 204 165 99 77 74 83 89 75 51 31 94 24 45 43 33 27 29 49 56 56 71 102 130 146 146 140 116 126 160 132 99 89 79 81 70
126 147 120 164 136 119 123 145 137 102 99 109 83 79 57 42 31 51 71 83 51 28 51 31 44 29 37 45 46 52 67 92 112 128 131 145 122 93 71 67 89 119 119 104
112 133 94 116 141 121 112 102 101 94 78 50 26 13 -1 29 38 39 34 31 11 41 18 20 44 45 40 36 51 75 60 69 86 91 96 83 105 121 122 121 115 123 133 112
144 148 81 98 76 71 77 49 36 50 52 64 59 124 54 4 37 45 26 60 70 45 95 23 34 51 46 42 77 85 87 88 72 71 60 67 82 88 102 112 119 118 111 107
138 137 171 116 90 76 117 108 69 50 68 69 90 107 59 13 -11 19 31 90 73 94 100 103 44 43 39 52 64 37 72 86 94 77 77 81 72 59 66 81 92 116 126 134
56 152 183 171 79 97 117 109 84 90 110 123 77 25 29 52 -0 47 135 81 62 86 88 93 69 89 59 71 73 78 91 103 112 107 98 110 115 93 90 110 114 112 141 159
49 75 127 143 142 110 121 167 144 145 101 126 116 165 174 129 112 105 73 99 84 95 90 146 91 52 69 68 57 52 100 143 122 126 139 148 119 110 132 149 184 264 245 235
116 114 78 67 104 98 144 33 11 139 185 153 167 189 199 149 124 119 102 96 114 147 50 52 121 55 53 50 59 58 72 87 91 124 162 193 198 218 180 217 302 350 363 384
56 86 97 66 74 47 62 27 87 188 183 127 72 76 107 112 93 79 48 107 94 123 139 89 16 62 103 68 56 52 76 162 252 322 327 292 222 271 256 265 343 394 397 446
60 43 51 51 38 34 24 71 6 -3 -30 1 15 2 16 53 69 52 29 53 76 85 71 93 104 58 108 153 152 126 127 91 125 223 333 382 372 415 378 310 289 340 355 418
48 37 30 48 51 55 58 -11 -8 -16 -28 -25 -20 -5 -10 32 66 39 61 93 71 86 88 75 55 57 107 113 196 210 175 202 228 283 382 418 466 421 473 428 323 282 320 388
81 50 45 36 28 43 55 81 56 36 2 14 32 49 34 37 12 64 122 68 62 64 64 102 56 24 42 127 185 256 291 281 308 342 356 363 390 417 470 451 324 301 304 255
39 62 50 55 72 44 40 43 3 14 -1 -8 30 76 94 98 102 150 163 112 47 69 57 90 122 164 145 126 178 179 207 218 296 329 296 303 350 388 411 443 527 496 332 358

GFSCGP_con_3kmhel_081.txt.gz
Helicity
40 90 86 52 41 13 24 33 14 20 48 89 23 -21 3 19 7 63 37 29 48 58 74 128 141 137 133 124 116 158 177 104 59 68 102 147 310 307 312 405 307 167 126 29
106 103 66 40 35 30 23 40 42 32 45 89 25 -1 -4 6 25 7 18 10 65 44 76 153 126 120 124 115 111 123 109 54 39 60 95 126 226 370 384 219 135 102 153 -26
133 94 59 74 58 53 39 40 25 34 37 64 32 3 -24 -33 14 23 0 8 -18 42 65 159 106 109 133 103 107 108 110 75 56 43 142 157 211 405 284 183 205 145 183 116
137 75 13 46 54 54 32 43 21 59 77 70 -3 11 5 26 43 28 27 20 23 11 54 120 110 100 125 104 100 115 107 92 99 107 216 235 257 291 206 210 96 79 125 92
137 141 127 61 37 86 46 52 60 38 68 65 42 50 4 -9 26 29 17 18 34 53 41 72 109 89 100 117 101 106 115 92 107 181 218 190 204 216 199 150 92 63 47 22
228 74 54 159 79 56 72 72 83 96 64 80 47 51 -8 11 63 27 21 25 28 65 51 47 105 98 112 117 98 89 101 121 109 169 172 199 241 226 239 203 173 145 188 155
145 249 83 162 145 79 59 104 130 112 103 94 44 61 53 52 114 32 36 27 26 64 62 53 112 132 131 126 103 71 81 96 114 152 178 168 238 234 232 279 224 246 310 226
64 49 101 168 147 147 94 115 182 135 84 53 28 137 47 21 21 23 27 29 36 60 64 42 79 116 133 120 114 62 74 72 111 120 145 157 227 232 164 224 229 294 372 304
49 38 48 78 136 232 168 193 75 79 161 287 109 -16 60 38 18 2 33 13 10 17 63 35 45 125 120 114 111 68 66 60 81 120 114 116 143 185 193 165 219 288 298 298
15 122 32 -3 -11 21 177 109 205 190 259 200 184 97 61 36 0 11 5 17 39 36 40 38 37 99 106 103 105 75 41 37 71 76 106 100 117 108 125 134 163 184 141 153
-28 55 -2 33 29 20 64 132 76 42 85 186 174 128 61 60 67 3 61 19 28 42 36 25 39 94 110 95 112 84 65 49 71 86 73 80 98 85 69 73 102 110 134 157
-14 43 86 -4 -12 -6 8 18 33 138 106 42 101 134 -2 82 99 162 77 17 17 12 42 32 33 63 101 83 97 106 87 75 77 96 105 99 96 98 111 77 91 109 136 144
193 12 -2 17 36 53 17 25 14 22 33 55 149 133 29 40 38 80 94 64 43 21 24 25 23 30 62 68 84 90 99 86 93 105 127 135 139 139 155 128 105 115 120 128
151 88 32 59 65 69 -26 16 -3 36 63 77 77 65 43 14 42 69 97 95 107 39 33 17 31 28 32 50 68 81 93 110 114 119 146 154 166 171 175 181 153 151 143 134
156 138 113 92 99 124 135 120 115 47 34 59 62 55 27 38 63 70 60 53 48 71 31 24 26 37 40 46 61 88 96 138 148 163 175 199 208 190 166 177 154 175 176 176
135 165 104 93 81 89 76 48 37 53 61 48 29 21 9 -8 30 20 35 50 62 85 79 107 89 46 43 46 46 63 68 91 134 145 182 186 203 218 204 181 191 186 180 179
67 87 116 126 63 61 85 41 28 22 12 -9 -13 33 78 85 96 74 59 79 73 29 57 92 115 120 73 51 57 49 60 75 114 110 100 121 164 192 209 193 189 211 221 216
78 61 60 86 83 68 31 31 81 58 19 45 55 41 97 84 91 19 97 139 141 153 109 68 123 160 146 89 84 61 44 90 110 99 95 106 132 144 162 172 195 217 248 247
55 88 108 87 73 65 81 46 31 45 43 124 128 107 124 123 63 72 150 71 93 105 98 49 95 88 122 147 72 64 65 72 94 109 114 115 143 138 139 166 162 167 209 214
31 59 102 100 62 41 21 76 135 87 71 190 130 147 153 160 107 74 96 67 89 113 95 85 57 57 47 94 142 101 71 58 70 105 123 129 164 218 194 167 139 166 173 182
56 68 64 55 90 91 88 57 77 48 153 186 206 205 170 139 128 99 82 71 49 34 58 81 141 136 76 61 75 98 102 64 55 72 106 106 181 184 146 217 255 233 380 531
64 86 85 68 103 79 53 65 101 140 130 165 149 139 114 128 88 70 53 47 50 58 57 78 28 71 87 56 107 103 93 164 181 207 155 151 171 188 258 324 492 622 517 524
41 28 43 39 44 56 102 153 128 172 135 132 127 136 60 13 32 49 64 47 80 72 75 71 77 49 57 90 68 103 171 176 166 224 374 463 527 594 562 465 456 428 457 481
31 -1 30 59 14 36 46 77 91 63 23 34 17 5 -9 5 11 23 35 114 120 138 102 79 107 112 95 61 63 86 119 136 161 280 301 365 441 484 501 502 484 442 404 432
55 73 45 17 6 21 71 85 24 55 24 23 30 13 8 7 36 54 75 101 141 174 163 124 72 57 57 99 75 43 54 94 158 214 277 348 444 527 581 649 569 490 382 358
44 96 84 95 146 144 142 106 46 54 40 30 37 63 75 71 69 87 92 99 117 146 149 161 131 104 74 77 86 142 45 3 103 198 269 309 338 440 515 579 653 611 573 384

GFSCGP_con_3kmhel_084.txt.gz
Helicity
135 246 285 150 77 85 85 134 95 26 -14 -6 96 20 14 13 26 100 95 78 22 94 115 203 227 258 179 239 253 275 267 218 204 138 132 119 151 198 226 340 382 457 564 500
164 160 200 96 78 53 97 98 90 96 71 31 70 54 30 15 24 32 31 54 73 95 104 201 310 310 187 249 205 264 215 179 145 111 146 135 155 143 95 103 147 353 464 379
173 148 137 243 190 139 79 61 76 84 61 65 36 21 32 21 17 23 35 55 10 25 122 250 326 285 224 222 182 201 181 158 160 163 184 186 160 194 246 244 283 270 197 370
96 47 121 312 157 207 121 47 33 76 99 93 23 22 48 -12 37 132 71 55 8 38 67 218 304 256 235 179 174 197 178 157 184 214 200 279 289 268 208 271 181 139 164 163
91 284 67 203 132 54 139 44 65 116 108 109 61 96 37 30 62 30 85 62 79 66 28 151 264 226 214 174 197 192 157 153 176 228 235 261 270 242 259 190 129 149 44 5
17 77 143 204 66 28 12 122 61 145 139 130 70 100 24 11 5 7 54 71 59 76 119 108 256 207 171 217 215 221 169 142 163 242 268 249 304 328 332 203 182 140 71 -9
-7 58 141 120 243 128 21 94 164 161 136 108 65 67 55 37 18 32 53 48 64 76 116 149 312 252 178 236 241 228 156 153 129 226 252 264 295 365 371 293 191 174 125 70
-6 142 10 99 204 151 141 92 178 170 131 85 39 123 38 5 1 77 32 58 56 77 145 125 241 234 159 226 255 194 147 157 157 158 210 223 297 290 288 285 226 179 110 97
8 24 42 27 69 105 179 186 17 177 134 222 189 18 58 96 97 121 67 37 27 48 118 113 140 274 171 220 262 176 156 168 164 128 169 175 256 306 292 268 271 223 151 123
19 8 29 59 13 44 84 123 156 126 240 222 197 61 97 43 84 28 60 39 45 34 33 125 136 292 215 217 226 187 138 136 189 147 145 160 177 249 246 255 274 229 236 188
21 -8 28 83 48 78 118 187 224 248 281 193 261 84 134 159 92 30 90 50 63 75 79 63 104 210 228 196 226 218 148 129 176 197 162 130 146 191 216 204 239 249 265 226
1 4 38 35 103 -1 11 37 83 244 203 197 76 167 101 224 94 110 168 105 65 11 7 41 60 126 183 198 239 224 175 141 145 216 220 176 155 129 172 195 178 192 214 226
205 17 -1 33 21 8 55 32 37 46 98 52 155 137 34 28 74 39 158 40 96 98 59 3 34 51 141 188 232 194 160 152 102 203 243 243 187 181 178 180 185 181 169 177
177 48 53 23 -1 75 -12 75 59 4 107 73 19 9 140 162 94 95 24 32 72 28 56 31 20 44 42 108 168 176 158 177 140 135 219 277 260 243 199 187 175 165 202 187
131 72 111 87 -22 95 56 10 59 21 23 60 63 12 45 64 11 20 57 86 92 56 59 92 29 42 41 78 118 147 167 198 210 165 183 253 291 266 249 242 242 202 204 233
92 142 120 98 80 6 71 -26 16 -4 -8 -13 41 42 -0 -27 -13 45 99 112 117 106 106 130 179 129 93 121 142 123 172 215 238 200 198 233 293 310 297 295 311 279 239 257
24 134 165 77 128 103 29 18 27 35 43 47 37 42 60 80 137 197 156 113 104 121 162 144 149 166 152 201 199 107 124 180 234 224 191 187 226 272 311 306 289 296 286 278
24 28 86 90 134 76 32 50 51 52 -0 -14 8 35 13 81 49 90 176 133 81 105 120 81 51 151 112 137 171 261 204 151 160 186 194 190 203 222 264 308 303 284 301 305
61 26 71 75 62 65 128 55 28 86 97 60 143 159 227 167 46 165 181 138 123 55 45 74 55 90 129 184 194 172 147 157 115 165 177 187 199 169 193 232 266 279 279 280
26 60 88 91 32 23 35 43 84 39 84 69 223 66 193 198 258 198 133 81 49 44 36 -1 13 44 66 120 109 140 145 187 258 225 89 191 187 164 172 193 201 218 239 237
13 76 89 98 123 107 17 105 148 100 213 208 269 306 336 296 236 159 115 109 75 32 73 144 76 3 35 41 81 110 162 238 254 158 86 172 229 197 161 196 228 246 237 328
31 67 96 88 116 86 43 92 129 150 160 163 212 213 218 192 143 123 122 139 163 165 182 201 141 39 45 44 33 57 110 150 149 126 146 262 439 371 278 287 542 631 616 613
43 39 57 54 40 64 98 145 171 182 185 217 234 203 158 121 120 145 123 91 109 164 171 129 102 79 50 44 42 47 79 56 88 149 148 192 356 486 569 563 516 518 456 468
89 13 31 -9 38 149 86 261 270 283 291 286 210 166 134 112 98 83 86 87 101 129 129 107 120 98 91 97 96 68 68 40 6 27 172 163 259 364 453 469 473 455 487 517
21 40 14 22 95 -0 185 154 200 117 132 94 81 53 33 44 50 65 58 86 85 99 91 90 90 92 111 104 118 106 87 71 -0 -24 -42 82 127 253 373 547 449 398 445 453
26 94 116 122 149 117 13 51 78 82 31 15 4 20 42 64 43 60 58 78 99 110 114 119 115 105 122 156 164 157 146 94 61 12 -66 -97 -5 55 208 389 518 663 632 632

GFSCGP_con_3kmhel_087.txt.gz
Helicity
118 211 274 216 212 216 205 271 216 94 76 40 40 -24 55 76 78 74 128 131 127 165 264 332 415 515 455 465 424 348 299 297 335 284 202 141 84 93 146 196 234 214 329 437
88 133 130 122 168 225 257 264 109 150 10 22 74 60 57 111 67 76 140 166 144 133 270 393 478 502 478 490 436 352 310 297 281 228 159 138 110 103 112 190 284 354 611 569
116 153 172 110 163 244 249 142 50 102 -13 15 118 47 50 57 53 16 53 152 113 98 285 465 527 458 499 490 443 361 304 271 223 207 179 182 163 157 102 130 165 260 521 589
141 92 102 105 149 188 141 187 240 157 59 19 100 247 93 33 26 9 -36 -12 63 109 295 445 502 430 470 427 385 338 280 233 222 214 204 219 187 144 23 55 109 136 118 172
58 74 115 74 96 128 142 175 227 128 155 147 49 163 53 33 43 29 59 150 61 133 287 334 380 365 432 403 359 328 276 217 204 207 213 211 182 106 112 74 108 121 110 165
73 46 117 57 74 49 172 141 243 101 159 82 -18 162 103 62 -11 11 -10 100 86 128 300 286 367 410 432 351 374 320 285 202 205 201 224 199 179 175 166 151 112 104 108 110
44 -28 149 51 59 104 77 61 189 152 155 51 31 145 -17 66 32 23 10 75 90 126 330 360 425 419 454 346 376 325 295 208 194 203 221 209 189 195 186 145 99 115 103 105
52 23 -34 53 51 88 91 85 283 300 207 99 63 168 132 61 33 58 12 93 100 132 283 350 372 368 386 346 350 321 273 221 192 219 208 219 231 228 186 166 89 83 106 117
40 -4 12 76 82 95 187 205 70 231 213 127 147 168 56 63 102 67 81 130 128 122 237 260 271 284 445 285 323 329 265 228 162 188 188 195 223 251 213 166 138 111 85 86
45 25 -7 59 34 72 163 297 190 154 152 93 131 115 156 52 120 144 171 215 231 103 122 176 246 331 395 359 331 277 257 248 184 166 170 174 187 202 209 210 188 160 150 110
55 83 25 16 43 101 96 113 201 161 173 171 214 248 252 349 195 203 263 264 170 114 128 127 249 277 366 386 324 267 243 237 217 185 171 155 192 187 180 190 181 212 203 186
150 65 8 -49 -18 41 95 104 101 138 152 104 132 58 238 351 335 191 241 259 241 201 78 71 128 244 325 332 331 299 252 237 250 203 190 152 162 204 201 186 180 178 185 191
89 62 9 7 1 17 44 58 90 86 128 101 101 60 136 135 256 380 281 158 41 143 145 107 56 179 262 286 315 319 279 226 257 265 217 197 168 195 221 205 188 186 197 196
30 84 86 31 16 19 43 68 47 47 105 47 102 84 77 129 264 393 287 38 54 84 35 80 180 92 121 243 301 346 331 299 212 279 279 254 228 196 193 229 227 225 221 208
2 49 120 98 37 -45 -23 56 50 37 75 81 65 32 27 124 125 136 33 65 15 102 25 33 66 132 100 126 133 223 360 350 256 245 288 333 312 267 221 204 250 246 248 251
28 20 72 26 49 -42 -27 -44 63 32 59 32 24 46 16 -0 22 40 58 127 137 154 171 195 176 136 149 127 137 135 160 339 351 259 231 295 345 358 356 320 300 280 277 278
115 31 59 -14 106 88 26 -27 -26 41 -58 32 45 -8 7 78 224 137 113 141 127 127 111 73 107 34 23 70 151 182 275 176 227 320 304 272 336 332 345 359 335 346 342 303
99 73 -4 -33 56 13 16 43 11 45 98 34 120 121 150 103 175 212 171 152 93 74 51 18 11 16 27 -6 66 124 168 173 263 122 213 302 302 294 332 329 379 380 370 368
132 99 64 1 -4 27 80 110 126 94 109 56 84 166 301 186 294 308 246 178 134 107 99 116 88 48 35 93 147 64 108 140 231 335 403 253 140 232 284 274 307 359 389 389
112 121 125 96 21 -1 -7 57 44 28 99 28 101 233 260 229 283 315 231 205 214 273 243 189 118 52 60 91 114 93 128 108 134 194 191 282 242 163 235 291 301 356 364 345
85 120 80 75 74 87 80 104 128 81 142 224 231 241 277 299 273 128 139 209 163 185 201 136 57 31 54 53 85 80 90 149 174 117 88 94 189 242 359 250 225 335 352 329
86 112 94 91 88 70 85 131 155 197 397 376 401 355 317 245 180 192 188 199 137 141 87 70 21 1 53 74 71 68 87 98 79 54 62 63 72 189 297 394 343 375 401 482
36 48 93 86 39 95 213 246 361 300 369 352 238 213 218 194 182 147 120 144 111 104 54 47 59 84 73 84 76 75 75 51 32 23 15 14 -29 19 230 322 408 454 448 465
-8 54 47 66 89 154 298 342 344 310 341 227 167 156 181 141 145 120 104 94 68 65 87 87 95 90 89 90 79 69 79 64 39 33 38 1 -11 -25 -7 175 253 262 378 354
11 33 89 92 67 222 227 229 266 301 235 217 136 157 161 139 110 37 51 63 50 44 47 51 61 73 87 80 90 96 105 87 78 80 81 46 18 19 3 -30 107 66 73 207
6 -0 58 166 182 177 150 102 91 94 106 91 88 91 91 131 119 84 86 70 61 55 69 83 93 95 107 112 125 129 133 105 82 107 118 132 128 105 81 84 120 219 192 102

GFSCGP_con_3kmhel_090.txt.gz
Helicity
111 143 118 159 169 203 208 219 220 184 161 127 242 178 52 12 27 6 103 115 141 191 207 380 433 426 478 400 356 325 326 316 300 276 258 150 110 78 92 98 74 95 209 340
134 50 31 46 96 144 199 241 209 147 157 235 261 159 56 -0 81 27 65 96 108 115 254 373 515 521 511 442 381 341 337 323 282 245 203 123 104 51 57 69 61 18 90 163
96 66 85 105 128 162 228 238 244 171 158 53 114 -126 -13 -2 68 84 69 133 116 156 295 406 546 550 552 441 406 367 328 314 281 269 211 153 100 81 40 56 100 46 100 163
55 66 77 106 86 139 120 173 177 131 129 54 208 -41 -32 -57 122 135 96 79 73 150 221 420 575 594 497 426 386 362 316 318 284 272 217 187 106 76 27 51 61 153 192 181
60 64 80 74 81 92 124 149 134 222 160 53 69 116 -186 -78 34 85 56 29 20 72 216 361 556 554 490 447 397 348 296 293 292 254 214 179 124 55 68 91 102 112 205 328
30 60 59 47 106 116 151 175 221 161 121 25 108 96 -192 -119 -48 28 24 -10 -41 9 196 337 452 526 516 422 390 324 284 272 275 259 198 195 143 139 130 81 74 77 97 100
82 87 106 162 105 113 138 146 167 142 146 96 85 41 -121 -6 -69 9 6 50 4 78 202 311 436 485 458 422 364 315 261 253 238 239 187 182 149 164 175 141 63 66 40 25
75 91 29 31 63 80 60 101 169 158 67 37 73 6 -93 -188 23 82 68 74 50 103 189 308 402 444 455 415 340 300 237 247 219 211 174 155 150 143 143 156 99 55 62 42
47 56 33 28 39 62 67 72 26 122 95 73 73 103 44 104 231 46 33 96 71 125 218 278 326 384 393 327 361 299 208 220 210 172 169 141 137 121 105 123 80 70 34 38
26 62 19 49 60 37 76 83 93 51 83 52 56 57 148 286 203 178 237 125 113 144 186 234 288 288 232 307 302 232 186 213 229 165 157 148 128 105 91 106 105 111 100 79
55 48 31 67 36 30 43 57 69 100 133 123 96 101 251 455 379 574 528 442 222 167 156 170 134 141 251 258 287 235 153 174 210 211 162 153 139 123 89 93 88 113 129 144
50 43 38 50 41 104 51 63 7 90 103 133 93 43 142 374 295 471 536 519 271 381 282 103 138 199 197 258 272 225 179 170 195 207 206 158 142 132 122 102 86 80 119 133
47 68 35 41 54 137 31 16 23 50 21 105 74 43 70 239 424 446 497 335 130 296 311 250 213 131 141 176 213 220 214 208 179 183 195 190 164 163 149 127 111 112 95 108
69 26 21 57 35 27 -6 22 53 34 32 73 57 63 -66 -64 81 258 470 342 94 120 242 259 228 96 45 45 72 69 85 158 218 175 171 181 183 207 193 174 164 153 165 157
39 18 4 45 43 13 -2 -15 31 -18 40 85 63 16 23 -59 -17 63 436 311 47 80 113 141 177 160 172 187 125 19 91 132 222 257 230 202 191 192 209 206 194 190 180 182
47 9 14 -28 7 36 26 -28 -23 11 61 48 15 47 41 58 15 90 212 125 40 47 -18 1 105 144 177 163 139 123 52 89 144 193 244 247 270 219 198 206 234 227 237 237
72 38 29 -39 25 50 -11 -20 -36 -2 11 -74 47 66 66 27 21 43 90 158 139 68 63 72 -38 12 140 202 206 211 208 158 19 114 177 129 165 198 220 244 247 241 259 275
43 58 12 -20 -19 -36 18 64 -5 45 27 -38 16 37 50 176 305 249 209 127 209 209 193 171 123 93 107 111 137 154 199 249 233 243 252 225 161 134 192 264 301 306 309 278
100 131 94 45 34 19 -11 89 72 -2 40 105 145 96 209 223 181 283 274 252 226 198 143 108 66 65 75 99 77 107 169 174 214 226 198 197 227 159 179 147 229 277 302 320
88 171 159 92 33 -4 40 70 95 45 57 113 161 114 120 141 183 171 221 200 179 164 113 84 76 81 99 130 78 75 102 131 198 225 190 160 157 151 153 212 236 136 234 292
-5 98 124 107 87 69 70 155 125 44 62 179 198 191 226 228 185 185 171 126 79 81 93 88 105 118 114 119 93 100 101 130 123 105 111 125 132 106 113 116 147 237 302 206
8 38 106 123 92 49 -9 41 103 205 377 353 294 226 247 249 215 178 156 67 51 79 88 90 67 85 105 128 112 95 98 83 76 85 102 100 92 82 97 104 73 130 246 351
12 143 94 70 80 111 132 176 333 331 363 318 277 247 222 199 164 140 127 96 88 94 90 101 88 87 104 106 100 104 126 116 87 59 74 94 101 95 92 151 169 100 86 183
-19 33 56 75 127 172 237 280 358 384 317 253 274 218 188 109 79 95 101 98 83 54 59 75 84 88 87 86 81 71 82 76 65 64 66 72 70 66 99 88 124 160 153 79
22 3 79 195 227 229 295 243 221 244 296 201 138 115 156 145 114 100 103 91 63 40 62 54 56 64 85 98 92 84 77 58 47 60 74 70 58 60 74 128 137 104 190 171
36 51 -35 39 232 187 197 226 139 158 171 238 111 119 155 141 116 96 89 84 87 85 79 78 88 88 93 95 102 114 108 94 76 80 93 108 95 96 71 18 100 335 295 314

GFSCGP_con_3kmhel_093.txt.gz
Helicity
137 187 184 170 160 127 102 87 73 124 145 115 67 81 44 76 51 83 43 53 34 73 92 191 291 364 393 385 316 329 309 244 268 256 264 193 178 164 134 100 50 80 136 169
178 134 105 83 90 96 91 51 19 28 93 119 98 38 31 24 -31 61 36 60 29 89 72 175 346 358 389 435 316 328 331 321 266 240 209 182 180 129 87 58 38 44 53 178
140 104 148 129 100 93 85 76 62 44 67 76 62 9 44 -17 19 19 -11 2 53 129 144 206 299 348 399 409 373 342 366 338 270 242 260 224 207 154 92 54 -4 22 76 93
98 129 103 122 109 98 67 50 53 70 82 99 191 95 35 14 6 -1 -123 -52 28 77 81 217 289 386 375 408 381 351 343 309 250 282 232 219 150 146 109 76 45 31 15 65
133 119 142 122 85 87 48 65 59 71 121 135 186 255 89 19 38 30 -53 -47 51 109 141 195 278 377 420 484 450 363 330 288 232 263 218 198 137 105 123 121 59 88 60 85
111 108 89 71 79 61 87 74 90 129 176 162 169 245 34 34 -2 6 21 -24 69 93 100 175 215 365 479 492 442 355 318 270 231 251 198 184 143 137 122 152 133 123 136 206
143 110 90 106 110 89 95 103 140 124 206 223 194 158 136 44 -43 19 77 53 60 61 48 123 200 301 463 463 399 326 298 277 255 237 181 159 124 151 129 152 147 138 107 150
153 168 100 65 62 26 39 71 139 104 130 83 70 105 -47 -47 26 15 86 70 55 41 40 93 183 397 417 416 390 325 280 258 240 216 176 148 116 121 109 149 113 78 84 52
155 154 83 55 45 37 30 55 44 90 75 108 88 10 -10 148 218 163 149 1 -47 33 85 23 279 318 305 336 359 311 285 241 198 169 177 154 121 114 114 99 97 35 56 81
99 108 65 61 85 52 44 53 98 144 158 94 24 -11 47 213 328 301 257 132 -27 58 46 149 248 217 250 262 282 289 258 247 187 143 142 155 134 104 101 112 67 43 56 85
85 79 84 67 44 50 44 48 57 86 64 94 55 26 122 244 360 447 486 566 250 127 76 114 129 155 222 211 234 258 235 209 176 144 120 135 130 115 105 98 80 62 72 76
84 75 104 74 44 82 55 51 62 59 69 73 55 24 23 247 324 416 587 588 456 202 101 154 121 161 179 145 168 179 184 172 174 173 129 110 142 131 124 86 93 106 89 110
83 76 105 71 62 80 54 31 29 17 61 -52 23 29 76 73 253 569 633 696 607 220 189 207 159 139 142 134 128 149 140 139 137 137 127 104 131 124 139 107 86 109 111 121
62 55 47 69 65 19 32 21 -7 17 61 20 6 27 -22 -63 -1 253 499 665 636 133 226 248 263 160 72 42 36 51 69 94 133 144 143 120 145 155 148 144 119 107 110 112
45 30 11 37 47 24 43 25 -9 33 62 85 62 -6 28 -38 -75 -110 54 547 462 217 162 286 272 259 244 236 166 67 56 69 109 160 163 156 159 142 139 144 137 137 125 122
35 1 2 9 15 -11 12 34 26 10 38 41 36 32 71 -24 -32 -11 111 135 223 181 170 184 204 255 281 222 296 190 223 90 51 89 109 132 148 147 153 160 171 171 171 179
35 6 -5 -14 26 11 37 115 61 7 15 26 58 24 49 66 6 55 201 191 107 189 231 194 139 117 161 179 153 161 147 149 196 155 132 96 106 122 131 148 181 192 200 219
26 30 18 16 5 -17 49 66 -2 51 78 154 7 83 135 261 205 213 209 145 171 112 107 111 90 157 130 121 140 156 177 189 207 228 208 207 210 206 133 94 125 146 203 222
73 101 45 21 3 16 54 89 25 90 45 45 52 120 160 107 140 179 129 155 151 138 118 82 66 97 124 141 92 95 168 193 201 222 229 217 191 172 168 173 198 107 190 179
81 86 90 60 19 -23 52 102 106 51 54 29 92 129 94 99 96 74 122 136 88 125 76 49 65 79 109 132 106 102 130 138 167 185 176 161 166 181 186 183 165 141 160 147
40 43 78 118 80 57 34 2 -21 35 46 117 108 77 38 55 88 98 166 200 160 54 50 66 74 91 108 136 111 102 102 123 108 109 125 146 148 136 145 149 151 165 155 136
9 5 40 58 92 84 39 32 76 67 191 213 243 202 208 228 214 173 163 160 148 114 106 116 85 106 136 149 122 119 135 127 105 84 92 114 127 118 125 141 150 162 169 138
41 43 59 70 35 169 82 126 193 212 291 336 313 271 173 142 148 130 110 85 57 72 91 105 112 118 130 139 139 134 133 106 89 88 88 92 89 95 95 128 148 140 152 146
13 22 27 88 107 149 176 182 232 217 241 343 340 312 283 240 154 153 118 79 71 93 107 111 104 123 146 154 148 137 135 113 95 80 93 103 108 102 112 91 84 84 105 108
8 -17 32 99 277 237 234 194 167 276 303 158 146 260 209 135 129 82 64 81 93 90 82 84 98 96 108 111 118 127 122 99 83 87 95 113 110 105 130 211 175 100 131 128
41 -1 24 11 95 157 210 228 189 141 96 194 212 187 120 63 76 77 74 82 89 104 107 104 98 88 96 98 101 109 93 92 84 86 94 93 89 90 102 108 175 381 337 395

GFSCGP_con_3kmhel_096.txt.gz
Helicity
210 227 242 180 198 161 126 102 91 106 107 81 84 14 34 66 17 -15 29 50 53 57 73 97 122 186 260 268 318 332 307 283 285 280 252 217 203 204 165 142 164 154 86 139
231 145 119 101 112 112 116 108 102 68 70 87 27 -53 -11 12 7 2 3 24 40 54 12 62 98 202 242 321 317 329 291 291 302 291 253 215 201 180 153 115 118 118 77 63
175 144 114 130 137 126 123 120 100 72 39 72 29 -48 -56 -25 -8 -1 37 2 24 18 12 46 112 169 211 308 333 365 296 297 297 293 290 235 204 153 167 135 101 86 66 -2
116 122 122 103 90 118 109 75 63 67 60 34 59 -24 -20 22 3 42 45 44 33 -19 36 55 105 152 193 227 306 358 298 298 284 327 276 247 195 187 162 154 96 63 24 6
104 81 135 124 90 89 86 101 77 74 66 54 81 107 196 95 36 42 76 65 59 21 17 54 93 142 202 209 317 364 322 285 302 280 255 238 183 153 127 136 123 70 33 48
107 105 103 127 124 105 85 89 63 69 76 84 73 173 68 6 5 84 98 132 101 85 69 83 123 141 206 249 256 354 343 273 275 242 246 222 214 167 161 146 135 78 64 102
162 140 112 94 119 108 99 88 107 108 83 104 21 54 159 67 28 26 67 132 165 139 85 82 129 162 228 282 323 340 344 251 266 222 227 201 187 187 172 138 155 125 75 54
151 123 102 83 107 110 77 68 75 74 60 59 46 41 -6 59 45 121 133 126 154 212 154 103 139 172 253 264 318 348 319 253 262 200 195 173 166 159 166 139 148 126 56 50
150 196 103 120 93 85 72 49 75 78 5 46 68 40 44 91 155 222 217 211 226 318 213 84 97 159 267 297 308 304 286 226 213 194 187 159 144 149 167 126 115 129 71 67
150 185 166 127 80 105 75 46 82 62 69 64 69 50 50 83 175 239 280 242 229 300 233 107 41 159 218 251 211 201 206 192 199 186 153 155 132 118 120 133 118 103 99 94
116 165 183 112 114 91 93 60 38 54 79 66 67 62 48 55 164 205 283 276 287 287 200 81 128 139 168 154 126 157 187 183 159 172 128 138 115 106 101 97 95 81 77 109
134 142 173 141 105 44 56 55 55 74 94 77 74 54 10 -7 31 288 349 357 326 302 156 110 83 140 198 149 120 113 147 204 146 125 107 93 96 92 86 72 74 83 60 56
106 138 145 105 93 107 71 45 26 31 23 48 97 74 2 -12 -14 12 249 403 422 301 201 150 122 122 130 171 180 154 141 155 110 98 117 111 76 89 86 80 81 84 82 73
95 117 106 104 84 54 74 44 26 30 64 73 96 76 19 -36 -43 -38 -1 343 335 296 294 313 390 256 134 110 74 62 92 81 66 75 81 114 106 90 102 106 97 99 101 96
53 61 67 54 64 37 40 81 70 39 19 55 86 76 56 24 -35 -23 -69 43 163 385 321 341 346 365 337 269 256 153 109 77 81 82 79 98 109 101 113 117 118 112 119 110
17 1 1 1 15 1 10 69 63 8 19 69 32 82 41 -28 9 13 40 97 140 320 483 385 351 322 335 395 357 312 263 199 49 27 59 70 83 89 92 89 94 133 133 140
-6 -12 -4 6 14 16 29 64 45 8 44 70 33 35 82 -7 30 75 106 118 171 144 431 573 508 381 452 405 337 281 252 217 252 225 207 171 126 79 79 102 111 111 118 138
7 11 -3 -9 12 -10 15 44 26 12 -3 23 33 32 81 174 201 240 221 134 155 190 141 118 185 327 220 168 146 180 186 177 193 207 205 199 210 219 239 219 94 77 119 120
37 42 26 5 22 34 47 74 73 4 55 36 30 73 119 77 197 246 125 160 150 137 127 104 86 94 76 98 95 99 120 131 167 182 171 167 165 162 170 191 218 213 235 201
47 60 48 28 16 -2 0 9 44 63 41 108 64 58 96 141 51 55 78 158 107 77 45 52 104 69 89 99 79 90 123 138 167 162 151 133 130 139 157 171 173 170 165 198
37 47 45 55 36 7 36 -9 -24 27 61 57 79 62 114 -12 54 34 44 82 132 98 54 74 50 37 63 80 59 62 94 117 115 118 135 160 160 130 128 116 128 140 135 151
2 13 14 21 24 15 15 3 61 85 179 142 155 118 182 77 120 76 108 104 100 142 71 64 61 83 105 123 106 94 119 95 84 92 108 148 160 151 146 137 133 151 139 146
44 33 23 6 39 110 83 39 76 123 136 171 170 180 161 138 127 80 49 106 148 111 42 43 57 79 121 146 138 122 137 104 81 70 86 127 160 164 169 182 174 148 151 140
52 32 12 11 138 151 110 128 156 138 140 153 165 161 176 168 132 119 135 132 72 52 80 99 101 102 101 118 125 126 137 111 100 88 93 100 121 128 145 153 174 143 107 91
22 24 17 -8 151 181 212 142 120 134 146 132 172 134 109 91 122 122 117 49 30 29 57 84 92 97 127 135 140 147 132 101 90 92 98 108 93 59 98 222 223 159 173 111
26 40 34 33 34 72 134 148 148 171 130 95 131 141 133 93 102 77 34 42 60 72 86 87 88 95 112 114 127 148 139 112 91 95 101 120 125 122 122 155 206 408 356 313

GFSCGP_con_3kmhel_099.txt.gz
Helicity
207 204 187 161 123 146 107 127 100 109 120 101 104 61 81 81 95 64 67 45 46 55 52 57 92 85 70 110 167 171 242 255 254 263 236 191 199 177 154 143 116 139 161 145
235 135 148 132 133 114 111 100 95 79 53 84 59 7 31 61 70 69 61 47 45 51 39 29 31 48 64 93 152 177 214 275 250 264 217 188 213 165 165 147 133 104 83 132
164 143 98 129 130 110 106 91 94 82 73 48 67 -21 11 31 39 58 60 53 39 41 50 43 38 49 44 87 152 176 248 286 285 272 274 246 263 193 163 131 122 116 107 41
114 110 78 110 104 94 68 63 67 68 69 91 88 7 -2 -1 7 12 24 40 71 74 40 34 10 36 40 113 88 114 212 262 308 301 295 228 212 192 144 134 119 120 106 25
101 96 112 110 83 78 89 86 72 65 55 70 43 47 -48 67 24 162 191 254 195 127 60 18 -16 -8 43 95 101 122 186 202 288 309 266 204 174 154 120 127 119 100 87 72
133 107 94 103 128 118 88 103 87 73 59 65 4 40 -24 -63 55 85 36 131 240 208 158 115 1 -19 65 68 98 108 183 230 232 264 263 197 147 153 145 131 128 118 97 70
151 127 105 97 152 143 116 100 89 67 68 64 48 34 35 86 35 63 7 44 122 118 134 147 51 35 102 73 81 144 208 248 225 220 229 151 103 141 119 127 125 127 79 37
137 109 120 92 92 69 74 87 94 74 69 85 60 34 19 50 23 28 59 59 75 109 102 150 156 75 67 97 94 152 198 239 209 199 199 112 110 116 89 98 96 111 60 13
123 153 151 109 117 108 113 107 102 85 63 48 51 42 66 104 100 89 71 71 102 158 132 185 198 113 76 102 125 137 205 219 203 198 184 105 110 108 87 83 65 76 50 12
104 211 176 150 133 174 121 73 85 91 74 58 34 38 45 42 26 67 66 58 91 156 190 143 151 76 75 85 103 118 207 194 150 167 161 103 97 98 77 68 59 37 37 29
122 158 172 114 134 100 102 110 104 86 85 84 70 54 45 8 16 13 7 -6 16 123 252 142 90 75 71 78 94 195 189 120 127 146 137 103 97 92 78 54 44 42 27 33
121 141 197 161 144 65 85 102 84 70 92 90 83 28 65 75 54 -1 15 -16 -73 103 298 168 139 118 83 98 142 176 138 124 123 132 125 80 94 88 77 52 41 36 32 34
80 140 177 131 125 112 105 102 91 86 84 50 30 31 70 36 56 34 4 8 -47 87 266 340 272 204 111 121 150 139 138 139 139 130 109 92 75 74 65 55 48 40 38 37
135 157 142 147 141 110 104 92 73 71 67 52 44 4 45 56 94 91 31 19 -26 126 219 299 375 452 410 278 173 143 172 137 108 106 113 93 66 57 58 60 56 49 39 43
175 235 160 104 75 59 64 58 61 42 22 34 38 4 59 50 51 32 41 38 74 57 409 302 338 415 470 451 554 472 313 159 112 87 72 78 70 89 89 57 54 56 53 45
37 57 57 80 61 56 55 48 51 37 10 -15 -11 20 -2 10 16 13 39 110 129 96 361 445 389 369 468 437 351 414 427 310 162 130 145 96 73 77 86 82 50 47 46 40
24 22 38 53 38 33 56 43 89 70 49 15 39 22 32 14 164 179 137 207 230 220 90 476 428 513 383 456 393 391 453 405 385 354 340 248 170 124 116 90 75 57 37 32
8 19 21 40 31 40 44 38 48 52 60 53 30 25 34 136 291 280 241 247 271 186 187 144 563 550 408 347 245 264 330 291 323 285 210 216 175 185 179 182 181 159 89 35
-22 8 12 31 53 62 44 54 64 14 70 55 38 59 48 -3 91 278 263 263 174 181 155 182 185 312 299 348 415 325 203 108 196 177 140 171 199 196 187 185 196 204 195 238
6 10 9 3 43 50 32 22 11 -22 38 125 128 72 97 37 -50 11 107 137 97 144 34 21 62 130 132 74 43 57 89 108 141 139 136 159 158 163 178 185 192 175 176 209
31 21 13 7 -5 19 58 72 7 23 52 39 51 46 47 15 -25 7 30 47 100 60 65 8 28 41 72 74 76 81 81 90 78 74 77 96 117 132 140 134 151 145 148 161
58 29 18 14 21 66 34 -21 5 4 42 51 53 51 73 90 90 87 88 55 67 117 80 53 32 60 98 119 101 108 119 99 92 74 91 119 135 124 118 126 139 146 133 143
65 58 21 13 39 47 85 60 46 67 72 107 76 51 29 19 47 61 58 19 67 106 53 27 42 58 84 106 111 93 104 77 72 88 109 131 148 145 156 171 167 155 161 140
19 37 26 5 57 130 96 71 87 98 100 85 96 89 86 90 92 89 99 79 70 53 56 31 56 94 117 126 118 108 92 70 61 65 95 121 146 138 132 144 164 145 119 91
40 27 29 25 16 24 120 127 94 87 83 102 119 120 105 94 79 76 73 88 55 71 57 75 71 67 81 92 112 120 118 84 67 57 51 62 63 62 92 180 166 130 172 126
33 20 25 53 42 54 87 99 104 97 97 109 101 108 92 69 67 71 82 91 73 50 56 73 99 105 113 111 116 123 118 99 80 74 67 67 59 54 46 58 104 245 202 209

GFSCGP_con_3kmhel_102.txt.gz
Helicity
142 177 149 106 101 137 135 118 99 125 143 90 77 75 95 116 104 93 95 72 64 57 60 66 82 124 64 55 46 82 101 132 206 231 209 201 193 169 114 138 126 117 98 81
249 135 74 83 76 48 66 92 103 101 78 70 73 71 84 79 73 48 41 48 50 54 66 72 84 84 121 82 38 42 82 132 194 213 181 163 176 168 124 150 146 112 103 90
170 116 50 93 77 55 53 69 81 88 113 71 74 69 17 47 -15 -25 -2 30 52 68 78 75 65 58 87 97 102 79 64 125 160 172 180 183 186 184 175 147 175 110 94 120
125 142 110 33 39 44 68 26 57 66 86 110 88 110 122 42 24 47 96 119 122 137 125 97 84 70 60 75 72 62 62 98 134 166 196 207 199 151 102 100 157 139 104 83
145 99 82 57 15 42 71 85 45 50 64 107 76 62 30 7 31 85 109 114 114 119 123 149 121 100 94 65 61 87 65 68 110 160 154 164 141 119 102 109 128 117 99 85
125 127 82 110 84 27 91 64 70 77 82 97 60 54 61 65 64 53 51 70 101 121 118 98 105 114 105 85 69 87 68 57 109 130 135 138 146 148 109 94 99 109 120 77
124 95 110 69 145 79 37 39 91 112 127 99 80 66 75 77 59 34 56 80 139 89 120 107 111 107 75 104 90 92 52 63 146 129 123 142 154 121 90 81 75 110 115 89
158 148 97 66 44 66 38 55 129 145 112 87 48 53 52 44 9 21 42 74 123 83 118 107 99 74 73 85 83 59 34 75 128 125 123 144 129 115 92 64 77 102 81 60
115 137 97 62 84 72 76 77 91 98 75 72 56 28 14 5 -9 6 31 62 79 82 25 132 122 56 1 90 67 58 48 62 75 110 166 148 135 117 81 63 80 116 90 51
96 135 65 94 86 116 95 71 88 83 63 70 44 42 108 88 105 51 30 1 37 27 46 57 152 143 51 68 46 48 71 112 138 113 127 135 140 107 89 66 76 92 91 45
68 78 119 110 103 68 100 90 95 99 102 95 85 67 78 87 66 53 40 23 6 -29 25 50 177 164 102 69 44 86 94 104 153 153 120 120 132 106 91 60 76 73 80 59
109 88 87 125 131 119 109 86 77 80 40 61 64 43 55 53 66 40 24 43 27 -22 -24 124 160 274 101 71 72 80 109 144 179 194 142 129 127 113 93 71 67 64 56 59
79 75 111 101 105 81 78 82 107 104 98 47 33 35 -23 7 14 62 45 35 15 17 20 171 281 214 284 93 72 47 80 165 221 210 158 155 134 103 95 83 71 57 47 41
102 103 90 74 93 87 90 71 70 67 52 58 32 32 31 18 29 38 54 24 36 13 29 198 328 307 304 410 200 83 184 173 199 171 169 151 128 104 113 99 86 70 54 37
239 168 110 139 128 115 87 66 59 60 41 35 58 39 26 20 26 23 60 95 95 96 43 142 384 446 352 446 468 507 275 286 183 195 210 205 151 128 120 113 98 85 68 50
454 269 147 171 98 79 75 62 50 30 24 29 25 30 80 68 101 191 168 168 181 99 129 -11 400 540 494 440 517 473 535 518 413 430 381 245 160 133 100 108 107 91 73 60
13 6 81 78 84 80 56 63 82 56 78 75 67 61 46 58 103 168 200 175 256 188 143 80 201 577 582 468 379 392 390 357 398 382 407 417 368 301 293 146 141 100 82 66
-3 10 32 34 42 82 80 78 65 75 77 98 88 38 13 -24 -7 87 209 254 271 259 260 243 114 327 462 457 482 501 488 331 347 402 429 399 366 377 397 278 162 173 174 172
19 24 27 33 64 51 34 77 91 101 45 80 124 17 5 35 3 26 88 79 151 164 142 194 185 90 229 254 324 298 167 267 302 369 385 333 262 295 309 209 196 181 123 144
11 11 27 29 47 69 74 89 37 38 46 89 113 53 30 23 -11 -40 34 75 67 55 59 71 72 104 76 117 98 173 253 241 245 354 338 250 217 236 207 180 166 182 198 210
13 21 46 46 62 54 92 114 71 46 75 14 43 43 59 5 -11 -37 1 34 35 55 25 30 32 45 74 71 17 68 245 233 97 102 130 83 95 97 155 162 159 168 173 187
41 25 28 52 79 84 60 24 38 33 48 54 52 41 14 -20 13 26 29 40 24 70 125 59 27 44 68 90 84 91 85 69 57 70 95 132 142 139 129 132 139 147 142 153
47 91 56 45 49 17 38 45 46 58 61 63 45 39 37 33 36 40 44 30 16 36 83 39 25 40 54 78 98 110 135 108 86 97 106 94 96 111 139 140 133 136 153 151
41 54 45 6 35 61 47 45 52 49 61 53 55 45 36 39 44 50 45 46 43 58 50 58 29 49 60 71 85 94 95 84 91 99 103 113 134 123 136 141 159 146 120 108
48 37 37 35 36 22 51 68 62 65 62 50 50 50 44 34 51 48 53 66 63 65 67 67 70 77 81 76 77 90 103 88 83 87 94 100 101 105 133 220 210 153 188 146
47 29 29 46 56 72 58 64 62 54 51 50 33 26 42 43 41 47 63 69 80 97 89 68 68 72 90 97 102 112 111 92 77 79 87 97 99 100 96 103 147 282 258 258

GFSCGP_con_3kmhel_105.txt.gz
Helicity
94 162 160 89 114 109 129 64 41 30 32 41 14 35 43 26 31 50 55 80 88 87 65 36 41 31 53 78 115 151 166 160 158 175 162 164 200 181 155 154 113 106 88 102
106 118 55 40 38 89 142 193 233 110 56 100 125 98 64 41 54 53 56 29 15 27 27 24 32 44 64 104 118 105 120 128 156 136 129 135 228 172 124 156 127 119 98 68
18 67 47 30 65 95 138 175 177 135 57 33 81 93 46 -26 0 17 4 23 41 53 58 45 39 44 33 70 108 107 92 87 136 96 135 202 152 164 173 173 153 136 84 89
25 25 10 51 106 110 144 109 105 126 144 151 13 136 7 17 16 38 89 114 120 127 106 88 75 56 41 51 81 78 81 68 96 115 134 161 183 175 158 176 140 117 131 101
41 37 46 53 76 62 133 29 29 64 96 117 129 93 107 94 41 113 106 137 117 117 112 110 125 130 68 36 61 135 99 83 99 132 103 162 163 128 142 146 135 114 100 126
32 42 53 46 59 89 7 56 61 46 57 153 107 81 34 36 88 124 86 59 64 67 88 74 51 51 75 54 75 109 133 114 122 141 66 169 133 120 163 160 163 126 109 120
59 10 50 56 120 30 22 38 136 137 143 142 32 70 43 144 115 101 68 57 61 64 117 148 147 84 36 44 69 121 132 92 133 155 98 140 108 113 157 164 121 105 109 117
70 86 93 67 92 139 40 52 187 172 109 80 92 92 79 170 64 42 24 67 39 68 107 111 150 187 50 42 52 61 146 75 123 146 112 111 102 153 150 136 116 94 138 101
53 71 60 21 33 17 54 104 59 52 83 131 30 68 80 27 105 68 93 84 85 83 58 73 138 181 237 53 39 91 114 66 120 167 149 141 143 128 143 155 121 102 118 134
61 81 23 16 32 32 7 27 116 87 185 155 27 27 142 119 117 94 102 90 75 55 32 35 81 157 218 160 59 114 70 95 204 236 191 191 151 121 133 135 118 135 128 109
93 39 28 43 33 25 60 55 73 87 115 117 78 116 116 116 99 78 65 60 8 36 36 20 65 158 273 399 74 69 92 144 218 185 213 217 140 155 127 135 118 144 100 84
4 45 29 -6 4 47 23 30 49 77 57 82 112 65 41 29 38 65 85 40 30 20 -6 5 43 190 290 488 128 106 112 182 131 174 170 138 160 148 125 130 121 127 98 75
42 32 19 47 41 85 61 64 81 82 95 39 64 68 -11 34 30 52 3 20 51 27 13 0 52 202 358 379 360 50 115 141 143 116 132 193 203 182 153 118 137 149 88 78
98 30 26 52 19 37 63 65 43 61 58 67 43 76 80 105 64 40 66 83 58 43 38 -17 33 137 442 417 361 237 73 85 125 101 81 278 288 201 146 113 151 127 108 95
100 85 80 131 108 49 40 50 49 57 81 67 115 74 33 6 -17 22 88 92 100 91 93 60 42 76 536 451 420 334 309 152 128 143 220 331 290 243 194 176 162 130 129 112
308 137 77 51 72 75 81 72 45 37 37 49 64 20 3 -9 2 36 81 116 126 124 115 128 48 79 400 497 435 415 427 416 393 476 563 427 270 236 220 192 177 170 154 121
282 226 89 131 107 73 72 112 96 46 159 127 90 110 47 5 14 17 44 60 97 140 140 150 191 35 96 465 414 458 470 506 519 616 642 679 527 441 404 281 204 163 154 139
80 243 172 116 86 84 118 118 106 122 101 105 96 25 14 -19 -38 11 29 26 45 76 150 180 204 227 27 307 381 415 429 464 504 614 590 549 481 474 439 386 367 323 313 442
50 38 16 41 60 62 55 94 118 159 31 108 104 92 28 37 -21 -2 8 21 31 25 21 85 104 139 173 34 193 248 371 407 381 482 622 512 475 453 426 478 422 384 437 361
19 32 14 17 27 52 148 162 73 46 48 102 77 81 44 -4 -5 -3 -8 11 52 27 17 19 16 57 88 148 47 57 171 231 411 537 303 371 316 298 401 391 367 386 448 294
31 40 70 59 67 45 114 202 127 47 76 58 41 51 62 23 14 -4 -2 12 44 56 76 63 47 53 45 52 55 71 55 109 214 91 90 71 159 212 163 262 252 169 147 204
40 31 31 42 65 64 125 33 62 51 57 55 65 79 66 47 37 22 14 31 22 41 95 99 33 17 50 62 58 73 79 35 38 61 74 62 85 125 121 123 92 86 84 52
22 50 37 56 50 26 28 44 40 32 50 46 45 39 27 50 34 23 19 33 37 37 28 63 44 25 38 77 88 94 107 70 68 70 100 145 119 98 108 164 154 112 105 123
36 55 38 7 39 56 41 37 45 37 42 42 36 32 36 28 31 28 29 25 28 42 50 57 52 60 56 69 81 92 97 80 68 69 94 100 159 193 203 155 165 183 160 112
40 40 39 40 24 17 36 39 47 52 55 49 33 31 37 32 34 31 42 54 46 48 55 63 74 66 67 65 80 97 103 100 71 69 74 67 40 77 118 188 208 166 199 187
44 28 22 59 51 80 50 46 52 49 46 42 40 30 31 38 35 32 36 40 46 55 58 66 84 83 83 81 91 104 113 106 101 86 74 79 71 72 70 81 117 258 240 254

GFSCGP_con_3kmhel_108.txt.gz
Helicity
59 113 179 132 125 124 92 61 63 -6 -26 17 53 6 14 51 42 114 55 99 82 45 70 64 108 93 66 66 55 182 314 316 376 213 203 219 257 278 295 215 160 165 133 105
78 104 61 72 49 66 130 90 77 65 41 68 78 27 45 10 36 43 39 89 72 79 125 67 50 73 84 46 54 142 222 300 343 240 214 202 266 317 263 232 193 167 141 137
59 49 15 48 71 46 40 101 81 123 62 17 15 106 94 93 87 49 67 66 67 91 44 17 35 37 90 112 109 156 179 203 290 250 238 206 357 311 190 180 151 132 175 207
8 -8 -6 -2 28 33 44 14 59 122 100 200 25 184 68 4 21 29 21 55 66 95 144 135 88 82 97 109 154 189 232 263 307 273 175 146 333 352 275 261 179 164 154 197
-43 22 13 12 14 13 36 50 83 140 150 221 202 173 132 74 9 25 163 256 234 230 225 222 210 192 125 112 114 116 198 249 326 333 206 128 263 259 216 220 183 172 169 183
78 45 52 24 -2 20 48 91 85 117 245 221 191 224 163 103 41 149 204 135 101 128 214 247 266 240 175 106 138 71 116 223 250 386 188 158 204 241 243 214 242 175 194 215
52 -11 77 30 29 28 74 99 182 143 225 146 95 156 141 209 283 195 155 171 155 135 157 202 192 145 244 135 163 91 63 125 249 360 281 180 184 259 254 200 196 213 183 209
10 17 20 103 47 94 77 125 193 190 130 99 50 80 47 126 111 107 151 130 156 131 149 86 111 128 63 147 162 181 44 76 236 292 336 221 202 277 212 194 240 183 171 188
-41 -17 85 81 72 68 48 9 -36 154 58 128 109 68 38 96 125 174 224 90 131 145 68 56 75 109 129 116 142 160 196 58 176 236 320 234 233 242 192 261 188 152 216 156
-14 42 111 103 210 101 92 21 31 10 31 81 80 75 166 409 302 166 256 259 200 142 27 10 54 121 148 189 180 325 60 58 175 249 287 252 237 178 212 186 176 189 234 204
-13 17 26 68 51 60 67 36 88 43 57 142 87 57 127 126 62 94 174 110 63 -32 4 34 52 94 124 207 282 456 276 151 213 326 364 352 243 211 222 216 200 261 348 270
-41 84 25 -17 54 16 -1 59 15 115 57 15 106 170 30 116 174 153 136 84 45 51 105 55 25 28 99 188 294 393 442 240 314 323 343 368 282 243 241 209 218 291 238 210
19 -12 59 38 38 31 17 20 83 21 91 85 38 38 73 121 66 55 24 25 43 70 76 56 28 18 60 137 299 330 394 108 63 87 115 230 266 190 230 195 244 210 181 186
157 14 37 44 68 47 52 32 64 63 51 177 77 47 79 42 33 3 26 62 69 71 57 42 52 76 76 62 319 333 445 347 68 64 101 179 191 202 183 208 269 228 178 178
54 -24 16 47 35 68 45 65 72 59 84 88 63 -27 9 -12 -6 -10 18 31 59 80 72 70 38 40 103 73 287 393 416 350 303 223 145 91 140 159 228 242 263 214 190 171
131 63 -9 139 193 143 42 32 56 110 181 175 68 11 8 -34 -25 18 18 40 56 59 65 69 89 85 89 100 106 450 403 395 344 357 337 328 264 315 304 343 273 227 188 181
163 84 35 77 59 49 174 150 100 94 93 67 71 46 21 -11 4 21 50 45 44 47 47 67 98 104 92 131 -36 307 385 379 406 425 478 486 543 597 559 555 427 340 283 183
64 146 51 56 76 117 56 56 44 68 141 93 75 37 20 -24 -52 -21 -11 19 34 32 52 64 72 96 84 87 74 14 187 310 446 447 432 542 583 639 715 644 558 543 447 414
61 164 150 58 92 43 121 215 211 138 72 159 125 100 30 27 -4 -1 -0 27 31 39 39 13 6 22 75 77 111 16 45 154 343 459 506 479 589 638 734 733 598 558 582 503
39 62 49 51 30 40 117 182 119 169 51 107 98 98 82 11 5 11 13 14 40 80 64 31 27 18 45 82 91 134 133 69 147 395 374 383 243 254 448 520 573 527 608 541
55 51 74 43 26 32 187 177 104 69 72 50 85 82 83 62 34 30 17 13 12 18 63 90 42 25 15 23 68 96 58 101 79 8 53 105 138 116 177 229 202 306 353 297
35 53 47 76 59 45 182 43 63 41 41 54 64 80 69 56 40 32 21 20 22 27 36 49 57 44 33 51 57 78 64 12 1 62 55 62 62 49 92 60 29 61 158 211
26 36 26 43 34 35 34 42 43 50 63 55 51 43 22 24 18 9 24 34 30 46 56 59 54 64 50 56 89 94 94 41 35 33 64 71 84 121 119 107 109 86 77 79
25 50 18 -4 39 51 37 45 50 52 39 32 36 30 20 23 27 29 42 52 58 56 53 57 68 65 60 62 66 95 101 82 35 32 35 41 65 118 159 141 132 137 141 98
30 34 24 26 29 31 44 33 33 46 49 48 37 37 44 45 48 45 41 39 30 41 52 58 63 57 77 79 85 95 106 107 75 62 66 41 16 34 90 167 175 163 186 142
58 34 28 41 62 73 50 41 42 47 53 57 60 56 41 58 47 50 50 50 53 47 50 51 69 62 57 72 94 114 113 98 92 87 74 80 65 40 36 51 102 215 221 237

GFSCGP_con_3kmhel_111.txt.gz
Helicity
92 143 199 155 178 172 207 234 166 104 59 29 135 94 75 129 118 74 73 56 76 111 96 110 118 102 83 74 94 205 344 448 523 465 362 320 315 292 263 210 145 154 153 141
97 90 82 82 95 89 110 110 103 132 6 25 45 54 90 10 93 84 81 97 80 128 165 103 121 102 114 84 75 120 238 423 415 423 339 332 376 354 302 250 163 170 163 146
88 46 36 35 82 49 84 90 67 81 62 83 74 100 56 58 57 144 141 122 76 114 123 114 110 125 110 70 41 125 208 335 412 317 382 415 407 345 373 324 258 222 175 181
73 11 16 -14 88 63 56 18 92 69 110 61 50 189 249 67 65 132 158 92 97 182 262 301 336 291 256 213 138 89 284 281 320 343 329 319 407 377 338 380 343 250 204 206
-30 -13 -11 -15 10 82 28 -12 17 58 143 40 48 156 179 33 7 37 7 147 282 375 430 462 444 363 314 332 313 332 214 223 300 322 299 320 370 317 358 328 265 223 205 240
9 16 10 1 4 -4 8 40 62 96 63 90 51 109 180 101 38 145 367 436 379 381 415 426 382 348 285 239 264 274 298 260 251 326 273 314 352 335 334 276 248 244 226 220
-5 30 48 -25 -75 -8 9 144 87 41 64 97 87 133 83 168 215 306 382 405 383 380 400 386 332 256 209 176 185 202 225 292 359 318 328 346 353 341 313 299 275 275 268 233
-4 -49 -10 -2 -53 43 57 196 102 96 44 2 95 84 129 70 405 340 368 389 369 360 320 261 230 124 99 116 108 227 285 294 290 182 317 327 363 382 325 273 280 265 230 207
-53 -56 -48 -25 24 73 102 115 119 79 40 60 81 135 87 178 366 301 366 413 405 279 151 164 120 81 80 95 163 115 109 141 279 163 304 371 396 382 354 281 250 256 222 215
-94 -149 28 5 2 136 140 141 85 56 31 35 30 104 133 354 462 461 607 456 292 242 141 71 85 79 98 123 158 241 211 204 66 151 257 356 404 366 347 312 276 225 199 187
-51 15 28 -74 -25 88 202 110 84 -19 40 13 92 39 68 167 114 123 301 204 169 149 117 128 146 108 92 130 166 233 284 405 323 217 325 318 356 354 380 298 273 226 216 191
-51 38 55 37 103 40 120 81 65 -22 -80 13 145 203 143 150 71 115 132 140 95 104 171 202 222 164 115 99 192 225 299 380 456 300 375 317 332 358 349 267 341 284 270 208
-4 58 57 42 28 14 14 17 -7 -1 13 -2 47 50 87 91 66 45 13 48 71 117 158 173 185 202 198 162 122 179 265 301 384 329 211 296 312 270 290 332 351 362 324 234
-43 -61 22 42 11 46 15 30 30 80 40 67 138 14 56 91 49 57 66 64 94 112 120 140 130 144 160 206 167 102 232 296 319 258 261 295 237 201 261 324 333 303 245 200
-46 -63 -48 57 53 103 123 107 118 91 63 91 29 -20 14 13 1 3 20 50 106 116 132 130 115 133 127 195 258 135 153 331 349 301 288 254 291 158 223 291 335 242 210 171
13 55 119 292 136 174 109 204 143 236 151 46 -57 -57 -21 -49 -39 27 70 88 113 118 121 150 154 153 150 152 186 213 85 264 361 347 303 290 359 506 411 255 244 213 125 155
31 -8 -16 191 250 140 140 30 88 167 162 41 -81 -63 -52 4 21 42 69 83 100 108 93 75 88 91 92 99 94 160 188 65 352 375 356 323 306 526 642 634 444 357 219 290
-30 26 -20 25 48 186 105 118 35 86 178 140 77 -16 4 -20 -26 13 34 36 36 53 34 0 -3 32 54 63 93 76 89 91 89 371 360 335 317 415 462 648 695 581 533 466
26 60 19 42 143 78 89 125 132 56 96 163 102 112 18 -19 -8 40 52 57 43 48 23 -15 -23 -13 25 45 71 65 103 104 116 194 369 257 238 311 392 555 682 661 667 723
23 91 25 46 99 80 81 171 77 -28 51 99 85 107 133 -13 42 56 46 46 61 53 73 6 14 3 19 43 46 21 16 73 140 132 129 251 167 204 263 171 227 471 630 798
33 48 81 78 37 36 108 156 102 27 30 40 60 69 79 40 22 15 19 4 -1 33 13 -3 -8 12 36 44 49 50 18 11 1 45 83 91 138 96 84 184 217 220 138 448
24 49 37 25 13 30 162 39 54 30 53 56 50 32 15 2 -3 -5 -17 18 30 58 62 37 8 30 61 79 82 84 76 19 8 26 40 66 94 103 94 84 128 93 110 166
30 16 25 34 18 15 28 38 41 51 47 45 42 21 1 0 7 29 39 48 57 54 57 45 34 26 33 67 87 102 104 32 12 13 40 64 93 114 114 115 109 110 105 68
5 2 7 0 23 43 21 29 50 49 31 17 43 78 51 53 57 67 42 23 33 38 39 39 26 26 42 65 95 101 101 76 47 44 25 30 49 88 123 133 144 129 89 79
36 32 12 24 34 36 38 38 36 52 72 86 36 76 104 92 78 73 69 41 32 29 21 24 29 24 39 55 89 117 108 85 72 67 76 23 15 35 54 95 119 127 156 115
44 30 17 45 47 50 43 41 47 56 52 66 102 65 88 100 80 80 80 78 59 36 31 31 40 48 59 67 92 132 133 97 78 74 71 86 53 37 31 42 79 178 172 204

GFSCGP_con_3kmhel_117.txt.gz
Helicity
62 201 285 158 208 183 199 194 219 175 115 119 139 184 140 64 54 81 79 74 77 106 121 123 100 101 128 194 211 218 229 209 331 359 368 320 296 251 215 214 219 219 189 184
108 132 85 125 87 87 79 131 167 107 52 75 37 111 92 141 100 79 70 82 80 90 84 74 130 179 217 230 249 209 230 206 289 323 334 369 313 312 298 304 235 210 222 210
99 98 66 63 66 91 68 105 70 66 85 98 93 123 85 58 73 48 10 71 90 79 114 117 80 210 313 307 382 296 124 137 220 233 307 452 428 401 349 239 221 189 250 235
109 59 60 44 71 66 95 47 10 -12 60 72 81 149 110 63 33 29 59 109 167 240 327 388 386 389 531 513 416 420 438 306 174 201 244 297 349 404 273 298 302 292 309 284
176 119 72 67 113 103 109 10 19 71 59 93 107 115 26 90 22 55 260 303 374 479 528 631 512 431 521 600 549 452 472 432 399 352 240 249 243 219 186 295 290 341 273 262
126 122 101 77 48 45 39 25 -1 83 53 49 92 52 11 79 151 207 383 512 473 514 626 624 578 552 595 618 599 514 483 458 381 346 343 217 240 265 271 278 213 282 282 294
77 85 31 79 42 -37 25 -5 10 36 51 23 38 37 44 -27 97 301 443 553 580 537 603 691 701 677 583 572 571 504 463 383 355 338 300 265 186 231 258 256 86 174 262 299
58 9 51 61 89 23 -7 -3 -21 -4 -9 46 52 26 44 167 197 285 384 471 596 559 549 586 592 598 581 563 519 459 409 394 367 317 275 256 201 199 207 226 230 283 284 310
65 70 41 59 -2 1 -27 3 30 -7 -15 24 18 30 177 247 204 172 386 554 607 565 535 496 476 469 441 424 402 355 329 303 335 374 303 258 194 171 229 218 268 280 289 317
28 49 40 1 -36 -41 -3 -14 -30 -9 2 81 24 34 -22 80 144 221 257 386 617 666 568 576 581 487 403 331 324 312 258 208 220 265 302 283 301 160 191 257 246 259 278 321
54 110 106 103 -71 -33 -28 -61 -26 -23 -39 38 17 -30 61 124 69 230 247 345 474 574 506 511 520 417 328 282 294 310 331 292 268 281 308 288 302 173 190 271 281 270 310 300
10 38 86 89 26 -12 -30 6 -10 -49 -14 -44 -53 -52 14 101 77 90 250 188 294 484 366 369 406 376 320 299 292 308 321 271 261 263 270 263 279 368 151 198 222 262 286 271
-50 -41 70 4 -8 -8 -3 30 15 -20 -47 -72 -60 26 21 8 50 65 95 152 186 308 284 317 359 347 373 366 390 358 290 295 311 288 288 266 293 309 339 195 197 245 259 239
-8 -53 44 18 -4 32 22 25 24 21 -1 26 107 62 32 19 36 55 75 78 67 82 229 265 244 293 306 304 333 328 310 296 337 302 252 278 274 239 232 249 137 177 205 207
-15 30 88 133 206 187 156 29 167 180 92 171 16 45 37 43 42 58 67 87 90 127 168 200 207 241 282 318 298 270 270 295 290 290 283 217 246 216 202 200 227 185 135 174
-4 36 74 2 169 388 613 696 490 364 49 6 1 52 13 -4 7 45 76 88 70 94 119 106 104 140 183 194 203 196 203 213 216 209 290 268 322 280 243 193 212 290 324 266
52 17 1 25 63 295 348 156 128 153 113 -14 19 -34 -38 5 34 58 48 42 35 33 31 44 56 53 74 97 73 96 111 94 120 182 268 324 314 326 296 186 163 216 372 535
84 70 -13 0 37 135 1 24 68 96 100 31 7 -29 -42 -11 13 15 29 29 14 4 5 27 30 23 29 20 16 4 21 43 79 109 144 209 284 349 333 247 271 190 210 437
40 34 44 37 96 7 2 11 32 66 80 59 21 8 8 -1 4 23 37 44 24 8 -3 -6 4 25 27 24 11 1 6 37 24 54 89 125 141 184 212 262 255 202 134 184
31 113 46 65 75 58 26 41 -16 -31 48 31 16 13 6 -7 25 25 25 36 29 -1 -16 -4 14 18 23 49 35 26 28 19 40 43 32 14 37 49 81 108 178 186 227 239
68 79 117 143 91 42 60 65 13 4 -9 -1 -6 2 19 13 -6 22 28 31 16 6 12 0 -5 9 36 47 34 40 53 52 19 9 18 43 44 37 36 27 38 81 121 200
61 78 85 86 101 98 68 14 9 4 1 6 3 3 7 28 32 29 14 0 0 -1 6 18 17 26 41 52 42 49 65 44 11 19 31 42 38 33 43 54 61 59 49 72
33 29 33 43 22 21 45 58 29 -4 -3 -9 4 28 48 32 22 20 11 6 -3 -6 -2 4 6 13 30 38 29 35 44 39 21 2 17 32 46 51 63 73 89 62 71 70
14 13 25 13 12 11 9 18 21 26 22 37 62 72 59 46 35 30 18 4 -7 -4 6 8 15 30 43 47 41 32 42 37 21 13 9 3 -1 21 48 54 70 85 91 68
15 22 9 22 17 14 13 13 29 39 41 57 56 56 45 43 35 26 22 18 15 14 15 16 21 26 36 39 48 56 62 51 35 27 20 14 0 -9 -11 25 72 61 99 85
7 10 6 3 5 18 9 7 27 53 39 26 47 53 40 29 23 26 27 29 28 32 33 33 34 35 44 50 57 70 64 45 31 25 25 24 14 -1 5 10 24 88 133 187

GFSCGP_con_3kmhel_120.txt.gz
Helicity
104 122 47 1 17 26 98 71 73 80 84 125 99 97 126 195 242 132 156 152 175 158 106 135 115 78 108 143 183 165 144 196 287 280 271 228 202 234 195 171 175 222 217 201
169 126 102 96 82 56 40 114 97 70 67 82 98 70 113 110 153 102 167 151 127 162 122 116 228 210 232 193 193 184 135 160 215 250 260 297 264 228 212 223 189 225 239 223
73 131 119 94 62 145 82 49 81 129 76 49 71 65 74 34 104 114 63 90 93 130 188 209 247 253 307 285 288 282 237 173 202 232 292 371 346 317 308 245 223 192 190 226
-17 28 99 117 151 139 123 111 67 56 58 52 36 60 55 40 82 127 143 183 251 299 322 337 354 343 313 287 242 269 288 251 245 225 320 310 301 268 231 249 228 193 180 260
22 127 124 87 146 181 160 97 80 84 33 53 -13 121 21 49 97 45 172 246 316 410 422 437 406 519 492 322 383 309 341 327 376 454 328 256 228 231 224 218 193 214 212 250
100 143 83 118 79 151 130 117 46 65 105 69 235 113 -8 -52 81 100 154 290 377 466 488 468 503 680 704 679 717 515 463 431 459 451 427 336 180 213 223 201 211 215 263 262
49 41 52 69 95 90 120 67 12 14 63 90 42 13 17 30 147 84 137 239 356 445 508 474 592 722 773 753 690 575 539 526 450 380 362 333 268 203 149 199 237 259 244 262
57 -35 44 94 99 45 75 91 36 -28 -19 -18 51 41 -15 -14 99 133 158 284 331 428 482 498 535 615 670 659 615 575 459 437 423 376 309 277 218 154 156 123 228 252 244 208
40 52 89 164 146 62 40 94 78 39 31 119 45 31 22 64 75 159 283 436 480 490 534 527 512 526 514 547 549 519 481 407 370 333 300 274 246 182 86 66 158 169 209 231
74 146 113 152 172 -13 81 -22 -38 43 64 73 -16 -40 -40 20 30 135 313 365 583 570 567 534 532 484 454 423 403 401 391 341 335 329 276 245 250 242 174 71 96 201 193 221
42 102 130 114 156 15 -3 12 -13 -34 -36 -13 19 -7 -31 4 76 68 158 229 253 428 372 451 374 433 358 326 333 323 318 288 295 304 280 275 291 301 267 188 133 163 253 213
26 66 140 90 59 39 5 -22 -31 -36 -9 -42 -41 -29 -8 10 54 69 109 121 183 258 402 734 485 521 491 400 384 372 362 300 285 280 288 268 254 255 221 245 301 167 164 216
8 33 8 -25 32 26 -11 -4 -27 -42 -49 -33 -15 12 61 39 38 74 85 93 126 157 191 266 396 294 388 384 342 324 319 303 285 307 334 290 246 245 213 209 218 194 140 174
-9 -11 -22 17 -6 -6 -10 -4 -16 -28 -13 12 26 71 42 51 51 66 65 73 83 133 182 221 314 336 327 387 356 320 314 344 310 272 331 358 325 280 239 216 201 222 279 168
-22 -10 -32 82 144 175 294 183 144 97 49 38 7 10 56 45 33 49 31 22 78 119 169 197 201 227 248 261 298 259 246 265 255 270 328 310 324 243 250 305 228 193 182 224
19 -4 -32 28 95 267 464 492 382 205 46 18 6 37 34 25 23 56 61 26 44 73 70 83 127 171 214 226 211 224 230 184 144 152 214 268 336 282 308 321 291 218 176 130
26 26 3 32 101 161 337 264 211 269 119 32 16 -4 -33 -11 12 48 69 34 45 53 80 82 102 115 141 133 86 54 97 88 97 116 131 168 238 249 288 286 302 310 257 253
45 43 14 -36 55 69 48 -11 31 74 85 34 7 -10 -33 -18 -4 2 20 3 7 32 43 55 55 66 67 36 34 10 52 55 61 60 68 110 131 164 196 237 272 235 233 219
-38 28 30 31 93 46 17 13 18 48 40 72 31 31 21 12 21 18 30 10 7 7 10 15 23 35 44 51 53 58 44 77 61 86 69 72 51 70 88 127 199 211 146 201
31 97 44 84 74 51 27 5 3 9 29 36 23 8 -2 -3 24 36 28 16 11 11 6 11 24 23 30 59 31 39 48 41 83 88 58 37 43 55 64 37 48 55 59 127
51 39 147 130 74 67 57 51 -10 12 15 29 10 7 22 5 -8 9 10 -6 -15 -5 3 -3 -4 13 42 54 29 38 52 51 23 22 20 20 20 19 42 48 59 49 40 52
47 53 70 91 131 106 100 41 32 15 33 23 4 5 6 -0 9 8 -7 -15 -11 -7 -2 -1 -10 -1 16 24 7 10 27 15 5 1 18 18 22 16 29 56 69 78 73 67
38 24 33 38 41 39 64 68 50 25 18 9 7 5 14 10 9 1 -9 -11 -6 3 6 8 12 18 28 26 15 17 20 12 -0 5 14 29 14 14 21 34 47 56 74 47
13 7 33 11 7 21 33 47 45 34 26 29 37 32 28 28 20 16 11 9 13 20 25 20 22 27 33 28 15 -3 -2 -3 -4 4 7 2 14 10 14 6 20 30 47 35
13 19 17 37 29 32 34 29 34 45 43 60 57 43 33 32 28 21 19 20 21 23 19 20 22 21 26 24 27 22 19 15 -6 -8 -5 -1 -22 -7 -5 -15 -1 10 46 67
26 17 8 1 10 19 19 15 28 36 28 30 52 52 40 31 30 29 28 24 23 28 24 25 24 21 20 21 24 29 14 4 2 -2 -13 -25 -33 -30 -18 -0 10 41 74 121

GFSCGP_con_3kmhel_123.txt.gz
Helicity
92 47 52 41 12 -13 -21 -2 -2 -30 -6 25 4 3 5 -10 -36 -44 -29 21 71 109 103 103 65 114 130 117 122 22 39 40 129 167 168 145 145 135 95 69 92 126 138 169
81 56 25 52 47 42 46 21 -103 33 35 18 16 17 -14 -8 26 -9 36 13 43 134 122 87 150 173 231 191 243 177 115 27 80 145 150 186 149 151 139 114 94 114 147 196
62 53 51 38 -5 1 19 55 32 63 36 17 -9 -19 10 14 -2 83 133 181 176 178 144 114 231 266 294 288 294 260 231 215 114 69 138 186 141 126 130 124 121 143 121 135
20 15 20 9 24 42 24 102 84 78 77 91 85 89 26 13 36 82 65 106 151 183 147 163 255 264 347 345 321 310 225 209 205 142 103 131 181 166 170 180 194 180 133 137
24 32 7 -14 -3 48 98 108 54 37 39 15 -17 55 45 3 -7 -2 19 77 103 181 172 163 237 252 306 398 399 350 267 273 280 264 233 147 125 144 140 181 180 195 177 176
2 27 -4 5 40 31 84 49 30 54 62 57 59 -11 65 -48 -93 -53 41 71 136 166 170 179 250 255 293 354 376 393 352 338 334 321 320 313 163 108 120 124 146 148 179 223
41 21 11 32 48 40 47 36 14 -11 8 29 -25 0 75 -83 -79 -27 20 88 168 135 200 260 306 328 344 402 472 374 409 371 322 352 374 314 301 239 191 94 125 158 187 229
88 59 45 86 59 67 96 68 6 -65 -22 36 15 -7 -12 -131 -44 92 59 118 284 363 299 317 327 358 403 476 495 542 567 541 460 461 452 400 321 136 171 154 147 123 158 156
67 37 72 106 110 116 90 81 -13 -4 7 44 -6 17 100 -33 41 93 124 167 325 442 485 479 447 465 501 519 515 516 513 488 433 412 418 365 216 165 149 106 78 107 117 133
52 50 31 61 129 116 90 73 11 -34 -3 4 -50 -13 -25 14 23 80 140 212 303 418 587 635 557 599 545 492 478 476 449 417 510 381 259 206 244 151 111 75 84 55 70 108
26 43 42 79 67 52 71 47 -28 -24 -25 -17 28 14 -24 -28 5 41 61 94 148 249 342 638 668 650 601 548 507 415 394 432 464 424 242 168 195 202 208 186 184 182 137 108
30 31 105 68 18 37 24 21 -23 9 -30 2 -4 43 3 15 16 20 17 49 99 154 219 258 443 596 662 699 642 551 449 424 348 279 302 293 275 331 302 254 251 263 263 122
38 16 18 15 50 35 9 -13 -9 3 -3 26 11 25 38 47 29 28 42 49 98 133 204 267 354 471 499 463 438 440 344 327 295 318 341 358 350 328 321 310 287 268 276 283
18 4 -43 -13 22 38 -5 4 1 -26 19 66 35 4 52 55 41 35 29 49 48 102 149 173 258 297 359 428 476 400 331 273 287 288 322 388 401 341 296 280 237 244 284 271
7 18 54 62 122 146 250 135 123 24 21 -8 -6 -3 10 40 53 62 1 41 100 123 145 177 186 205 199 232 254 243 295 272 209 195 264 318 331 291 317 253 216 232 234 283
21 5 1 0 15 95 259 272 146 104 50 27 -5 18 6 0 31 43 47 70 68 61 52 56 72 92 121 148 179 184 217 231 111 124 175 177 205 242 260 289 250 241 215 199
40 55 13 -18 -6 23 200 229 188 166 121 59 44 -7 4 -19 -7 28 29 51 67 71 43 33 31 39 50 70 68 75 80 68 90 89 85 106 114 148 237 259 226 255 249 218
43 42 28 19 12 36 21 -8 30 89 97 56 20 6 1 -6 -17 -11 8 14 25 24 28 46 56 58 55 41 62 52 88 100 87 72 65 85 82 78 85 104 159 191 205 193
-9 21 42 38 53 56 68 21 2 44 55 73 45 43 56 68 44 24 27 33 30 21 17 21 22 25 14 29 34 26 44 58 81 114 80 70 52 58 63 71 78 77 77 125
9 14 47 58 65 50 68 77 33 49 42 59 42 14 -2 1 11 28 25 25 6 4 4 9 18 7 21 38 15 16 47 56 92 97 64 36 33 45 49 46 42 26 16 30
43 44 115 139 87 66 74 80 35 15 29 29 23 24 0 17 1 3 6 0 -8 -13 2 -5 -2 9 26 30 22 40 55 51 28 25 24 40 36 25 35 34 45 38 41 47
38 39 57 61 82 77 92 56 33 45 32 14 10 9 15 3 6 5 -3 -5 1 5 0 3 -2 17 21 21 5 16 29 3 -2 5 27 27 19 9 15 27 30 47 54 61
45 25 21 48 55 66 94 89 69 25 26 11 12 4 9 12 8 -1 -2 5 10 15 3 -3 11 13 24 31 29 33 28 12 11 16 13 15 9 1 -3 9 29 20 21 18
33 12 24 2 15 26 52 65 51 39 39 30 22 15 16 21 8 8 3 4 5 3 4 -1 7 20 22 17 15 7 12 4 11 17 16 4 4 1 2 -16 -22 -15 -3 -3
41 25 25 32 31 46 40 35 34 40 41 48 37 23 14 19 15 13 15 20 17 15 14 15 18 19 21 17 22 18 13 17 8 8 4 1 -12 -9 -22 -29 -21 -23 -16 -10
18 27 30 10 36 36 28 23 29 40 35 21 22 31 38 33 30 28 29 24 21 23 19 25 26 22 18 13 13 12 4 2 5 1 -8 -13 -15 -13 -12 -19 -41 15 40 87

GFSCGP_con_3kmhel_126.txt.gz
Helicity
64 15 14 49 70 60 35 12 -12 19 20 39 15 38 17 5 22 13 38 54 75 129 95 62 114 171 144 182 158 141 128 74 110 109 99 100 113 99 98 94 77 81 110 104
42 36 102 73 64 55 47 33 -1 -2 24 35 12 55 0 22 53 206 185 106 93 108 114 129 136 193 131 182 117 206 183 94 108 136 114 107 102 112 90 92 81 74 85 90
49 114 64 50 64 54 5 -28 -39 -23 34 7 111 64 48 39 98 101 89 81 89 66 52 79 105 87 62 122 141 221 287 245 120 143 152 103 78 101 103 80 71 69 78 93
49 74 54 66 55 16 11 31 33 53 65 52 55 69 -11 74 91 76 18 24 27 31 49 72 83 137 82 98 81 182 287 250 243 196 173 137 191 153 99 84 69 69 88 96
118 47 43 47 17 17 26 49 43 38 22 38 15 34 29 56 21 -50 -71 -56 9 37 49 54 53 96 137 168 177 188 380 375 332 264 315 256 194 94 68 99 69 83 84 74
1 23 -2 -20 4 10 6 32 25 29 17 25 39 24 55 -37 -111 -94 -5 -21 -14 37 80 110 91 85 118 160 218 258 234 368 377 362 372 325 118 121 156 128 65 76 119 143
50 46 35 3 -9 70 25 32 80 53 24 -8 3 -12 145 8 -73 -114 -55 -19 -1 55 108 132 160 140 151 181 238 309 309 341 438 467 380 381 326 243 266 249 211 129 97 104
118 81 48 61 30 77 58 34 103 -4 -47 -29 -22 42 -3 -59 92 -15 18 -9 23 51 100 193 196 241 247 227 244 277 246 250 344 392 365 354 318 260 208 229 179 162 164 88
91 66 67 45 13 51 94 50 84 21 19 33 48 34 -54 -11 15 -27 -8 34 66 154 219 338 356 328 335 339 315 362 452 196 269 338 288 284 286 267 250 243 210 188 161 112
68 39 46 75 39 36 30 24 66 31 -22 -12 41 21 13 -38 -48 -12 13 37 78 113 194 371 495 466 450 401 403 410 386 502 388 277 328 272 292 288 274 262 197 199 135 135
37 34 65 16 42 56 64 52 41 26 11 0 -6 44 70 31 -9 -15 -3 19 60 107 175 229 530 646 603 541 492 501 493 449 463 500 451 408 333 304 280 269 254 258 156 159
61 50 66 34 37 39 11 3 26 19 22 -21 2 32 82 80 48 20 15 25 46 70 132 224 278 479 584 627 625 585 590 517 397 290 321 369 308 286 253 278 285 161 9 106
63 62 39 36 37 69 37 24 3 -4 5 -16 7 44 115 102 38 25 23 20 43 74 116 173 267 348 439 590 664 698 542 417 296 295 290 329 291 187 195 208 239 224 250 308
39 72 38 43 58 22 36 47 18 -12 -22 76 104 137 87 51 30 15 27 41 66 75 110 130 153 210 286 397 456 612 654 541 480 309 300 335 365 354 337 348 343 340 321 317
55 60 64 56 47 40 87 86 85 64 67 -9 -27 21 5 0 -14 -5 27 55 76 75 92 128 166 157 188 275 264 237 250 304 284 211 209 228 226 217 233 234 257 248 229 269
56 65 30 73 28 29 74 106 99 104 92 101 10 15 -12 -17 -6 8 35 55 60 55 66 55 62 66 70 99 134 143 114 100 49 81 130 105 126 170 177 159 152 136 156 142
45 40 16 41 22 -23 -36 109 92 102 90 10 9 -2 -9 -3 -4 10 28 29 10 21 32 58 78 71 56 57 46 42 42 24 37 48 65 77 60 62 80 77 111 150 130 123
22 20 18 23 -5 -8 45 32 59 85 103 73 46 17 8 6 8 13 8 6 14 25 44 60 64 53 50 42 36 23 29 39 55 78 76 66 61 54 43 39 40 40 53 79
10 28 18 24 69 48 36 32 33 69 74 57 27 27 38 35 29 38 25 24 24 21 16 14 5 -2 0 14 13 10 34 45 77 96 95 99 80 65 60 65 58 26 14 18
20 19 9 38 64 19 104 91 39 48 60 51 29 24 26 33 36 31 7 7 -9 -14 -12 -13 -15 -18 -7 9 3 14 42 56 76 80 52 25 14 25 28 27 31 12 7 10
36 29 23 43 81 52 102 79 42 62 74 40 58 47 23 32 22 -1 -3 3 -8 -9 -2 -12 -7 -2 5 -5 -4 8 17 31 14 6 19 30 30 24 22 13 15 14 7 6
44 39 36 34 64 42 83 91 71 55 62 52 64 56 53 31 10 12 6 -4 1 3 5 0 -2 5 7 7 2 11 20 16 15 17 18 25 23 19 11 20 22 24 30 22
52 45 58 73 84 86 126 115 63 58 52 47 46 35 24 18 18 9 8 12 16 18 9 4 6 9 15 18 17 27 31 23 23 26 31 30 38 28 27 39 39 32 24 9
42 31 46 35 36 59 93 104 87 63 58 51 42 33 16 25 22 20 19 19 18 18 19 12 14 23 26 24 24 19 14 10 10 17 18 9 15 15 22 14 20 26 33 35
49 46 54 45 44 47 52 66 67 73 73 66 51 38 31 22 20 17 17 16 17 19 22 21 24 24 23 13 14 13 16 19 20 20 18 17 6 5 -7 -5 -7 -13 2 15
26 42 44 49 43 48 49 52 55 57 56 47 41 35 26 16 11 4 13 15 21 26 24 27 24 16 12 11 13 12 11 12 11 14 6 8 10 22 33 39 25 53 42 72